﻿<?xml version="1.0" encoding="UTF-8" standalone="no" ?><gpx xmlns="http://www.topografix.com/GPX/1/1" xmlns:gpxx="http://www.garmin.com/xmlschemas/GpxExtensions/v3" xmlns:gpxtrkx="http://www.garmin.com/xmlschemas/TrackStatsExtension/v1" xmlns:wptx1="http://www.garmin.com/xmlschemas/WaypointExtension/v1" xmlns:gpxtpx="http://www.garmin.com/xmlschemas/TrackPointExtension/v1" creator="GPSMAP 66sr" version="1.1" xmlns:xsi="http://www.w3.org/2001/XMLSchema-instance" xsi:schemaLocation="http://www.topografix.com/GPX/1/1 http://www.topografix.com/GPX/1/1/gpx.xsd http://www.garmin.com/xmlschemas/GpxExtensions/v3 http://www8.garmin.com/xmlschemas/GpxExtensionsv3.xsd http://www.garmin.com/xmlschemas/TrackStatsExtension/v1 http://www8.garmin.com/xmlschemas/TrackStatsExtension.xsd http://www.garmin.com/xmlschemas/WaypointExtension/v1 http://www8.garmin.com/xmlschemas/WaypointExtensionv1.xsd http://www.garmin.com/xmlschemas/TrackPointExtension/v1 http://www.garmin.com/xmlschemas/TrackPointExtensionv1.xsd"><metadata><link href="http://www.garmin.com"><text>Garmin International</text></link><time>2026-08-20T09:33:38Z</time></metadata><trk><name>2026-08-20 19:33:54</name><trkseg><trkpt lat="42.3656913752" lon="13.7203621314"><ele>1322.78</ele><time>2026-8-20T9:34:12Z</time></trkpt><trkpt lat="42.3656602165" lon="13.7203660317"><ele>1323.62</ele><time>2026-8-20T9:35:12Z</time></trkpt><trkpt lat="42.3656088906" lon="13.7205057638"><ele>1323.90</ele><time>2026-8-20T9:35:40Z</time></trkpt><trkpt lat="42.3656143248" lon="13.7206845917"><ele>1323.79</ele><time>2026-8-20T9:35:45Z</time></trkpt><trkpt lat="42.3656179570" lon="13.7208551634"><ele>1323.65</ele><time>2026-8-20T9:35:48Z</time></trkpt><trkpt lat="42.3656339105" lon="13.7210471369"><ele>1323.54</ele><time>2026-8-20T9:35:51Z</time></trkpt><trkpt lat="42.3656518199" lon="13.7211848795"><ele>1323.40</ele><time>2026-8-20T9:35:53Z</time></trkpt><trkpt lat="42.3656798154" lon="13.7214154377"><ele>1323.21</ele><time>2026-8-20T9:35:55Z</time></trkpt><trkpt lat="42.3656934361" lon="13.7216254324"><ele>1322.99</ele><time>2026-8-20T9:35:57Z</time></trkpt><trkpt lat="42.3657057574" lon="13.7218002789"><ele>1322.90</ele><time>2026-8-20T9:35:59Z</time></trkpt><trkpt lat="42.3657133850" lon="13.7219782686"><ele>1322.81</ele><time>2026-8-20T9:36:1Z</time></trkpt><trkpt lat="42.3657085654" lon="13.7221438112"><ele>1322.58</ele><time>2026-8-20T9:36:3Z</time></trkpt><trkpt lat="42.3656792706" lon="13.7222981639"><ele>1322.25</ele><time>2026-8-20T9:36:5Z</time></trkpt><trkpt lat="42.3656161968" lon="13.7224399438"><ele>1321.57</ele><time>2026-8-20T9:36:7Z</time></trkpt><trkpt lat="42.3655338446" lon="13.7225746829"><ele>1320.82</ele><time>2026-8-20T9:36:9Z</time></trkpt><trkpt lat="42.3654391710" lon="13.7227070332"><ele>1320.31</ele><time>2026-8-20T9:36:11Z</time></trkpt><trkpt lat="42.3653397616" lon="13.7228460051"><ele>1319.97</ele><time>2026-8-20T9:36:13Z</time></trkpt><trkpt lat="42.3652364547" lon="13.7229908444"><ele>1319.56</ele><time>2026-8-20T9:36:15Z</time></trkpt><trkpt lat="42.3651295854" lon="13.7231394136"><ele>1319.29</ele><time>2026-8-20T9:36:17Z</time></trkpt><trkpt lat="42.3650465626" lon="13.7232555449"><ele>1319.15</ele><time>2026-8-20T9:36:19Z</time></trkpt><trkpt lat="42.3649691558" lon="13.7233661860"><ele>1318.79</ele><time>2026-8-20T9:36:20Z</time></trkpt><trkpt lat="42.3648668966" lon="13.7235075049"><ele>1318.22</ele><time>2026-8-20T9:36:22Z</time></trkpt><trkpt lat="42.3647655175" lon="13.7236427888"><ele>1317.76</ele><time>2026-8-20T9:36:24Z</time></trkpt><trkpt lat="42.3646714725" lon="13.7237828504"><ele>1317.41</ele><time>2026-8-20T9:36:26Z</time></trkpt><trkpt lat="42.3645802354" lon="13.7239167514"><ele>1317.07</ele><time>2026-8-20T9:36:28Z</time></trkpt><trkpt lat="42.3644790519" lon="13.7240595929"><ele>1316.92</ele><time>2026-8-20T9:36:31Z</time></trkpt><trkpt lat="42.3643819448" lon="13.7242028173"><ele>1316.56</ele><time>2026-8-20T9:36:35Z</time></trkpt><trkpt lat="42.3643593723" lon="13.7243338558"><ele>1315.47</ele><time>2026-8-20T9:36:41Z</time></trkpt><trkpt lat="42.3644204659" lon="13.7244852120"><ele>1314.69</ele><time>2026-8-20T9:36:49Z</time></trkpt><trkpt lat="42.3644845001" lon="13.7246539537"><ele>1315.38</ele><time>2026-8-20T9:36:58Z</time></trkpt><trkpt lat="42.3645519838" lon="13.7248137779"><ele>1316.55</ele><time>2026-8-20T9:37:7Z</time></trkpt><trkpt lat="42.3646140937" lon="13.7249684241"><ele>1317.76</ele><time>2026-8-20T9:37:16Z</time></trkpt><trkpt lat="42.3646778706" lon="13.7251201738"><ele>1319.05</ele><time>2026-8-20T9:37:25Z</time></trkpt><trkpt lat="42.3647494577" lon="13.7252804031"><ele>1320.24</ele><time>2026-8-20T9:37:34Z</time></trkpt><trkpt lat="42.3648035461" lon="13.7253906524"><ele>1321.15</ele><time>2026-8-20T9:37:59Z</time></trkpt><trkpt lat="42.3648842387" lon="13.7255369816"><ele>1321.51</ele><time>2026-8-20T9:38:24Z</time></trkpt><trkpt lat="42.3649379499" lon="13.7256888785"><ele>1323.29</ele><time>2026-8-20T9:38:34Z</time></trkpt><trkpt lat="42.3650206174" lon="13.7258109937"><ele>1325.27</ele><time>2026-8-20T9:38:46Z</time></trkpt><trkpt lat="42.3650696715" lon="13.7258982304"><ele>1327.71</ele><time>2026-8-20T9:39:7Z</time></trkpt><trkpt lat="42.3650663260" lon="13.7259245434"><ele>1328.24</ele><time>2026-8-20T9:39:36Z</time></trkpt><trkpt lat="42.3651164049" lon="13.7257518852"><ele>1328.24</ele><time>2026-8-20T9:39:52Z</time></trkpt><trkpt lat="42.3652366852" lon="13.7256497098"><ele>1327.64</ele><time>2026-8-20T9:39:58Z</time></trkpt><trkpt lat="42.3653218662" lon="13.7255293960"><ele>1328.37</ele><time>2026-8-20T9:40:7Z</time></trkpt><trkpt lat="42.3654017039" lon="13.7253770779"><ele>1329.66</ele><time>2026-8-20T9:40:16Z</time></trkpt><trkpt lat="42.3654743750" lon="13.7252453249"><ele>1330.30</ele><time>2026-8-20T9:40:24Z</time></trkpt><trkpt lat="42.3655835388" lon="13.7251252437"><ele>1330.68</ele><time>2026-8-20T9:40:32Z</time></trkpt><trkpt lat="42.3656732670" lon="13.7249912170"><ele>1331.31</ele><time>2026-8-20T9:40:40Z</time></trkpt><trkpt lat="42.3657640628" lon="13.7248664535"><ele>1332.18</ele><time>2026-8-20T9:40:49Z</time></trkpt><trkpt lat="42.3658568580" lon="13.7247403655"><ele>1333.08</ele><time>2026-8-20T9:40:58Z</time></trkpt><trkpt lat="42.3659307277" lon="13.7245989859"><ele>1333.99</ele><time>2026-8-20T9:41:7Z</time></trkpt><trkpt lat="42.3659930471" lon="13.7245148316"><ele>1334.96</ele><time>2026-8-20T9:41:15Z</time></trkpt><trkpt lat="42.3659765461" lon="13.7246222074"><ele>1335.83</ele><time>2026-8-20T9:41:38Z</time></trkpt><trkpt lat="42.3660536991" lon="13.7245331781"><ele>1335.58</ele><time>2026-8-20T9:42:13Z</time></trkpt><trkpt lat="42.3661372243" lon="13.7244647434"><ele>1335.69</ele><time>2026-8-20T9:42:34Z</time></trkpt><trkpt lat="42.3662419645" lon="13.7243496347"><ele>1337.35</ele><time>2026-8-20T9:42:44Z</time></trkpt><trkpt lat="42.3663475681" lon="13.7242348362"><ele>1339.09</ele><time>2026-8-20T9:42:54Z</time></trkpt><trkpt lat="42.3664430128" lon="13.7241105828"><ele>1340.74</ele><time>2026-8-20T9:43:4Z</time></trkpt><trkpt lat="42.3665285586" lon="13.7239689957"><ele>1342.48</ele><time>2026-8-20T9:43:14Z</time></trkpt><trkpt lat="42.3666130817" lon="13.7238410125"><ele>1343.81</ele><time>2026-8-20T9:43:24Z</time></trkpt><trkpt lat="42.3667183256" lon="13.7237396531"><ele>1345.54</ele><time>2026-8-20T9:43:35Z</time></trkpt><trkpt lat="42.3668295611" lon="13.7236230371"><ele>1348.34</ele><time>2026-8-20T9:43:49Z</time></trkpt><trkpt lat="42.3668636521" lon="13.7236107746"><ele>1349.16</ele><time>2026-8-20T9:44:15Z</time></trkpt><trkpt lat="42.3668360675" lon="13.7237764173"><ele>1349.28</ele><time>2026-8-20T9:44:37Z</time></trkpt><trkpt lat="42.3667682370" lon="13.7239159027"><ele>1349.75</ele><time>2026-8-20T9:44:45Z</time></trkpt><trkpt lat="42.3667182159" lon="13.7240754124"><ele>1350.41</ele><time>2026-8-20T9:44:54Z</time></trkpt><trkpt lat="42.3667447432" lon="13.7241286319"><ele>1351.87</ele><time>2026-8-20T9:45:5Z</time></trkpt><trkpt lat="42.3668438941" lon="13.7240133528"><ele>1353.35</ele><time>2026-8-20T9:45:16Z</time></trkpt><trkpt lat="42.3669556417" lon="13.7239139602"><ele>1354.99</ele><time>2026-8-20T9:45:25Z</time></trkpt><trkpt lat="42.3670502566" lon="13.7237927327"><ele>1356.79</ele><time>2026-8-20T9:45:35Z</time></trkpt><trkpt lat="42.3671165803" lon="13.7236383769"><ele>1358.58</ele><time>2026-8-20T9:45:46Z</time></trkpt><trkpt lat="42.3672058381" lon="13.7235255092"><ele>1360.85</ele><time>2026-8-20T9:46:4Z</time></trkpt><trkpt lat="42.3672098404" lon="13.7235839174"><ele>1361.17</ele><time>2026-8-20T9:46:22Z</time></trkpt><trkpt lat="42.3671238664" lon="13.7237691712"><ele>1360.94</ele><time>2026-8-20T9:46:30Z</time></trkpt><trkpt lat="42.3670564592" lon="13.7239363231"><ele>1360.97</ele><time>2026-8-20T9:46:34Z</time></trkpt><trkpt lat="42.3669951246" lon="13.7240881613"><ele>1360.93</ele><time>2026-8-20T9:46:38Z</time></trkpt><trkpt lat="42.3669329770" lon="13.7242262364"><ele>1360.77</ele><time>2026-8-20T9:46:43Z</time></trkpt><trkpt lat="42.3668322600" lon="13.7243557871"><ele>1360.54</ele><time>2026-8-20T9:46:48Z</time></trkpt><trkpt lat="42.3667559889" lon="13.7245026254"><ele>1360.59</ele><time>2026-8-20T9:46:52Z</time></trkpt><trkpt lat="42.3666721489" lon="13.7246471923"><ele>1360.72</ele><time>2026-8-20T9:46:57Z</time></trkpt><trkpt lat="42.3665892854" lon="13.7248134725"><ele>1360.76</ele><time>2026-8-20T9:47:2Z</time></trkpt><trkpt lat="42.3665166018" lon="13.7249507429"><ele>1360.81</ele><time>2026-8-20T9:47:6Z</time></trkpt><trkpt lat="42.3664342147" lon="13.7250909582"><ele>1360.93</ele><time>2026-8-20T9:47:11Z</time></trkpt><trkpt lat="42.3663467970" lon="13.7252401114"><ele>1360.82</ele><time>2026-8-20T9:47:17Z</time></trkpt><trkpt lat="42.3662835639" lon="13.7253876706"><ele>1360.64</ele><time>2026-8-20T9:47:21Z</time></trkpt><trkpt lat="42.3662098367" lon="13.7255279459"><ele>1360.40</ele><time>2026-8-20T9:47:26Z</time></trkpt><trkpt lat="42.3661397975" lon="13.7256822568"><ele>1360.28</ele><time>2026-8-20T9:47:31Z</time></trkpt><trkpt lat="42.3660715437" lon="13.7258494506"><ele>1360.31</ele><time>2026-8-20T9:47:36Z</time></trkpt><trkpt lat="42.3660228197" lon="13.7260325365"><ele>1360.52</ele><time>2026-8-20T9:47:42Z</time></trkpt><trkpt lat="42.3659701478" lon="13.7261943743"><ele>1360.80</ele><time>2026-8-20T9:47:47Z</time></trkpt><trkpt lat="42.3659168347" lon="13.7263449468"><ele>1360.93</ele><time>2026-8-20T9:47:51Z</time></trkpt><trkpt lat="42.3658637423" lon="13.7264978327"><ele>1361.03</ele><time>2026-8-20T9:47:55Z</time></trkpt><trkpt lat="42.3658111598" lon="13.7266735733"><ele>1360.85</ele><time>2026-8-20T9:47:58Z</time></trkpt><trkpt lat="42.3657676857" lon="13.7268649042"><ele>1360.45</ele><time>2026-8-20T9:48:1Z</time></trkpt><trkpt lat="42.3657678883" lon="13.7270429079"><ele>1359.96</ele><time>2026-8-20T9:48:4Z</time></trkpt><trkpt lat="42.3657990803" lon="13.7272154888"><ele>1360.02</ele><time>2026-8-20T9:48:24Z</time></trkpt><trkpt lat="42.3658095393" lon="13.7273658067"><ele>1359.65</ele><time>2026-8-20T9:48:44Z</time></trkpt><trkpt lat="42.3658117130" lon="13.7275642957"><ele>1359.56</ele><time>2026-8-20T9:48:50Z</time></trkpt><trkpt lat="42.3658133182" lon="13.7277411623"><ele>1359.77</ele><time>2026-8-20T9:48:54Z</time></trkpt><trkpt lat="42.3658119561" lon="13.7279129704"><ele>1359.82</ele><time>2026-8-20T9:48:58Z</time></trkpt><trkpt lat="42.3658095254" lon="13.7280914630"><ele>1359.83</ele><time>2026-8-20T9:49:2Z</time></trkpt><trkpt lat="42.3658040352" lon="13.7282702071"><ele>1359.83</ele><time>2026-8-20T9:49:6Z</time></trkpt><trkpt lat="42.3658003891" lon="13.7284478196"><ele>1359.78</ele><time>2026-8-20T9:49:10Z</time></trkpt><trkpt lat="42.3657982098" lon="13.7286271714"><ele>1359.79</ele><time>2026-8-20T9:49:14Z</time></trkpt><trkpt lat="42.3657978745" lon="13.7288128095"><ele>1359.84</ele><time>2026-8-20T9:49:18Z</time></trkpt><trkpt lat="42.3657965334" lon="13.7290023454"><ele>1359.89</ele><time>2026-8-20T9:49:22Z</time></trkpt><trkpt lat="42.3657968938" lon="13.7291982807"><ele>1359.91</ele><time>2026-8-20T9:49:27Z</time></trkpt><trkpt lat="42.3657955416" lon="13.7293708418"><ele>1359.82</ele><time>2026-8-20T9:49:31Z</time></trkpt><trkpt lat="42.3657943541" lon="13.7295453879"><ele>1359.83</ele><time>2026-8-20T9:49:34Z</time></trkpt><trkpt lat="42.3658266035" lon="13.7297372706"><ele>1359.87</ele><time>2026-8-20T9:49:38Z</time></trkpt><trkpt lat="42.3658763501" lon="13.7299117190"><ele>1359.82</ele><time>2026-8-20T9:49:42Z</time></trkpt><trkpt lat="42.3659287160" lon="13.7300781417"><ele>1359.78</ele><time>2026-8-20T9:49:46Z</time></trkpt><trkpt lat="42.3659619670" lon="13.7302441411"><ele>1359.84</ele><time>2026-8-20T9:49:51Z</time></trkpt><trkpt lat="42.3660145747" lon="13.7304046797"><ele>1360.33</ele><time>2026-8-20T9:49:56Z</time></trkpt><trkpt lat="42.3660761118" lon="13.7305744458"><ele>1360.78</ele><time>2026-8-20T9:50:4Z</time></trkpt><trkpt lat="42.3661595536" lon="13.7307125218"><ele>1361.22</ele><time>2026-8-20T9:50:13Z</time></trkpt><trkpt lat="42.3662474128" lon="13.7308373703"><ele>1361.91</ele><time>2026-8-20T9:50:23Z</time></trkpt><trkpt lat="42.3663354250" lon="13.7309736699"><ele>1363.57</ele><time>2026-8-20T9:50:34Z</time></trkpt><trkpt lat="42.3664236674" lon="13.7311168481"><ele>1365.23</ele><time>2026-8-20T9:50:44Z</time></trkpt><trkpt lat="42.3665203070" lon="13.7312379056"><ele>1366.80</ele><time>2026-8-20T9:50:55Z</time></trkpt><trkpt lat="42.3666331045" lon="13.7313279272"><ele>1368.71</ele><time>2026-8-20T9:51:6Z</time></trkpt><trkpt lat="42.3667550653" lon="13.7313862037"><ele>1370.82</ele><time>2026-8-20T9:51:18Z</time></trkpt><trkpt lat="42.3668927858" lon="13.7314224942"><ele>1372.48</ele><time>2026-8-20T9:51:29Z</time></trkpt><trkpt lat="42.3669713681" lon="13.7314538992"><ele>1373.51</ele><time>2026-8-20T9:51:51Z</time></trkpt><trkpt lat="42.3671146128" lon="13.7315378543"><ele>1374.02</ele><time>2026-8-20T9:52:13Z</time></trkpt><trkpt lat="42.3672260742" lon="13.7316381822"><ele>1374.72</ele><time>2026-8-20T9:52:47Z</time></trkpt><trkpt lat="42.3672965914" lon="13.7317410670"><ele>1374.65</ele><time>2026-8-20T9:53:21Z</time></trkpt><trkpt lat="42.3673691042" lon="13.7318956359"><ele>1375.26</ele><time>2026-8-20T9:53:30Z</time></trkpt><trkpt lat="42.3674379447" lon="13.7320558308"><ele>1376.66</ele><time>2026-8-20T9:53:40Z</time></trkpt><trkpt lat="42.3674987265" lon="13.7322155175"><ele>1378.36</ele><time>2026-8-20T9:53:51Z</time></trkpt><trkpt lat="42.3675617119" lon="13.7323678220"><ele>1380.28</ele><time>2026-8-20T9:54:1Z</time></trkpt><trkpt lat="42.3676512162" lon="13.7325002812"><ele>1381.90</ele><time>2026-8-20T9:54:12Z</time></trkpt><trkpt lat="42.3677455050" lon="13.7326347041"><ele>1383.51</ele><time>2026-8-20T9:54:23Z</time></trkpt><trkpt lat="42.3678329130" lon="13.7327625586"><ele>1384.75</ele><time>2026-8-20T9:54:34Z</time></trkpt><trkpt lat="42.3679390050" lon="13.7328828312"><ele>1385.75</ele><time>2026-8-20T9:54:45Z</time></trkpt><trkpt lat="42.3680499913" lon="13.7329822322"><ele>1386.29</ele><time>2026-8-20T9:54:55Z</time></trkpt><trkpt lat="42.3681554486" lon="13.7330955411"><ele>1387.03</ele><time>2026-8-20T9:55:6Z</time></trkpt><trkpt lat="42.3682575328" lon="13.7332066326"><ele>1388.39</ele><time>2026-8-20T9:55:26Z</time></trkpt><trkpt lat="42.3683463223" lon="13.7333228160"><ele>1388.79</ele><time>2026-8-20T9:55:46Z</time></trkpt><trkpt lat="42.3684500437" lon="13.7334387004"><ele>1389.54</ele><time>2026-8-20T9:55:55Z</time></trkpt><trkpt lat="42.3685613833" lon="13.7335391995"><ele>1390.29</ele><time>2026-8-20T9:56:4Z</time></trkpt><trkpt lat="42.3686760245" lon="13.7336233305"><ele>1390.67</ele><time>2026-8-20T9:56:11Z</time></trkpt><trkpt lat="42.3687876435" lon="13.7337208539"><ele>1390.84</ele><time>2026-8-20T9:56:17Z</time></trkpt><trkpt lat="42.3688998313" lon="13.7338424394"><ele>1390.87</ele><time>2026-8-20T9:56:24Z</time></trkpt><trkpt lat="42.3689988575" lon="13.7339784897"><ele>1391.06</ele><time>2026-8-20T9:56:31Z</time></trkpt><trkpt lat="42.3690844607" lon="13.7341060383"><ele>1391.57</ele><time>2026-8-20T9:56:38Z</time></trkpt><trkpt lat="42.3691624752" lon="13.7342424283"><ele>1392.20</ele><time>2026-8-20T9:56:45Z</time></trkpt><trkpt lat="42.3692385200" lon="13.7344015576"><ele>1393.03</ele><time>2026-8-20T9:56:54Z</time></trkpt><trkpt lat="42.3693047161" lon="13.7345538789"><ele>1394.06</ele><time>2026-8-20T9:57:2Z</time></trkpt><trkpt lat="42.3693738459" lon="13.7347120140"><ele>1395.21</ele><time>2026-8-20T9:57:11Z</time></trkpt><trkpt lat="42.3694387951" lon="13.7348753459"><ele>1396.34</ele><time>2026-8-20T9:57:20Z</time></trkpt><trkpt lat="42.3694789782" lon="13.7349710361"><ele>1397.78</ele><time>2026-8-20T9:57:56Z</time></trkpt><trkpt lat="42.3695617142" lon="13.7351176981"><ele>1398.26</ele><time>2026-8-20T9:58:31Z</time></trkpt><trkpt lat="42.3696498724" lon="13.7352581998"><ele>1398.59</ele><time>2026-8-20T9:58:38Z</time></trkpt><trkpt lat="42.3697489675" lon="13.7353995920"><ele>1399.09</ele><time>2026-8-20T9:58:46Z</time></trkpt><trkpt lat="42.3698506265" lon="13.7355062113"><ele>1399.53</ele><time>2026-8-20T9:58:54Z</time></trkpt><trkpt lat="42.3699687275" lon="13.7355791099"><ele>1400.11</ele><time>2026-8-20T9:59:1Z</time></trkpt><trkpt lat="42.3700865292" lon="13.7356628092"><ele>1400.43</ele><time>2026-8-20T9:59:8Z</time></trkpt><trkpt lat="42.3701664596" lon="13.7358126521"><ele>1400.63</ele><time>2026-8-20T9:59:15Z</time></trkpt><trkpt lat="42.3702138069" lon="13.7359891332"><ele>1400.94</ele><time>2026-8-20T9:59:23Z</time></trkpt><trkpt lat="42.3702700622" lon="13.7361468002"><ele>1401.78</ele><time>2026-8-20T9:59:32Z</time></trkpt><trkpt lat="42.3703499604" lon="13.7362974007"><ele>1403.07</ele><time>2026-8-20T9:59:41Z</time></trkpt><trkpt lat="42.3704312183" lon="13.7364477292"><ele>1404.19</ele><time>2026-8-20T9:59:51Z</time></trkpt><trkpt lat="42.3704880020" lon="13.7366084196"><ele>1405.53</ele><time>2026-8-20T10:0:0Z</time></trkpt><trkpt lat="42.3705321178" lon="13.7367825303"><ele>1407.07</ele><time>2026-8-20T10:0:10Z</time></trkpt><trkpt lat="42.3705584906" lon="13.7369145209"><ele>1408.95</ele><time>2026-8-20T10:0:29Z</time></trkpt><trkpt lat="42.3705878304" lon="13.7370964475"><ele>1409.78</ele><time>2026-8-20T10:0:48Z</time></trkpt><trkpt lat="42.3706175412" lon="13.7372756191"><ele>1411.50</ele><time>2026-8-20T10:0:59Z</time></trkpt><trkpt lat="42.3706244074" lon="13.7374264933"><ele>1414.33</ele><time>2026-8-20T10:1:17Z</time></trkpt><trkpt lat="42.3705985981" lon="13.7376013627"><ele>1415.69</ele><time>2026-8-20T10:1:35Z</time></trkpt><trkpt lat="42.3705528192" lon="13.7377659939"><ele>1417.04</ele><time>2026-8-20T10:1:45Z</time></trkpt><trkpt lat="42.3704911368" lon="13.7379220901"><ele>1418.01</ele><time>2026-8-20T10:1:55Z</time></trkpt><trkpt lat="42.3704345841" lon="13.7380869873"><ele>1419.25</ele><time>2026-8-20T10:2:5Z</time></trkpt><trkpt lat="42.3703800263" lon="13.7382588331"><ele>1420.60</ele><time>2026-8-20T10:2:15Z</time></trkpt><trkpt lat="42.3703691550" lon="13.7384311566"><ele>1421.79</ele><time>2026-8-20T10:2:25Z</time></trkpt><trkpt lat="42.3704341340" lon="13.7385926611"><ele>1423.23</ele><time>2026-8-20T10:2:37Z</time></trkpt><trkpt lat="42.3705307276" lon="13.7387131231"><ele>1424.57</ele><time>2026-8-20T10:2:49Z</time></trkpt><trkpt lat="42.3706253583" lon="13.7388330500"><ele>1425.08</ele><time>2026-8-20T10:2:58Z</time></trkpt><trkpt lat="42.3707117094" lon="13.7389647821"><ele>1425.29</ele><time>2026-8-20T10:3:5Z</time></trkpt><trkpt lat="42.3707814468" lon="13.7391135190"><ele>1425.05</ele><time>2026-8-20T10:3:11Z</time></trkpt><trkpt lat="42.3708316265" lon="13.7392868567"><ele>1424.86</ele><time>2026-8-20T10:3:17Z</time></trkpt><trkpt lat="42.3708731867" lon="13.7394639664"><ele>1424.71</ele><time>2026-8-20T10:3:23Z</time></trkpt><trkpt lat="42.3708716474" lon="13.7396658620"><ele>1424.76</ele><time>2026-8-20T10:3:42Z</time></trkpt><trkpt lat="42.3708766852" lon="13.7395661238"><ele>1424.58</ele><time>2026-8-20T10:4:4Z</time></trkpt><trkpt lat="42.3708230646" lon="13.7394074625"><ele>1424.12</ele><time>2026-8-20T10:4:20Z</time></trkpt><trkpt lat="42.3707186342" lon="13.7394281044"><ele>1425.59</ele><time>2026-8-20T10:4:38Z</time></trkpt><trkpt lat="42.3705978919" lon="13.7393874605"><ele>1428.05</ele><time>2026-8-20T10:4:56Z</time></trkpt><trkpt lat="42.3704852164" lon="13.7392816655"><ele>1429.64</ele><time>2026-8-20T10:5:12Z</time></trkpt><trkpt lat="42.3703616341" lon="13.7392342527"><ele>1430.68</ele><time>2026-8-20T10:5:30Z</time></trkpt><trkpt lat="42.3703455222" lon="13.7392042808"><ele>1430.27</ele><time>2026-8-20T10:7:31Z</time></trkpt><trkpt lat="42.3703451202" lon="13.7392003528"><ele>1431.90</ele><time>2026-8-20T10:9:52Z</time></trkpt><trkpt lat="42.3704627441" lon="13.7392070243"><ele>1432.00</ele><time>2026-8-20T10:10:31Z</time></trkpt><trkpt lat="42.3705817144" lon="13.7392074466"><ele>1430.36</ele><time>2026-8-20T10:10:47Z</time></trkpt><trkpt lat="42.3706822470" lon="13.7392993849"><ele>1429.81</ele><time>2026-8-20T10:11:2Z</time></trkpt><trkpt lat="42.3707833245" lon="13.7393859752"><ele>1427.62</ele><time>2026-8-20T10:11:18Z</time></trkpt><trkpt lat="42.3708364953" lon="13.7393618229"><ele>1426.08</ele><time>2026-8-20T10:11:58Z</time></trkpt><trkpt lat="42.3708721215" lon="13.7395197165"><ele>1426.39</ele><time>2026-8-20T10:12:33Z</time></trkpt><trkpt lat="42.3708508749" lon="13.7397017250"><ele>1426.51</ele><time>2026-8-20T10:12:41Z</time></trkpt><trkpt lat="42.3708044586" lon="13.7398682360"><ele>1427.27</ele><time>2026-8-20T10:12:48Z</time></trkpt><trkpt lat="42.3707593445" lon="13.7400422578"><ele>1427.97</ele><time>2026-8-20T10:12:56Z</time></trkpt><trkpt lat="42.3707210552" lon="13.7402102212"><ele>1428.52</ele><time>2026-8-20T10:13:2Z</time></trkpt><trkpt lat="42.3706802912" lon="13.7403791025"><ele>1428.70</ele><time>2026-8-20T10:13:8Z</time></trkpt><trkpt lat="42.3706246144" lon="13.7405481027"><ele>1428.65</ele><time>2026-8-20T10:13:12Z</time></trkpt><trkpt lat="42.3705656896" lon="13.7406934868"><ele>1428.12</ele><time>2026-8-20T10:13:16Z</time></trkpt><trkpt lat="42.3704992002" lon="13.7408726500"><ele>1426.95</ele><time>2026-8-20T10:13:20Z</time></trkpt><trkpt lat="42.3704412184" lon="13.7410400575"><ele>1425.50</ele><time>2026-8-20T10:13:24Z</time></trkpt><trkpt lat="42.3703831108" lon="13.7411962124"><ele>1423.53</ele><time>2026-8-20T10:13:28Z</time></trkpt><trkpt lat="42.3703272455" lon="13.7413652963"><ele>1421.32</ele><time>2026-8-20T10:13:32Z</time></trkpt><trkpt lat="42.3702905886" lon="13.7415264733"><ele>1419.53</ele><time>2026-8-20T10:13:36Z</time></trkpt><trkpt lat="42.3702548258" lon="13.7417019555"><ele>1417.99</ele><time>2026-8-20T10:13:39Z</time></trkpt><trkpt lat="42.3702125251" lon="13.7418736238"><ele>1415.90</ele><time>2026-8-20T10:13:43Z</time></trkpt><trkpt lat="42.3701711535" lon="13.7420531572"><ele>1413.69</ele><time>2026-8-20T10:13:46Z</time></trkpt><trkpt lat="42.3701237049" lon="13.7422311958"><ele>1411.87</ele><time>2026-8-20T10:13:50Z</time></trkpt><trkpt lat="42.3700700607" lon="13.7423743587"><ele>1410.33</ele><time>2026-8-20T10:13:53Z</time></trkpt><trkpt lat="42.3699949868" lon="13.7425465579"><ele>1408.09</ele><time>2026-8-20T10:13:56Z</time></trkpt><trkpt lat="42.3699191585" lon="13.7427053321"><ele>1406.35</ele><time>2026-8-20T10:14:0Z</time></trkpt><trkpt lat="42.3698404245" lon="13.7428326812"><ele>1405.03</ele><time>2026-8-20T10:14:3Z</time></trkpt><trkpt lat="42.3697472597" lon="13.7429791060"><ele>1403.23</ele><time>2026-8-20T10:14:6Z</time></trkpt><trkpt lat="42.3696447629" lon="13.7431223318"><ele>1401.59</ele><time>2026-8-20T10:14:10Z</time></trkpt><trkpt lat="42.3695518635" lon="13.7432231102"><ele>1400.30</ele><time>2026-8-20T10:14:13Z</time></trkpt><trkpt lat="42.3694505193" lon="13.7433453114"><ele>1398.88</ele><time>2026-8-20T10:14:16Z</time></trkpt><trkpt lat="42.3693389911" lon="13.7434556801"><ele>1397.27</ele><time>2026-8-20T10:14:20Z</time></trkpt><trkpt lat="42.3692350835" lon="13.7435754365"><ele>1396.07</ele><time>2026-8-20T10:14:23Z</time></trkpt><trkpt lat="42.3691342771" lon="13.7437220849"><ele>1394.69</ele><time>2026-8-20T10:14:27Z</time></trkpt><trkpt lat="42.3690590635" lon="13.7438655551"><ele>1393.33</ele><time>2026-8-20T10:14:30Z</time></trkpt><trkpt lat="42.3689922039" lon="13.7440118194"><ele>1392.51</ele><time>2026-8-20T10:14:33Z</time></trkpt><trkpt lat="42.3689180519" lon="13.7441671919"><ele>1391.60</ele><time>2026-8-20T10:14:36Z</time></trkpt><trkpt lat="42.3688377812" lon="13.7443317287"><ele>1390.64</ele><time>2026-8-20T10:14:39Z</time></trkpt><trkpt lat="42.3687676247" lon="13.7444737461"><ele>1389.68</ele><time>2026-8-20T10:14:41Z</time></trkpt><trkpt lat="42.3686968535" lon="13.7446150370"><ele>1388.99</ele><time>2026-8-20T10:14:44Z</time></trkpt><trkpt lat="42.3685981426" lon="13.7447624467"><ele>1388.09</ele><time>2026-8-20T10:14:47Z</time></trkpt><trkpt lat="42.3684881511" lon="13.7448567571"><ele>1386.95</ele><time>2026-8-20T10:14:50Z</time></trkpt><trkpt lat="42.3683540616" lon="13.7448949925"><ele>1385.78</ele><time>2026-8-20T10:14:54Z</time></trkpt><trkpt lat="42.3682279419" lon="13.7449295540"><ele>1384.64</ele><time>2026-8-20T10:14:57Z</time></trkpt><trkpt lat="42.3681007186" lon="13.7449673144"><ele>1383.23</ele><time>2026-8-20T10:15:0Z</time></trkpt><trkpt lat="42.3679622915" lon="13.7450122833"><ele>1381.39</ele><time>2026-8-20T10:15:4Z</time></trkpt><trkpt lat="42.3678520974" lon="13.7450486049"><ele>1379.87</ele><time>2026-8-20T10:15:7Z</time></trkpt><trkpt lat="42.3677379918" lon="13.7451384869"><ele>1378.48</ele><time>2026-8-20T10:15:10Z</time></trkpt><trkpt lat="42.3676364030" lon="13.7452795263"><ele>1377.16</ele><time>2026-8-20T10:15:13Z</time></trkpt><trkpt lat="42.3675366794" lon="13.7454069452"><ele>1375.25</ele><time>2026-8-20T10:15:16Z</time></trkpt><trkpt lat="42.3673985805" lon="13.7455068575"><ele>1373.58</ele><time>2026-8-20T10:15:21Z</time></trkpt><trkpt lat="42.3673624934" lon="13.7455143393"><ele>1368.31</ele><time>2026-8-20T10:15:47Z</time></trkpt><trkpt lat="42.3672350636" lon="13.7454348430"><ele>1366.99</ele><time>2026-8-20T10:16:13Z</time></trkpt><trkpt lat="42.3671411332" lon="13.7453029845"><ele>1365.06</ele><time>2026-8-20T10:16:19Z</time></trkpt><trkpt lat="42.3670725860" lon="13.7451715563"><ele>1362.27</ele><time>2026-8-20T10:16:24Z</time></trkpt><trkpt lat="42.3670500331" lon="13.7449802086"><ele>1360.04</ele><time>2026-8-20T10:16:28Z</time></trkpt><trkpt lat="42.3670607968" lon="13.7447982095"><ele>1358.38</ele><time>2026-8-20T10:16:31Z</time></trkpt><trkpt lat="42.3670566897" lon="13.7446148345"><ele>1356.93</ele><time>2026-8-20T10:16:35Z</time></trkpt><trkpt lat="42.3670225684" lon="13.7444302719"><ele>1355.92</ele><time>2026-8-20T10:16:39Z</time></trkpt><trkpt lat="42.3669450637" lon="13.7442952953"><ele>1354.88</ele><time>2026-8-20T10:16:41Z</time></trkpt><trkpt lat="42.3668390885" lon="13.7442044076"><ele>1353.69</ele><time>2026-8-20T10:16:44Z</time></trkpt><trkpt lat="42.3667118792" lon="13.7441125140"><ele>1352.16</ele><time>2026-8-20T10:16:47Z</time></trkpt><trkpt lat="42.3665949013" lon="13.7440544832"><ele>1350.96</ele><time>2026-8-20T10:16:51Z</time></trkpt><trkpt lat="42.3664577189" lon="13.7439815607"><ele>1349.70</ele><time>2026-8-20T10:16:55Z</time></trkpt><trkpt lat="42.3663274851" lon="13.7439817703"><ele>1348.67</ele><time>2026-8-20T10:16:59Z</time></trkpt><trkpt lat="42.3662937898" lon="13.7441299623"><ele>1347.11</ele><time>2026-8-20T10:17:3Z</time></trkpt><trkpt lat="42.3662828305" lon="13.7442867458"><ele>1346.14</ele><time>2026-8-20T10:17:7Z</time></trkpt><trkpt lat="42.3662594799" lon="13.7444855366"><ele>1345.39</ele><time>2026-8-20T10:17:11Z</time></trkpt><trkpt lat="42.3662324622" lon="13.7446494866"><ele>1344.85</ele><time>2026-8-20T10:17:14Z</time></trkpt><trkpt lat="42.3661781475" lon="13.7448096648"><ele>1344.28</ele><time>2026-8-20T10:17:17Z</time></trkpt><trkpt lat="42.3661096394" lon="13.7449760176"><ele>1343.88</ele><time>2026-8-20T10:17:20Z</time></trkpt><trkpt lat="42.3660315620" lon="13.7451314740"><ele>1343.05</ele><time>2026-8-20T10:17:23Z</time></trkpt><trkpt lat="42.3659252934" lon="13.7452817475"><ele>1341.70</ele><time>2026-8-20T10:17:28Z</time></trkpt><trkpt lat="42.3658830975" lon="13.7454159823"><ele>1338.55</ele><time>2026-8-20T10:18:1Z</time></trkpt><trkpt lat="42.3659142548" lon="13.7454465473"><ele>1337.83</ele><time>2026-8-20T10:18:49Z</time></trkpt><trkpt lat="42.3659822165" lon="13.7456368908"><ele>1338.30</ele><time>2026-8-20T10:19:13Z</time></trkpt><trkpt lat="42.3659612684" lon="13.7457982802"><ele>1338.41</ele><time>2026-8-20T10:19:46Z</time></trkpt><trkpt lat="42.3659547116" lon="13.7458205766"><ele>1337.89</ele><time>2026-8-20T10:21:6Z</time></trkpt><trkpt lat="42.3659865437" lon="13.7458283754"><ele>1339.13</ele><time>2026-8-20T10:22:28Z</time></trkpt><trkpt lat="42.3660512709" lon="13.7456986088"><ele>1339.45</ele><time>2026-8-20T10:23:7Z</time></trkpt><trkpt lat="42.3660366635" lon="13.7455339577"><ele>1339.59</ele><time>2026-8-20T10:23:24Z</time></trkpt><trkpt lat="42.3660201766" lon="13.7453512754"><ele>1339.49</ele><time>2026-8-20T10:23:35Z</time></trkpt><trkpt lat="42.3660275297" lon="13.7451504051"><ele>1339.20</ele><time>2026-8-20T10:23:55Z</time></trkpt><trkpt lat="42.3660421704" lon="13.7451460692"><ele>1339.37</ele><time>2026-8-20T10:24:33Z</time></trkpt><trkpt lat="42.3660342302" lon="13.7453394011"><ele>1339.29</ele><time>2026-8-20T10:24:59Z</time></trkpt><trkpt lat="42.3660540195" lon="13.7455255432"><ele>1339.84</ele><time>2026-8-20T10:25:6Z</time></trkpt><trkpt lat="42.3660666682" lon="13.7457028823"><ele>1340.42</ele><time>2026-8-20T10:25:12Z</time></trkpt><trkpt lat="42.3660981842" lon="13.7458846020"><ele>1340.51</ele><time>2026-8-20T10:25:18Z</time></trkpt><trkpt lat="42.3661180213" lon="13.7460400444"><ele>1340.68</ele><time>2026-8-20T10:25:24Z</time></trkpt><trkpt lat="42.3661083250" lon="13.7461649822"><ele>1340.31</ele><time>2026-8-20T10:26:25Z</time></trkpt><trkpt lat="42.3661055145" lon="13.7461612135"><ele>1339.49</ele><time>2026-8-20T10:28:6Z</time></trkpt><trkpt lat="42.3660854157" lon="13.7463497501"><ele>1339.75</ele><time>2026-8-20T10:28:51Z</time></trkpt><trkpt lat="42.3660783779" lon="13.7465335942"><ele>1339.88</ele><time>2026-8-20T10:29:21Z</time></trkpt><trkpt lat="42.3660841538" lon="13.7465348213"><ele>1338.98</ele><time>2026-8-20T10:31:10Z</time></trkpt><trkpt lat="42.3660934683" lon="13.7465364869"><ele>1338.09</ele><time>2026-8-20T10:33:7Z</time></trkpt><trkpt lat="42.3660924764" lon="13.7465513485"><ele>1338.71</ele><time>2026-8-20T10:34:1Z</time></trkpt><trkpt lat="42.3660214115" lon="13.7467642855"><ele>1338.47</ele><time>2026-8-20T10:34:23Z</time></trkpt><trkpt lat="42.3659884790" lon="13.7469405402"><ele>1338.31</ele><time>2026-8-20T10:34:28Z</time></trkpt><trkpt lat="42.3659556303" lon="13.7471143976"><ele>1338.36</ele><time>2026-8-20T10:34:34Z</time></trkpt><trkpt lat="42.3659200743" lon="13.7472880203"><ele>1338.38</ele><time>2026-8-20T10:34:39Z</time></trkpt><trkpt lat="42.3658881895" lon="13.7474706620"><ele>1338.46</ele><time>2026-8-20T10:34:44Z</time></trkpt><trkpt lat="42.3658572463" lon="13.7476621522"><ele>1338.53</ele><time>2026-8-20T10:34:49Z</time></trkpt><trkpt lat="42.3658147976" lon="13.7478373870"><ele>1338.86</ele><time>2026-8-20T10:34:55Z</time></trkpt><trkpt lat="42.3657708261" lon="13.7479992248"><ele>1338.98</ele><time>2026-8-20T10:35:0Z</time></trkpt><trkpt lat="42.3657290731" lon="13.7481579138"><ele>1339.05</ele><time>2026-8-20T10:35:5Z</time></trkpt><trkpt lat="42.3656845652" lon="13.7483195728"><ele>1339.51</ele><time>2026-8-20T10:35:11Z</time></trkpt><trkpt lat="42.3656171858" lon="13.7484793067"><ele>1340.06</ele><time>2026-8-20T10:35:17Z</time></trkpt><trkpt lat="42.3655350460" lon="13.7486268953"><ele>1340.17</ele><time>2026-8-20T10:35:22Z</time></trkpt><trkpt lat="42.3654669151" lon="13.7487817928"><ele>1340.00</ele><time>2026-8-20T10:35:28Z</time></trkpt><trkpt lat="42.3653792883" lon="13.7489369778"><ele>1339.90</ele><time>2026-8-20T10:35:34Z</time></trkpt><trkpt lat="42.3652897075" lon="13.7490473610"><ele>1339.78</ele><time>2026-8-20T10:36:13Z</time></trkpt><trkpt lat="42.3653097811" lon="13.7490659736"><ele>1339.27</ele><time>2026-8-20T10:36:59Z</time></trkpt><trkpt lat="42.3652210347" lon="13.7491939422"><ele>1339.90</ele><time>2026-8-20T10:37:18Z</time></trkpt><trkpt lat="42.3651641048" lon="13.7492663646"><ele>1340.92</ele><time>2026-8-20T10:37:31Z</time></trkpt><trkpt lat="42.3650442492" lon="13.7494088095"><ele>1341.11</ele><time>2026-8-20T10:37:40Z</time></trkpt><trkpt lat="42.3649389250" lon="13.7495258264"><ele>1340.83</ele><time>2026-8-20T10:37:45Z</time></trkpt><trkpt lat="42.3648494035" lon="13.7496594954"><ele>1340.72</ele><time>2026-8-20T10:37:51Z</time></trkpt><trkpt lat="42.3647765648" lon="13.7498049215"><ele>1340.78</ele><time>2026-8-20T10:37:56Z</time></trkpt><trkpt lat="42.3647060688" lon="13.7499596179"><ele>1340.76</ele><time>2026-8-20T10:38:0Z</time></trkpt><trkpt lat="42.3646308705" lon="13.7501132246"><ele>1340.39</ele><time>2026-8-20T10:38:5Z</time></trkpt><trkpt lat="42.3645331711" lon="13.7502441625"><ele>1339.73</ele><time>2026-8-20T10:38:9Z</time></trkpt><trkpt lat="42.3644405301" lon="13.7503742287"><ele>1339.16</ele><time>2026-8-20T10:38:13Z</time></trkpt><trkpt lat="42.3643638357" lon="13.7505152333"><ele>1338.24</ele><time>2026-8-20T10:38:17Z</time></trkpt><trkpt lat="42.3642860893" lon="13.7506630775"><ele>1336.89</ele><time>2026-8-20T10:38:22Z</time></trkpt><trkpt lat="42.3642066121" lon="13.7508073845"><ele>1335.81</ele><time>2026-8-20T10:38:26Z</time></trkpt><trkpt lat="42.3641319713" lon="13.7509400281"><ele>1334.56</ele><time>2026-8-20T10:38:30Z</time></trkpt><trkpt lat="42.3640545225" lon="13.7510912586"><ele>1333.59</ele><time>2026-8-20T10:38:34Z</time></trkpt><trkpt lat="42.3639683313" lon="13.7512322087"><ele>1332.32</ele><time>2026-8-20T10:38:39Z</time></trkpt><trkpt lat="42.3638696261" lon="13.7513519693"><ele>1330.62</ele><time>2026-8-20T10:38:44Z</time></trkpt><trkpt lat="42.3637481388" lon="13.7514666170"><ele>1329.15</ele><time>2026-8-20T10:38:49Z</time></trkpt><trkpt lat="42.3636522540" lon="13.7515882426"><ele>1327.01</ele><time>2026-8-20T10:38:53Z</time></trkpt><trkpt lat="42.3635632675" lon="13.7517127767"><ele>1325.35</ele><time>2026-8-20T10:38:58Z</time></trkpt><trkpt lat="42.3634741804" lon="13.7518629176"><ele>1323.55</ele><time>2026-8-20T10:39:2Z</time></trkpt><trkpt lat="42.3633895274" lon="13.7519897316"><ele>1321.41</ele><time>2026-8-20T10:39:7Z</time></trkpt><trkpt lat="42.3632880184" lon="13.7521382421"><ele>1319.91</ele><time>2026-8-20T10:39:11Z</time></trkpt><trkpt lat="42.3631921504" lon="13.7522553583"><ele>1318.45</ele><time>2026-8-20T10:39:15Z</time></trkpt><trkpt lat="42.3630858469" lon="13.7523674872"><ele>1317.12</ele><time>2026-8-20T10:39:19Z</time></trkpt><trkpt lat="42.3629847611" lon="13.7524756766"><ele>1315.70</ele><time>2026-8-20T10:39:23Z</time></trkpt><trkpt lat="42.3628854565" lon="13.7526002694"><ele>1313.45</ele><time>2026-8-20T10:39:28Z</time></trkpt><trkpt lat="42.3627855610" lon="13.7527235001"><ele>1311.37</ele><time>2026-8-20T10:39:33Z</time></trkpt><trkpt lat="42.3626868557" lon="13.7528550625"><ele>1309.41</ele><time>2026-8-20T10:39:38Z</time></trkpt><trkpt lat="42.3625849653" lon="13.7529519014"><ele>1307.95</ele><time>2026-8-20T10:39:42Z</time></trkpt><trkpt lat="42.3624516302" lon="13.7530107144"><ele>1306.81</ele><time>2026-8-20T10:39:45Z</time></trkpt><trkpt lat="42.3623085860" lon="13.7530416157"><ele>1304.92</ele><time>2026-8-20T10:39:49Z</time></trkpt><trkpt lat="42.3621778563" lon="13.7531002890"><ele>1302.57</ele><time>2026-8-20T10:39:52Z</time></trkpt><trkpt lat="42.3620436900" lon="13.7531663385"><ele>1301.00</ele><time>2026-8-20T10:39:55Z</time></trkpt><trkpt lat="42.3619293328" lon="13.7532289598"><ele>1299.23</ele><time>2026-8-20T10:40:3Z</time></trkpt><trkpt lat="42.3618206382" lon="13.7532932311"><ele>1298.43</ele><time>2026-8-20T10:40:14Z</time></trkpt><trkpt lat="42.3617321625" lon="13.7533921190"><ele>1296.39</ele><time>2026-8-20T10:40:21Z</time></trkpt><trkpt lat="42.3616864672" lon="13.7535886746"><ele>1294.91</ele><time>2026-8-20T10:40:27Z</time></trkpt><trkpt lat="42.3617089587" lon="13.7537439074"><ele>1294.30</ele><time>2026-8-20T10:40:33Z</time></trkpt><trkpt lat="42.3617515620" lon="13.7538969517"><ele>1294.21</ele><time>2026-8-20T10:40:41Z</time></trkpt><trkpt lat="42.3617711384" lon="13.7540819496"><ele>1293.49</ele><time>2026-8-20T10:40:48Z</time></trkpt><trkpt lat="42.3617732786" lon="13.7542666756"><ele>1293.14</ele><time>2026-8-20T10:40:54Z</time></trkpt><trkpt lat="42.3617809522" lon="13.7544378592"><ele>1292.39</ele><time>2026-8-20T10:40:58Z</time></trkpt><trkpt lat="42.3618027494" lon="13.7546289917"><ele>1290.77</ele><time>2026-8-20T10:41:3Z</time></trkpt><trkpt lat="42.3617899837" lon="13.7548327097"><ele>1289.00</ele><time>2026-8-20T10:41:7Z</time></trkpt><trkpt lat="42.3617670278" lon="13.7550104689"><ele>1287.04</ele><time>2026-8-20T10:41:13Z</time></trkpt><trkpt lat="42.3616882693" lon="13.7551162695"><ele>1285.16</ele><time>2026-8-20T10:41:21Z</time></trkpt><trkpt lat="42.3615625240" lon="13.7552063707"><ele>1282.80</ele><time>2026-8-20T10:41:28Z</time></trkpt><trkpt lat="42.3614601977" lon="13.7552814726"><ele>1280.00</ele><time>2026-8-20T10:41:33Z</time></trkpt><trkpt lat="42.3613320743" lon="13.7553775483"><ele>1276.68</ele><time>2026-8-20T10:41:39Z</time></trkpt><trkpt lat="42.3612213973" lon="13.7554866169"><ele>1273.28</ele><time>2026-8-20T10:41:45Z</time></trkpt><trkpt lat="42.3611333128" lon="13.7556070182"><ele>1269.37</ele><time>2026-8-20T10:41:53Z</time></trkpt><trkpt lat="42.3610879428" lon="13.7556944978"><ele>1265.28</ele><time>2026-8-20T10:42:9Z</time></trkpt><trkpt lat="42.3609991691" lon="13.7558699133"><ele>1263.89</ele><time>2026-8-20T10:42:24Z</time></trkpt><trkpt lat="42.3609015299" lon="13.7559822947"><ele>1261.87</ele><time>2026-8-20T10:42:30Z</time></trkpt><trkpt lat="42.3607877072" lon="13.7560952443"><ele>1258.78</ele><time>2026-8-20T10:42:37Z</time></trkpt><trkpt lat="42.3606849089" lon="13.7561934069"><ele>1255.12</ele><time>2026-8-20T10:42:50Z</time></trkpt><trkpt lat="42.3605771736" lon="13.7563054822"><ele>1253.17</ele><time>2026-8-20T10:43:4Z</time></trkpt><trkpt lat="42.3604847025" lon="13.7563236586"><ele>1249.93</ele><time>2026-8-20T10:43:22Z</time></trkpt><trkpt lat="42.3604290057" lon="13.7563852100"><ele>1247.91</ele><time>2026-8-20T10:43:40Z</time></trkpt><trkpt lat="42.3603742002" lon="13.7565563890"><ele>1245.16</ele><time>2026-8-20T10:43:51Z</time></trkpt><trkpt lat="42.3604016192" lon="13.7567132059"><ele>1244.81</ele><time>2026-8-20T10:44:1Z</time></trkpt><trkpt lat="42.3604170978" lon="13.7569010164"><ele>1245.55</ele><time>2026-8-20T10:44:10Z</time></trkpt><trkpt lat="42.3604217131" lon="13.7570310690"><ele>1246.77</ele><time>2026-8-20T10:44:41Z</time></trkpt><trkpt lat="42.3604405755" lon="13.7570302136"><ele>1246.54</ele><time>2026-8-20T10:45:41Z</time></trkpt><trkpt lat="42.3604482231" lon="13.7570346040"><ele>1246.44</ele><time>2026-8-20T10:46:42Z</time></trkpt><trkpt lat="42.3604326879" lon="13.7570371242"><ele>1246.08</ele><time>2026-8-20T10:47:59Z</time></trkpt><trkpt lat="42.3604400255" lon="13.7570240212"><ele>1245.51</ele><time>2026-8-20T10:49:9Z</time></trkpt><trkpt lat="42.3604988521" lon="13.7571964608"><ele>1245.78</ele><time>2026-8-20T10:49:33Z</time></trkpt><trkpt lat="42.3605417842" lon="13.7573677367"><ele>1246.50</ele><time>2026-8-20T10:49:43Z</time></trkpt><trkpt lat="42.3605688661" lon="13.7575460479"><ele>1247.81</ele><time>2026-8-20T10:49:54Z</time></trkpt><trkpt lat="42.3605690185" lon="13.7577337721"><ele>1249.01</ele><time>2026-8-20T10:50:5Z</time></trkpt><trkpt lat="42.3605385823" lon="13.7579012867"><ele>1250.28</ele><time>2026-8-20T10:50:15Z</time></trkpt><trkpt lat="42.3604786880" lon="13.7580536809"><ele>1251.42</ele><time>2026-8-20T10:50:28Z</time></trkpt><trkpt lat="42.3603894683" lon="13.7581698094"><ele>1252.33</ele><time>2026-8-20T10:50:40Z</time></trkpt><trkpt lat="42.3602651441" lon="13.7582688118"><ele>1253.22</ele><time>2026-8-20T10:50:51Z</time></trkpt><trkpt lat="42.3601581605" lon="13.7583553131"><ele>1254.47</ele><time>2026-8-20T10:51:2Z</time></trkpt><trkpt lat="42.3600662110" lon="13.7584746866"><ele>1255.53</ele><time>2026-8-20T10:51:13Z</time></trkpt><trkpt lat="42.3600264941" lon="13.7586520775"><ele>1256.69</ele><time>2026-8-20T10:51:24Z</time></trkpt><trkpt lat="42.3600165597" lon="13.7588371734"><ele>1257.38</ele><time>2026-8-20T10:51:36Z</time></trkpt><trkpt lat="42.3600047107" lon="13.7590191750"><ele>1258.15</ele><time>2026-8-20T10:51:47Z</time></trkpt><trkpt lat="42.3599833369" lon="13.7591961322"><ele>1258.83</ele><time>2026-8-20T10:51:58Z</time></trkpt><trkpt lat="42.3599618182" lon="13.7593762517"><ele>1259.67</ele><time>2026-8-20T10:52:9Z</time></trkpt><trkpt lat="42.3599409275" lon="13.7595532257"><ele>1260.47</ele><time>2026-8-20T10:52:19Z</time></trkpt><trkpt lat="42.3599262028" lon="13.7597298690"><ele>1261.37</ele><time>2026-8-20T10:52:30Z</time></trkpt><trkpt lat="42.3599090351" lon="13.7599053937"><ele>1262.45</ele><time>2026-8-20T10:52:41Z</time></trkpt><trkpt lat="42.3598808446" lon="13.7600860884"><ele>1263.50</ele><time>2026-8-20T10:52:52Z</time></trkpt><trkpt lat="42.3598359944" lon="13.7602624856"><ele>1264.58</ele><time>2026-8-20T10:53:3Z</time></trkpt><trkpt lat="42.3597793366" lon="13.7604229609"><ele>1265.74</ele><time>2026-8-20T10:53:14Z</time></trkpt><trkpt lat="42.3597260658" lon="13.7605883130"><ele>1266.83</ele><time>2026-8-20T10:53:25Z</time></trkpt><trkpt lat="42.3596789343" lon="13.7607573615"><ele>1268.13</ele><time>2026-8-20T10:53:35Z</time></trkpt><trkpt lat="42.3596434202" lon="13.7609325121"><ele>1269.15</ele><time>2026-8-20T10:53:46Z</time></trkpt><trkpt lat="42.3596050692" lon="13.7611056517"><ele>1270.09</ele><time>2026-8-20T10:53:57Z</time></trkpt><trkpt lat="42.3595516635" lon="13.7612610553"><ele>1271.06</ele><time>2026-8-20T10:54:7Z</time></trkpt><trkpt lat="42.3594543778" lon="13.7613903240"><ele>1271.91</ele><time>2026-8-20T10:54:18Z</time></trkpt><trkpt lat="42.3593712293" lon="13.7615441853"><ele>1272.87</ele><time>2026-8-20T10:54:29Z</time></trkpt><trkpt lat="42.3593094600" lon="13.7617027229"><ele>1273.74</ele><time>2026-8-20T10:54:39Z</time></trkpt><trkpt lat="42.3592631256" lon="13.7618758419"><ele>1274.69</ele><time>2026-8-20T10:54:50Z</time></trkpt><trkpt lat="42.3592369893" lon="13.7620497131"><ele>1275.69</ele><time>2026-8-20T10:55:1Z</time></trkpt><trkpt lat="42.3592123529" lon="13.7622217973"><ele>1276.78</ele><time>2026-8-20T10:55:12Z</time></trkpt><trkpt lat="42.3591600968" lon="13.7623867494"><ele>1277.96</ele><time>2026-8-20T10:55:24Z</time></trkpt><trkpt lat="42.3591038492" lon="13.7625571294"><ele>1279.20</ele><time>2026-8-20T10:55:35Z</time></trkpt><trkpt lat="42.3590446939" lon="13.7627180340"><ele>1280.56</ele><time>2026-8-20T10:55:47Z</time></trkpt><trkpt lat="42.3589713211" lon="13.7628669715"><ele>1281.99</ele><time>2026-8-20T10:55:59Z</time></trkpt><trkpt lat="42.3589195139" lon="13.7630284621"><ele>1283.23</ele><time>2026-8-20T10:56:11Z</time></trkpt><trkpt lat="42.3588737639" lon="13.7632074493"><ele>1284.56</ele><time>2026-8-20T10:56:24Z</time></trkpt><trkpt lat="42.3588251788" lon="13.7633693419"><ele>1286.04</ele><time>2026-8-20T10:56:44Z</time></trkpt><trkpt lat="42.3588455608" lon="13.7634612042"><ele>1286.53</ele><time>2026-8-20T10:57:11Z</time></trkpt><trkpt lat="42.3588569900" lon="13.7635323025"><ele>1287.06</ele><time>2026-8-20T10:57:38Z</time></trkpt><trkpt lat="42.3587893514" lon="13.7634839513"><ele>1285.53</ele><time>2026-8-20T10:58:13Z</time></trkpt><trkpt lat="42.3587800856" lon="13.7634569482"><ele>1285.51</ele><time>2026-8-20T10:59:7Z</time></trkpt><trkpt lat="42.3587780801" lon="13.7634356938"><ele>1286.40</ele><time>2026-8-20T10:59:53Z</time></trkpt><trkpt lat="42.3588094264" lon="13.7634357642"><ele>1286.53</ele><time>2026-8-20T11:0:32Z</time></trkpt><trkpt lat="42.3588076271" lon="13.7635159157"><ele>1286.69</ele><time>2026-8-20T11:1:2Z</time></trkpt><trkpt lat="42.3587549994" lon="13.7636965437"><ele>1287.63</ele><time>2026-8-20T11:1:15Z</time></trkpt><trkpt lat="42.3586826636" lon="13.7638491477"><ele>1288.63</ele><time>2026-8-20T11:1:26Z</time></trkpt><trkpt lat="42.3586147511" lon="13.7640073244"><ele>1289.97</ele><time>2026-8-20T11:1:37Z</time></trkpt><trkpt lat="42.3585573465" lon="13.7641715690"><ele>1290.92</ele><time>2026-8-20T11:1:49Z</time></trkpt><trkpt lat="42.3585029861" lon="13.7643310843"><ele>1291.86</ele><time>2026-8-20T11:2:0Z</time></trkpt><trkpt lat="42.3584681742" lon="13.7645146380"><ele>1293.06</ele><time>2026-8-20T11:2:12Z</time></trkpt><trkpt lat="42.3584123771" lon="13.7646676227"><ele>1294.21</ele><time>2026-8-20T11:2:24Z</time></trkpt><trkpt lat="42.3583329630" lon="13.7648041665"><ele>1295.27</ele><time>2026-8-20T11:2:36Z</time></trkpt><trkpt lat="42.3582321676" lon="13.7649240559"><ele>1296.22</ele><time>2026-8-20T11:2:46Z</time></trkpt><trkpt lat="42.3581443867" lon="13.7650603778"><ele>1297.10</ele><time>2026-8-20T11:2:57Z</time></trkpt><trkpt lat="42.3580711512" lon="13.7652152432"><ele>1297.73</ele><time>2026-8-20T11:3:8Z</time></trkpt><trkpt lat="42.3580262311" lon="13.7653781516"><ele>1298.54</ele><time>2026-8-20T11:3:19Z</time></trkpt><trkpt lat="42.3579880477" lon="13.7655520761"><ele>1299.35</ele><time>2026-8-20T11:3:30Z</time></trkpt><trkpt lat="42.3579179216" lon="13.7657060986"><ele>1300.37</ele><time>2026-8-20T11:3:41Z</time></trkpt><trkpt lat="42.3578398404" lon="13.7658632123"><ele>1301.24</ele><time>2026-8-20T11:3:53Z</time></trkpt><trkpt lat="42.3577776505" lon="13.7660175339"><ele>1301.91</ele><time>2026-8-20T11:4:3Z</time></trkpt><trkpt lat="42.3577111401" lon="13.7661723606"><ele>1302.46</ele><time>2026-8-20T11:4:13Z</time></trkpt><trkpt lat="42.3576230567" lon="13.7663167343"><ele>1302.89</ele><time>2026-8-20T11:4:21Z</time></trkpt><trkpt lat="42.3575241713" lon="13.7664327817"><ele>1303.43</ele><time>2026-8-20T11:4:29Z</time></trkpt><trkpt lat="42.3574138130" lon="13.7665271934"><ele>1303.98</ele><time>2026-8-20T11:4:37Z</time></trkpt><trkpt lat="42.3573074781" lon="13.7666473584"><ele>1304.49</ele><time>2026-8-20T11:4:45Z</time></trkpt><trkpt lat="42.3572047369" lon="13.7667688855"><ele>1305.03</ele><time>2026-8-20T11:4:53Z</time></trkpt><trkpt lat="42.3571067734" lon="13.7668965629"><ele>1305.67</ele><time>2026-8-20T11:5:1Z</time></trkpt><trkpt lat="42.3570047761" lon="13.7670066802"><ele>1306.19</ele><time>2026-8-20T11:5:9Z</time></trkpt><trkpt lat="42.3568984412" lon="13.7670935481"><ele>1306.67</ele><time>2026-8-20T11:5:17Z</time></trkpt><trkpt lat="42.3567779675" lon="13.7671907839"><ele>1307.43</ele><time>2026-8-20T11:5:27Z</time></trkpt><trkpt lat="42.3566554673" lon="13.7672759686"><ele>1308.20</ele><time>2026-8-20T11:5:37Z</time></trkpt><trkpt lat="42.3565294780" lon="13.7673637550"><ele>1308.90</ele><time>2026-8-20T11:5:46Z</time></trkpt><trkpt lat="42.3564260937" lon="13.7674677791"><ele>1309.71</ele><time>2026-8-20T11:5:55Z</time></trkpt><trkpt lat="42.3563336022" lon="13.7675980199"><ele>1310.85</ele><time>2026-8-20T11:6:6Z</time></trkpt><trkpt lat="42.3562459778" lon="13.7677595336"><ele>1312.22</ele><time>2026-8-20T11:6:20Z</time></trkpt><trkpt lat="42.3562135555" lon="13.7678281641"><ele>1313.13</ele><time>2026-8-20T11:6:52Z</time></trkpt><trkpt lat="42.3561106017" lon="13.7680132454"><ele>1314.00</ele><time>2026-8-20T11:7:23Z</time></trkpt><trkpt lat="42.3560268652" lon="13.7681492012"><ele>1315.33</ele><time>2026-8-20T11:7:35Z</time></trkpt><trkpt lat="42.3559459048" lon="13.7682870747"><ele>1316.92</ele><time>2026-8-20T11:7:47Z</time></trkpt><trkpt lat="42.3558633984" lon="13.7684337865"><ele>1318.39</ele><time>2026-8-20T11:7:59Z</time></trkpt><trkpt lat="42.3557881569" lon="13.7685852405"><ele>1319.96</ele><time>2026-8-20T11:8:11Z</time></trkpt><trkpt lat="42.3557151226" lon="13.7687349971"><ele>1321.37</ele><time>2026-8-20T11:8:23Z</time></trkpt><trkpt lat="42.3556441241" lon="13.7688797591"><ele>1322.75</ele><time>2026-8-20T11:8:36Z</time></trkpt><trkpt lat="42.3555676290" lon="13.7690286152"><ele>1324.15</ele><time>2026-8-20T11:8:48Z</time></trkpt><trkpt lat="42.3554826854" lon="13.7691718619"><ele>1325.84</ele><time>2026-8-20T11:9:1Z</time></trkpt><trkpt lat="42.3553940210" lon="13.7693082097"><ele>1327.21</ele><time>2026-8-20T11:9:15Z</time></trkpt><trkpt lat="42.3553175974" lon="13.7694586778"><ele>1328.24</ele><time>2026-8-20T11:9:28Z</time></trkpt><trkpt lat="42.3552532029" lon="13.7696139864"><ele>1329.32</ele><time>2026-8-20T11:9:40Z</time></trkpt><trkpt lat="42.3551879551" lon="13.7697718901"><ele>1330.39</ele><time>2026-8-20T11:9:53Z</time></trkpt><trkpt lat="42.3550971514" lon="13.7698991261"><ele>1331.52</ele><time>2026-8-20T11:10:4Z</time></trkpt><trkpt lat="42.3549746052" lon="13.7699744012"><ele>1332.83</ele><time>2026-8-20T11:10:17Z</time></trkpt><trkpt lat="42.3548530916" lon="13.7700270159"><ele>1333.96</ele><time>2026-8-20T11:10:31Z</time></trkpt><trkpt lat="42.3547554372" lon="13.7701306907"><ele>1335.01</ele><time>2026-8-20T11:10:43Z</time></trkpt><trkpt lat="42.3546603369" lon="13.7702644849"><ele>1336.29</ele><time>2026-8-20T11:10:54Z</time></trkpt><trkpt lat="42.3545706731" lon="13.7703989532"><ele>1337.90</ele><time>2026-8-20T11:11:7Z</time></trkpt><trkpt lat="42.3544794344" lon="13.7705322099"><ele>1339.09</ele><time>2026-8-20T11:11:19Z</time></trkpt><trkpt lat="42.3543904170" lon="13.7706617194"><ele>1340.29</ele><time>2026-8-20T11:11:32Z</time></trkpt><trkpt lat="42.3543018309" lon="13.7708016871"><ele>1341.67</ele><time>2026-8-20T11:11:45Z</time></trkpt><trkpt lat="42.3542033365" lon="13.7709329226"><ele>1343.05</ele><time>2026-8-20T11:11:58Z</time></trkpt><trkpt lat="42.3541254457" lon="13.7710714347"><ele>1344.43</ele><time>2026-8-20T11:12:10Z</time></trkpt><trkpt lat="42.3540465840" lon="13.7712216504"><ele>1346.11</ele><time>2026-8-20T11:12:24Z</time></trkpt><trkpt lat="42.3539756933" lon="13.7713731625"><ele>1347.55</ele><time>2026-8-20T11:12:38Z</time></trkpt><trkpt lat="42.3538975224" lon="13.7715228310"><ele>1348.97</ele><time>2026-8-20T11:12:51Z</time></trkpt><trkpt lat="42.3538084212" lon="13.7716398295"><ele>1350.24</ele><time>2026-8-20T11:13:3Z</time></trkpt><trkpt lat="42.3536905240" lon="13.7717159296"><ele>1351.53</ele><time>2026-8-20T11:13:15Z</time></trkpt><trkpt lat="42.3535721423" lon="13.7718078308"><ele>1352.51</ele><time>2026-8-20T11:13:26Z</time></trkpt><trkpt lat="42.3535000077" lon="13.7718439251"><ele>1353.36</ele><time>2026-8-20T11:14:17Z</time></trkpt><trkpt lat="42.3534970671" lon="13.7718955106"><ele>1353.65</ele><time>2026-8-20T11:15:19Z</time></trkpt><trkpt lat="42.3534360793" lon="13.7719966342"><ele>1354.13</ele><time>2026-8-20T11:15:42Z</time></trkpt><trkpt lat="42.3533327310" lon="13.7721143062"><ele>1355.14</ele><time>2026-8-20T11:15:54Z</time></trkpt><trkpt lat="42.3532273038" lon="13.7722236710"><ele>1356.23</ele><time>2026-8-20T11:16:5Z</time></trkpt><trkpt lat="42.3531322670" lon="13.7723405357"><ele>1357.35</ele><time>2026-8-20T11:16:17Z</time></trkpt><trkpt lat="42.3530325422" lon="13.7724725329"><ele>1358.61</ele><time>2026-8-20T11:16:30Z</time></trkpt><trkpt lat="42.3529289290" lon="13.7725893848"><ele>1359.57</ele><time>2026-8-20T11:16:42Z</time></trkpt><trkpt lat="42.3528246093" lon="13.7726978073"><ele>1360.67</ele><time>2026-8-20T11:16:53Z</time></trkpt><trkpt lat="42.3527441731" lon="13.7727551820"><ele>1361.83</ele><time>2026-8-20T11:17:24Z</time></trkpt><trkpt lat="42.3526531263" lon="13.7728609280"><ele>1362.18</ele><time>2026-8-20T11:17:54Z</time></trkpt><trkpt lat="42.3525537131" lon="13.7729757442"><ele>1363.27</ele><time>2026-8-20T11:18:5Z</time></trkpt><trkpt lat="42.3524520197" lon="13.7730914424"><ele>1364.38</ele><time>2026-8-20T11:18:17Z</time></trkpt><trkpt lat="42.3523428105" lon="13.7732004561"><ele>1365.37</ele><time>2026-8-20T11:18:29Z</time></trkpt><trkpt lat="42.3522361288" lon="13.7733106302"><ele>1366.57</ele><time>2026-8-20T11:18:42Z</time></trkpt><trkpt lat="42.3521167575" lon="13.7733710697"><ele>1367.61</ele><time>2026-8-20T11:18:55Z</time></trkpt><trkpt lat="42.3520059474" lon="13.7734631701"><ele>1368.34</ele><time>2026-8-20T11:19:6Z</time></trkpt><trkpt lat="42.3519126023" lon="13.7735681213"><ele>1369.29</ele><time>2026-8-20T11:19:17Z</time></trkpt><trkpt lat="42.3518081461" lon="13.7736987795"><ele>1370.41</ele><time>2026-8-20T11:19:30Z</time></trkpt><trkpt lat="42.3517153412" lon="13.7737837527"><ele>1371.30</ele><time>2026-8-20T11:19:41Z</time></trkpt><trkpt lat="42.3515781015" lon="13.7738697510"><ele>1372.07</ele><time>2026-8-20T11:19:49Z</time></trkpt><trkpt lat="42.3515117783" lon="13.7739824261"><ele>1372.73</ele><time>2026-8-20T11:20:1Z</time></trkpt><trkpt lat="42.3514101733" lon="13.7741067783"><ele>1374.17</ele><time>2026-8-20T11:20:15Z</time></trkpt><trkpt lat="42.3513190169" lon="13.7742364464"><ele>1375.53</ele><time>2026-8-20T11:20:28Z</time></trkpt><trkpt lat="42.3512253701" lon="13.7743541761"><ele>1377.12</ele><time>2026-8-20T11:20:40Z</time></trkpt><trkpt lat="42.3511287928" lon="13.7744850794"><ele>1378.29</ele><time>2026-8-20T11:20:53Z</time></trkpt><trkpt lat="42.3510304839" lon="13.7745987880"><ele>1379.13</ele><time>2026-8-20T11:21:5Z</time></trkpt><trkpt lat="42.3509440944" lon="13.7747475619"><ele>1380.03</ele><time>2026-8-20T11:21:18Z</time></trkpt><trkpt lat="42.3508574636" lon="13.7748660850"><ele>1380.94</ele><time>2026-8-20T11:21:30Z</time></trkpt><trkpt lat="42.3507756117" lon="13.7750082649"><ele>1382.13</ele><time>2026-8-20T11:21:42Z</time></trkpt><trkpt lat="42.3506922182" lon="13.7751489552"><ele>1383.32</ele><time>2026-8-20T11:21:54Z</time></trkpt><trkpt lat="42.3506109696" lon="13.7752878713"><ele>1384.50</ele><time>2026-8-20T11:22:6Z</time></trkpt><trkpt lat="42.3505357650" lon="13.7753931422"><ele>1386.33</ele><time>2026-8-20T11:22:29Z</time></trkpt><trkpt lat="42.3504888393" lon="13.7755177888"><ele>1388.05</ele><time>2026-8-20T11:23:7Z</time></trkpt><trkpt lat="42.3504383974" lon="13.7756238906"><ele>1388.83</ele><time>2026-8-20T11:23:33Z</time></trkpt><trkpt lat="42.3503593804" lon="13.7757583614"><ele>1390.18</ele><time>2026-8-20T11:23:44Z</time></trkpt><trkpt lat="42.3502706015" lon="13.7758995267"><ele>1391.37</ele><time>2026-8-20T11:23:55Z</time></trkpt><trkpt lat="42.3501835269" lon="13.7760271433"><ele>1392.88</ele><time>2026-8-20T11:24:8Z</time></trkpt><trkpt lat="42.3501103744" lon="13.7761800620"><ele>1394.08</ele><time>2026-8-20T11:24:20Z</time></trkpt><trkpt lat="42.3500490296" lon="13.7763380990"><ele>1395.19</ele><time>2026-8-20T11:24:33Z</time></trkpt><trkpt lat="42.3499987704" lon="13.7765062271"><ele>1396.27</ele><time>2026-8-20T11:24:46Z</time></trkpt><trkpt lat="42.3499289492" lon="13.7766646515"><ele>1397.21</ele><time>2026-8-20T11:24:59Z</time></trkpt><trkpt lat="42.3498529575" lon="13.7768083302"><ele>1398.42</ele><time>2026-8-20T11:25:12Z</time></trkpt><trkpt lat="42.3497774053" lon="13.7769605778"><ele>1399.72</ele><time>2026-8-20T11:25:25Z</time></trkpt><trkpt lat="42.3497050395" lon="13.7770804514"><ele>1401.48</ele><time>2026-8-20T11:25:49Z</time></trkpt><trkpt lat="42.3496276087" lon="13.7771848895"><ele>1402.25</ele><time>2026-8-20T11:26:13Z</time></trkpt><trkpt lat="42.3495452637" lon="13.7773167165"><ele>1403.31</ele><time>2026-8-20T11:26:25Z</time></trkpt><trkpt lat="42.3494406563" lon="13.7774212233"><ele>1405.10</ele><time>2026-8-20T11:26:37Z</time></trkpt><trkpt lat="42.3493410470" lon="13.7775339335"><ele>1406.79</ele><time>2026-8-20T11:26:49Z</time></trkpt><trkpt lat="42.3492643260" lon="13.7776771677"><ele>1408.07</ele><time>2026-8-20T11:27:0Z</time></trkpt><trkpt lat="42.3492200131" lon="13.7778463164"><ele>1409.44</ele><time>2026-8-20T11:27:12Z</time></trkpt><trkpt lat="42.3491865871" lon="13.7780153591"><ele>1411.69</ele><time>2026-8-20T11:27:34Z</time></trkpt><trkpt lat="42.3491837652" lon="13.7780814719"><ele>1413.25</ele><time>2026-8-20T11:28:7Z</time></trkpt><trkpt lat="42.3491844433" lon="13.7782415841"><ele>1413.62</ele><time>2026-8-20T11:28:29Z</time></trkpt><trkpt lat="42.3491763021" lon="13.7784179114"><ele>1415.15</ele><time>2026-8-20T11:28:40Z</time></trkpt><trkpt lat="42.3491742684" lon="13.7786006003"><ele>1416.79</ele><time>2026-8-20T11:28:53Z</time></trkpt><trkpt lat="42.3491325256" lon="13.7787181551"><ele>1418.05</ele><time>2026-8-20T11:29:6Z</time></trkpt><trkpt lat="42.3489871365" lon="13.7787790457"><ele>1419.04</ele><time>2026-8-20T11:29:19Z</time></trkpt><trkpt lat="42.3488728681" lon="13.7788095547"><ele>1419.86</ele><time>2026-8-20T11:29:32Z</time></trkpt><trkpt lat="42.3487564895" lon="13.7788525649"><ele>1420.35</ele><time>2026-8-20T11:29:42Z</time></trkpt><trkpt lat="42.3486291352" lon="13.7788974422"><ele>1420.72</ele><time>2026-8-20T11:29:52Z</time></trkpt><trkpt lat="42.3485147301" lon="13.7789085973"><ele>1421.38</ele><time>2026-8-20T11:30:3Z</time></trkpt><trkpt lat="42.3483694922" lon="13.7789593516"><ele>1422.03</ele><time>2026-8-20T11:30:12Z</time></trkpt><trkpt lat="42.3482552287" lon="13.7789610168"><ele>1422.79</ele><time>2026-8-20T11:30:23Z</time></trkpt><trkpt lat="42.3481570770" lon="13.7789341709"><ele>1424.07</ele><time>2026-8-20T11:30:38Z</time></trkpt><trkpt lat="42.3480213666" lon="13.7789796456"><ele>1425.59</ele><time>2026-8-20T11:30:52Z</time></trkpt><trkpt lat="42.3478823223" lon="13.7790029123"><ele>1426.81</ele><time>2026-8-20T11:31:4Z</time></trkpt><trkpt lat="42.3477775266" lon="13.7790015189"><ele>1427.70</ele><time>2026-8-20T11:31:13Z</time></trkpt><trkpt lat="42.3476614657" lon="13.7790721828"><ele>1428.28</ele><time>2026-8-20T11:31:21Z</time></trkpt><trkpt lat="42.3475379068" lon="13.7791794771"><ele>1428.89</ele><time>2026-8-20T11:31:29Z</time></trkpt><trkpt lat="42.3474336162" lon="13.7793022834"><ele>1429.70</ele><time>2026-8-20T11:31:40Z</time></trkpt><trkpt lat="42.3473623744" lon="13.7794435350"><ele>1430.66</ele><time>2026-8-20T11:31:51Z</time></trkpt><trkpt lat="42.3472902342" lon="13.7795982510"><ele>1431.86</ele><time>2026-8-20T11:32:3Z</time></trkpt><trkpt lat="42.3472207240" lon="13.7797337692"><ele>1432.99</ele><time>2026-8-20T11:32:16Z</time></trkpt><trkpt lat="42.3471341460" lon="13.7798669875"><ele>1434.02</ele><time>2026-8-20T11:32:28Z</time></trkpt><trkpt lat="42.3470289114" lon="13.7799635902"><ele>1435.39</ele><time>2026-8-20T11:32:44Z</time></trkpt><trkpt lat="42.3469941196" lon="13.7799695539"><ele>1435.84</ele><time>2026-8-20T11:33:9Z</time></trkpt><trkpt lat="42.3468699949" lon="13.7800929202"><ele>1436.43</ele><time>2026-8-20T11:33:28Z</time></trkpt><trkpt lat="42.3467675661" lon="13.7801953219"><ele>1437.62</ele><time>2026-8-20T11:33:40Z</time></trkpt><trkpt lat="42.3466738119" lon="13.7803219191"><ele>1438.87</ele><time>2026-8-20T11:33:52Z</time></trkpt><trkpt lat="42.3465821492" lon="13.7804071326"><ele>1440.92</ele><time>2026-8-20T11:34:13Z</time></trkpt><trkpt lat="42.3465062635" lon="13.7804986243"><ele>1442.20</ele><time>2026-8-20T11:34:35Z</time></trkpt><trkpt lat="42.3464133311" lon="13.7806048275"><ele>1443.18</ele><time>2026-8-20T11:34:55Z</time></trkpt><trkpt lat="42.3463645536" lon="13.7805939149"><ele>1443.50</ele><time>2026-8-20T11:35:18Z</time></trkpt><trkpt lat="42.3462314531" lon="13.7806799254"><ele>1444.67</ele><time>2026-8-20T11:35:34Z</time></trkpt><trkpt lat="42.3461184346" lon="13.7807686288"><ele>1445.74</ele><time>2026-8-20T11:35:45Z</time></trkpt><trkpt lat="42.3459901046" lon="13.7808130346"><ele>1446.33</ele><time>2026-8-20T11:35:55Z</time></trkpt><trkpt lat="42.3458609806" lon="13.7808724959"><ele>1446.82</ele><time>2026-8-20T11:36:6Z</time></trkpt><trkpt lat="42.3457399061" lon="13.7809524657"><ele>1447.41</ele><time>2026-8-20T11:36:18Z</time></trkpt><trkpt lat="42.3456396908" lon="13.7810406368"><ele>1448.52</ele><time>2026-8-20T11:36:30Z</time></trkpt><trkpt lat="42.3455455163" lon="13.7811728423"><ele>1449.61</ele><time>2026-8-20T11:36:41Z</time></trkpt><trkpt lat="42.3454766932" lon="13.7813076538"><ele>1450.80</ele><time>2026-8-20T11:36:52Z</time></trkpt><trkpt lat="42.3453948274" lon="13.7814329867"><ele>1451.93</ele><time>2026-8-20T11:37:3Z</time></trkpt><trkpt lat="42.3453288898" lon="13.7815807946"><ele>1453.13</ele><time>2026-8-20T11:37:15Z</time></trkpt><trkpt lat="42.3452727660" lon="13.7817399460"><ele>1454.34</ele><time>2026-8-20T11:37:27Z</time></trkpt><trkpt lat="42.3451999310" lon="13.7818856552"><ele>1455.71</ele><time>2026-8-20T11:37:40Z</time></trkpt><trkpt lat="42.3451165181" lon="13.7820289857"><ele>1457.02</ele><time>2026-8-20T11:37:53Z</time></trkpt><trkpt lat="42.3450329476" lon="13.7821875631"><ele>1458.66</ele><time>2026-8-20T11:38:10Z</time></trkpt><trkpt lat="42.3450368392" lon="13.7822196001"><ele>1460.29</ele><time>2026-8-20T11:39:15Z</time></trkpt><trkpt lat="42.3449835423" lon="13.7821808687"><ele>1460.41</ele><time>2026-8-20T11:41:7Z</time></trkpt><trkpt lat="42.3449518972" lon="13.7821869205"><ele>1460.97</ele><time>2026-8-20T11:42:33Z</time></trkpt><trkpt lat="42.3449462734" lon="13.7821524893"><ele>1460.31</ele><time>2026-8-20T11:43:13Z</time></trkpt><trkpt lat="42.3449926441" lon="13.7821832276"><ele>1460.29</ele><time>2026-8-20T11:44:14Z</time></trkpt><trkpt lat="42.3449790371" lon="13.7822004208"><ele>1460.66</ele><time>2026-8-20T11:45:23Z</time></trkpt><trkpt lat="42.3449209090" lon="13.7823308380"><ele>1460.91</ele><time>2026-8-20T11:45:49Z</time></trkpt><trkpt lat="42.3448853698" lon="13.7824691059"><ele>1461.88</ele><time>2026-8-20T11:45:59Z</time></trkpt><trkpt lat="42.3448449257" lon="13.7826266326"><ele>1463.16</ele><time>2026-8-20T11:46:10Z</time></trkpt><trkpt lat="42.3447783213" lon="13.7827687854"><ele>1464.60</ele><time>2026-8-20T11:46:23Z</time></trkpt><trkpt lat="42.3447079654" lon="13.7829261040"><ele>1465.89</ele><time>2026-8-20T11:46:35Z</time></trkpt><trkpt lat="42.3446613790" lon="13.7830859529"><ele>1467.28</ele><time>2026-8-20T11:46:48Z</time></trkpt><trkpt lat="42.3446235978" lon="13.7832543619"><ele>1468.74</ele><time>2026-8-20T11:47:2Z</time></trkpt><trkpt lat="42.3445880972" lon="13.7833823226"><ele>1470.16</ele><time>2026-8-20T11:47:21Z</time></trkpt><trkpt lat="42.3445335826" lon="13.7835477930"><ele>1471.18</ele><time>2026-8-20T11:47:40Z</time></trkpt><trkpt lat="42.3444597245" lon="13.7836981192"><ele>1472.43</ele><time>2026-8-20T11:47:52Z</time></trkpt><trkpt lat="42.3443853988" lon="13.7838634463"><ele>1474.13</ele><time>2026-8-20T11:48:4Z</time></trkpt><trkpt lat="42.3443381593" lon="13.7839392229"><ele>1475.97</ele><time>2026-8-20T11:48:35Z</time></trkpt><trkpt lat="42.3443001331" lon="13.7840171383"><ele>1477.20</ele><time>2026-8-20T11:49:10Z</time></trkpt><trkpt lat="42.3442561906" lon="13.7842140170"><ele>1478.14</ele><time>2026-8-20T11:49:26Z</time></trkpt><trkpt lat="42.3441750999" lon="13.7843486876"><ele>1479.65</ele><time>2026-8-20T11:49:37Z</time></trkpt><trkpt lat="42.3440734741" lon="13.7844763209"><ele>1481.04</ele><time>2026-8-20T11:49:50Z</time></trkpt><trkpt lat="42.3439831600" lon="13.7845933370"><ele>1482.57</ele><time>2026-8-20T11:50:2Z</time></trkpt><trkpt lat="42.3438745780" lon="13.7846926772"><ele>1483.73</ele><time>2026-8-20T11:50:14Z</time></trkpt><trkpt lat="42.3437664681" lon="13.7848013663"><ele>1484.88</ele><time>2026-8-20T11:50:26Z</time></trkpt><trkpt lat="42.3436467047" lon="13.7848928827"><ele>1485.84</ele><time>2026-8-20T11:50:38Z</time></trkpt><trkpt lat="42.3435300947" lon="13.7849635867"><ele>1487.12</ele><time>2026-8-20T11:50:51Z</time></trkpt><trkpt lat="42.3434340879" lon="13.7850716170"><ele>1488.26</ele><time>2026-8-20T11:51:5Z</time></trkpt><trkpt lat="42.3433280018" lon="13.7851137468"><ele>1489.69</ele><time>2026-8-20T11:51:23Z</time></trkpt><trkpt lat="42.3432230037" lon="13.7852206696"><ele>1490.39</ele><time>2026-8-20T11:51:41Z</time></trkpt><trkpt lat="42.3431300903" lon="13.7853117697"><ele>1491.37</ele><time>2026-8-20T11:51:53Z</time></trkpt><trkpt lat="42.3430014545" lon="13.7853567947"><ele>1492.04</ele><time>2026-8-20T11:52:5Z</time></trkpt><trkpt lat="42.3428746196" lon="13.7853453029"><ele>1492.78</ele><time>2026-8-20T11:52:17Z</time></trkpt><trkpt lat="42.3427407467" lon="13.7853610050"><ele>1493.41</ele><time>2026-8-20T11:52:29Z</time></trkpt><trkpt lat="42.3426691946" lon="13.7854783516"><ele>1494.59</ele><time>2026-8-20T11:52:40Z</time></trkpt><trkpt lat="42.3427301825" lon="13.7856061098"><ele>1495.27</ele><time>2026-8-20T11:52:52Z</time></trkpt><trkpt lat="42.3428492414" lon="13.7856264240"><ele>1496.03</ele><time>2026-8-20T11:53:6Z</time></trkpt><trkpt lat="42.3429680206" lon="13.7856784500"><ele>1497.03</ele><time>2026-8-20T11:53:21Z</time></trkpt><trkpt lat="42.3430820696" lon="13.7856656106"><ele>1498.30</ele><time>2026-8-20T11:53:40Z</time></trkpt><trkpt lat="42.3432070034" lon="13.7856846608"><ele>1498.78</ele><time>2026-8-20T11:53:57Z</time></trkpt><trkpt lat="42.3433252410" lon="13.7856750104"><ele>1499.94</ele><time>2026-8-20T11:54:9Z</time></trkpt><trkpt lat="42.3434625668" lon="13.7856504908"><ele>1501.27</ele><time>2026-8-20T11:54:20Z</time></trkpt><trkpt lat="42.3435917292" lon="13.7856565956"><ele>1502.75</ele><time>2026-8-20T11:54:33Z</time></trkpt><trkpt lat="42.3437305656" lon="13.7856650585"><ele>1503.94</ele><time>2026-8-20T11:54:46Z</time></trkpt><trkpt lat="42.3438559637" lon="13.7856462154"><ele>1505.06</ele><time>2026-8-20T11:54:59Z</time></trkpt><trkpt lat="42.3439806690" lon="13.7856167033"><ele>1505.31</ele><time>2026-8-20T11:55:10Z</time></trkpt><trkpt lat="42.3441073601" lon="13.7855840125"><ele>1506.12</ele><time>2026-8-20T11:55:21Z</time></trkpt><trkpt lat="42.3442303680" lon="13.7855130317"><ele>1506.58</ele><time>2026-8-20T11:55:31Z</time></trkpt><trkpt lat="42.3443424702" lon="13.7854137644"><ele>1507.17</ele><time>2026-8-20T11:55:40Z</time></trkpt><trkpt lat="42.3444741167" lon="13.7853062410"><ele>1507.61</ele><time>2026-8-20T11:55:57Z</time></trkpt><trkpt lat="42.3444894151" lon="13.7853003406"><ele>1506.55</ele><time>2026-8-20T11:56:42Z</time></trkpt><trkpt lat="42.3445049068" lon="13.7852572740"><ele>1508.49</ele><time>2026-8-20T11:57:31Z</time></trkpt><trkpt lat="42.3445250999" lon="13.7852506739"><ele>1509.18</ele><time>2026-8-20T11:58:20Z</time></trkpt><trkpt lat="42.3445536705" lon="13.7852219587"><ele>1509.08</ele><time>2026-8-20T11:59:22Z</time></trkpt><trkpt lat="42.3446031846" lon="13.7851581210"><ele>1510.00</ele><time>2026-8-20T12:0:3Z</time></trkpt><trkpt lat="42.3447421446" lon="13.7850388525"><ele>1509.93</ele><time>2026-8-20T12:0:17Z</time></trkpt><trkpt lat="42.3448506289" lon="13.7849256804"><ele>1510.13</ele><time>2026-8-20T12:0:24Z</time></trkpt><trkpt lat="42.3449657977" lon="13.7848098350"><ele>1510.30</ele><time>2026-8-20T12:0:32Z</time></trkpt><trkpt lat="42.3450652310" lon="13.7847116470"><ele>1510.13</ele><time>2026-8-20T12:0:39Z</time></trkpt><trkpt lat="42.3451911612" lon="13.7846513093"><ele>1510.08</ele><time>2026-8-20T12:0:45Z</time></trkpt><trkpt lat="42.3453209605" lon="13.7846930679"><ele>1510.09</ele><time>2026-8-20T12:0:51Z</time></trkpt><trkpt lat="42.3454413582" lon="13.7847745232"><ele>1509.93</ele><time>2026-8-20T12:0:56Z</time></trkpt><trkpt lat="42.3455548659" lon="13.7848704122"><ele>1509.91</ele><time>2026-8-20T12:1:0Z</time></trkpt><trkpt lat="42.3456614628" lon="13.7849680195"><ele>1509.86</ele><time>2026-8-20T12:1:4Z</time></trkpt><trkpt lat="42.3457730641" lon="13.7850557706"><ele>1509.65</ele><time>2026-8-20T12:1:23Z</time></trkpt><trkpt lat="42.3458655516" lon="13.7851329334"><ele>1510.27</ele><time>2026-8-20T12:1:44Z</time></trkpt><trkpt lat="42.3459757212" lon="13.7852456700"><ele>1510.26</ele><time>2026-8-20T12:1:52Z</time></trkpt><trkpt lat="42.3460684062" lon="13.7853673807"><ele>1510.55</ele><time>2026-8-20T12:2:12Z</time></trkpt><trkpt lat="42.3460626807" lon="13.7853335724"><ele>1510.41</ele><time>2026-8-20T12:3:27Z</time></trkpt><trkpt lat="42.3460954009" lon="13.7854636833"><ele>1511.63</ele><time>2026-8-20T12:4:30Z</time></trkpt><trkpt lat="42.3461349774" lon="13.7856484484"><ele>1511.82</ele><time>2026-8-20T12:4:36Z</time></trkpt><trkpt lat="42.3461528448" lon="13.7858241331"><ele>1512.19</ele><time>2026-8-20T12:4:42Z</time></trkpt><trkpt lat="42.3461356061" lon="13.7859992730"><ele>1512.44</ele><time>2026-8-20T12:4:48Z</time></trkpt><trkpt lat="42.3461158667" lon="13.7861908413"><ele>1512.47</ele><time>2026-8-20T12:4:54Z</time></trkpt><trkpt lat="42.3460913356" lon="13.7863674620"><ele>1512.43</ele><time>2026-8-20T12:5:0Z</time></trkpt><trkpt lat="42.3460618453" lon="13.7865376286"><ele>1512.59</ele><time>2026-8-20T12:5:6Z</time></trkpt><trkpt lat="42.3460381497" lon="13.7867102399"><ele>1512.63</ele><time>2026-8-20T12:5:12Z</time></trkpt><trkpt lat="42.3459701557" lon="13.7868736033"><ele>1512.51</ele><time>2026-8-20T12:5:17Z</time></trkpt><trkpt lat="42.3459044615" lon="13.7870018464"><ele>1512.62</ele><time>2026-8-20T12:5:38Z</time></trkpt><trkpt lat="42.3459158661" lon="13.7870021733"><ele>1512.61</ele><time>2026-8-20T12:6:11Z</time></trkpt><trkpt lat="42.3459193240" lon="13.7870107505"><ele>1512.75</ele><time>2026-8-20T12:6:46Z</time></trkpt><trkpt lat="42.3458252382" lon="13.7871268485"><ele>1512.80</ele><time>2026-8-20T12:7:8Z</time></trkpt><trkpt lat="42.3457237333" lon="13.7872355478"><ele>1512.97</ele><time>2026-8-20T12:7:14Z</time></trkpt><trkpt lat="42.3456304539" lon="13.7873485219"><ele>1512.95</ele><time>2026-8-20T12:7:20Z</time></trkpt><trkpt lat="42.3455502798" lon="13.7875071314"><ele>1513.40</ele><time>2026-8-20T12:7:26Z</time></trkpt><trkpt lat="42.3454768444" lon="13.7876712112"><ele>1513.88</ele><time>2026-8-20T12:7:32Z</time></trkpt><trkpt lat="42.3454071628" lon="13.7878230214"><ele>1514.13</ele><time>2026-8-20T12:7:38Z</time></trkpt><trkpt lat="42.3453381099" lon="13.7879732950"><ele>1514.68</ele><time>2026-8-20T12:7:44Z</time></trkpt><trkpt lat="42.3452637863" lon="13.7881281826"><ele>1515.46</ele><time>2026-8-20T12:7:51Z</time></trkpt><trkpt lat="42.3451944161" lon="13.7882773485"><ele>1515.84</ele><time>2026-8-20T12:7:57Z</time></trkpt><trkpt lat="42.3451288766" lon="13.7884380331"><ele>1516.33</ele><time>2026-8-20T12:8:4Z</time></trkpt><trkpt lat="42.3450431387" lon="13.7885798953"><ele>1516.55</ele><time>2026-8-20T12:8:12Z</time></trkpt><trkpt lat="42.3449585893" lon="13.7887190469"><ele>1516.97</ele><time>2026-8-20T12:8:19Z</time></trkpt><trkpt lat="42.3448724952" lon="13.7888452259"><ele>1517.88</ele><time>2026-8-20T12:8:26Z</time></trkpt><trkpt lat="42.3447866086" lon="13.7890009722"><ele>1518.77</ele><time>2026-8-20T12:8:33Z</time></trkpt><trkpt lat="42.3446967965" lon="13.7891373457"><ele>1519.61</ele><time>2026-8-20T12:8:39Z</time></trkpt><trkpt lat="42.3446037015" lon="13.7892601267"><ele>1520.20</ele><time>2026-8-20T12:8:45Z</time></trkpt><trkpt lat="42.3445142885" lon="13.7893865337"><ele>1520.56</ele><time>2026-8-20T12:8:52Z</time></trkpt><trkpt lat="42.3444295954" lon="13.7895392281"><ele>1520.78</ele><time>2026-8-20T12:8:59Z</time></trkpt><trkpt lat="42.3443473270" lon="13.7896754220"><ele>1521.01</ele><time>2026-8-20T12:9:5Z</time></trkpt><trkpt lat="42.3442583252" lon="13.7898008013"><ele>1521.50</ele><time>2026-8-20T12:9:11Z</time></trkpt><trkpt lat="42.3441616499" lon="13.7899322914"><ele>1521.82</ele><time>2026-8-20T12:9:18Z</time></trkpt><trkpt lat="42.3440745939" lon="13.7900818884"><ele>1522.14</ele><time>2026-8-20T12:9:24Z</time></trkpt><trkpt lat="42.3439967400" lon="13.7902253307"><ele>1522.52</ele><time>2026-8-20T12:9:30Z</time></trkpt><trkpt lat="42.3439197941" lon="13.7903665658"><ele>1523.06</ele><time>2026-8-20T12:9:36Z</time></trkpt><trkpt lat="42.3438414732" lon="13.7905039133"><ele>1523.65</ele><time>2026-8-20T12:9:43Z</time></trkpt><trkpt lat="42.3437550198" lon="13.7906475312"><ele>1524.26</ele><time>2026-8-20T12:9:50Z</time></trkpt><trkpt lat="42.3436664650" lon="13.7907970359"><ele>1524.65</ele><time>2026-8-20T12:9:57Z</time></trkpt><trkpt lat="42.3435830112" lon="13.7909408260"><ele>1525.01</ele><time>2026-8-20T12:10:5Z</time></trkpt><trkpt lat="42.3435162314" lon="13.7911000941"><ele>1525.27</ele><time>2026-8-20T12:10:12Z</time></trkpt><trkpt lat="42.3434468172" lon="13.7912440473"><ele>1525.56</ele><time>2026-8-20T12:10:19Z</time></trkpt><trkpt lat="42.3433600765" lon="13.7913939636"><ele>1526.14</ele><time>2026-8-20T12:10:26Z</time></trkpt><trkpt lat="42.3432711046" lon="13.7915283256"><ele>1526.61</ele><time>2026-8-20T12:10:32Z</time></trkpt><trkpt lat="42.3431889620" lon="13.7916601170"><ele>1526.83</ele><time>2026-8-20T12:10:38Z</time></trkpt><trkpt lat="42.3431022013" lon="13.7917991927"><ele>1527.10</ele><time>2026-8-20T12:10:45Z</time></trkpt><trkpt lat="42.3430317574" lon="13.7919614065"><ele>1527.36</ele><time>2026-8-20T12:10:52Z</time></trkpt><trkpt lat="42.3429808433" lon="13.7921263504"><ele>1527.59</ele><time>2026-8-20T12:10:59Z</time></trkpt><trkpt lat="42.3429318983" lon="13.7922984175"><ele>1528.08</ele><time>2026-8-20T12:11:7Z</time></trkpt><trkpt lat="42.3428921029" lon="13.7924771570"><ele>1528.74</ele><time>2026-8-20T12:11:15Z</time></trkpt><trkpt lat="42.3428603914" lon="13.7926435936"><ele>1529.33</ele><time>2026-8-20T12:11:24Z</time></trkpt><trkpt lat="42.3428250141" lon="13.7928145873"><ele>1530.25</ele><time>2026-8-20T12:11:33Z</time></trkpt><trkpt lat="42.3427752382" lon="13.7929763098"><ele>1531.18</ele><time>2026-8-20T12:11:42Z</time></trkpt><trkpt lat="42.3427154031" lon="13.7931428105"><ele>1531.56</ele><time>2026-8-20T12:11:51Z</time></trkpt><trkpt lat="42.3426522443" lon="13.7933072378"><ele>1532.19</ele><time>2026-8-20T12:11:59Z</time></trkpt><trkpt lat="42.3425892962" lon="13.7934573996"><ele>1533.07</ele><time>2026-8-20T12:12:7Z</time></trkpt><trkpt lat="42.3425220139" lon="13.7936155032"><ele>1533.81</ele><time>2026-8-20T12:12:16Z</time></trkpt><trkpt lat="42.3424655013" lon="13.7937806267"><ele>1534.84</ele><time>2026-8-20T12:12:25Z</time></trkpt><trkpt lat="42.3424111213" lon="13.7939398084"><ele>1535.86</ele><time>2026-8-20T12:12:34Z</time></trkpt><trkpt lat="42.3423483595" lon="13.7941138912"><ele>1536.90</ele><time>2026-8-20T12:12:43Z</time></trkpt><trkpt lat="42.3423113522" lon="13.7941703260"><ele>1537.34</ele><time>2026-8-20T12:13:37Z</time></trkpt><trkpt lat="42.3423097195" lon="13.7941911080"><ele>1537.73</ele><time>2026-8-20T12:15:9Z</time></trkpt><trkpt lat="42.3422620445" lon="13.7943532877"><ele>1536.89</ele><time>2026-8-20T12:15:57Z</time></trkpt><trkpt lat="42.3421973176" lon="13.7944989651"><ele>1536.70</ele><time>2026-8-20T12:16:6Z</time></trkpt><trkpt lat="42.3421401090" lon="13.7946617857"><ele>1537.02</ele><time>2026-8-20T12:16:16Z</time></trkpt><trkpt lat="42.3420739453" lon="13.7948198151"><ele>1538.05</ele><time>2026-8-20T12:16:26Z</time></trkpt><trkpt lat="42.3420024826" lon="13.7949713250"><ele>1539.33</ele><time>2026-8-20T12:16:37Z</time></trkpt><trkpt lat="42.3419319308" lon="13.7951295767"><ele>1540.21</ele><time>2026-8-20T12:16:48Z</time></trkpt><trkpt lat="42.3418754314" lon="13.7952901237"><ele>1540.87</ele><time>2026-8-20T12:16:59Z</time></trkpt><trkpt lat="42.3418108095" lon="13.7954436382"><ele>1541.83</ele><time>2026-8-20T12:17:10Z</time></trkpt><trkpt lat="42.3417479871" lon="13.7956041936"><ele>1543.05</ele><time>2026-8-20T12:17:22Z</time></trkpt><trkpt lat="42.3416918004" lon="13.7957623531"><ele>1544.29</ele><time>2026-8-20T12:17:34Z</time></trkpt><trkpt lat="42.3416372740" lon="13.7959243758"><ele>1545.16</ele><time>2026-8-20T12:17:47Z</time></trkpt><trkpt lat="42.3415540904" lon="13.7960636336"><ele>1545.99</ele><time>2026-8-20T12:17:58Z</time></trkpt><trkpt lat="42.3414443303" lon="13.7961249277"><ele>1546.69</ele><time>2026-8-20T12:18:7Z</time></trkpt><trkpt lat="42.3413025892" lon="13.7961397591"><ele>1547.54</ele><time>2026-8-20T12:18:18Z</time></trkpt><trkpt lat="42.3411749359" lon="13.7961357907"><ele>1548.09</ele><time>2026-8-20T12:18:28Z</time></trkpt><trkpt lat="42.3410594531" lon="13.7960554524"><ele>1548.65</ele><time>2026-8-20T12:18:39Z</time></trkpt><trkpt lat="42.3409659111" lon="13.7959275979"><ele>1549.46</ele><time>2026-8-20T12:18:50Z</time></trkpt><trkpt lat="42.3409059271" lon="13.7957759556"><ele>1550.26</ele><time>2026-8-20T12:19:0Z</time></trkpt><trkpt lat="42.3408799509" lon="13.7956014809"><ele>1550.89</ele><time>2026-8-20T12:19:11Z</time></trkpt><trkpt lat="42.3408602762" lon="13.7954215976"><ele>1551.53</ele><time>2026-8-20T12:19:22Z</time></trkpt><trkpt lat="42.3408406931" lon="13.7952441985"><ele>1552.26</ele><time>2026-8-20T12:19:33Z</time></trkpt><trkpt lat="42.3408162547" lon="13.7950551021"><ele>1552.90</ele><time>2026-8-20T12:19:44Z</time></trkpt><trkpt lat="42.3407906683" lon="13.7948785189"><ele>1553.75</ele><time>2026-8-20T12:19:56Z</time></trkpt><trkpt lat="42.3407629852" lon="13.7947085491"><ele>1554.76</ele><time>2026-8-20T12:20:7Z</time></trkpt><trkpt lat="42.3407322192" lon="13.7945300527"><ele>1555.62</ele><time>2026-8-20T12:20:18Z</time></trkpt><trkpt lat="42.3406955718" lon="13.7943547261"><ele>1557.27</ele><time>2026-8-20T12:20:30Z</time></trkpt><trkpt lat="42.3406464583" lon="13.7941828673"><ele>1558.58</ele><time>2026-8-20T12:20:41Z</time></trkpt><trkpt lat="42.3406270263" lon="13.7940165075"><ele>1558.91</ele><time>2026-8-20T12:20:53Z</time></trkpt><trkpt lat="42.3405884542" lon="13.7938668346"><ele>1559.53</ele><time>2026-8-20T12:21:4Z</time></trkpt><trkpt lat="42.3406076076" lon="13.7936876867"><ele>1560.34</ele><time>2026-8-20T12:21:15Z</time></trkpt><trkpt lat="42.3406276866" lon="13.7935079956"><ele>1560.96</ele><time>2026-8-20T12:21:27Z</time></trkpt><trkpt lat="42.3406646205" lon="13.7933292948"><ele>1561.54</ele><time>2026-8-20T12:21:38Z</time></trkpt><trkpt lat="42.3406995266" lon="13.7931826618"><ele>1562.64</ele><time>2026-8-20T12:21:49Z</time></trkpt><trkpt lat="42.3407434928" lon="13.7930048956"><ele>1563.39</ele><time>2026-8-20T12:22:0Z</time></trkpt><trkpt lat="42.3407832770" lon="13.7928321991"><ele>1563.78</ele><time>2026-8-20T12:22:12Z</time></trkpt><trkpt lat="42.3408233793" lon="13.7926568091"><ele>1563.87</ele><time>2026-8-20T12:22:23Z</time></trkpt><trkpt lat="42.3408616078" lon="13.7924847217"><ele>1564.31</ele><time>2026-8-20T12:22:35Z</time></trkpt><trkpt lat="42.3409055639" lon="13.7923295307"><ele>1565.21</ele><time>2026-8-20T12:22:47Z</time></trkpt><trkpt lat="42.3409725968" lon="13.7921697172"><ele>1566.44</ele><time>2026-8-20T12:22:58Z</time></trkpt><trkpt lat="42.3410505499" lon="13.7920410256"><ele>1567.43</ele><time>2026-8-20T12:23:9Z</time></trkpt><trkpt lat="42.3410737258" lon="13.7918850314"><ele>1568.31</ele><time>2026-8-20T12:23:21Z</time></trkpt><trkpt lat="42.3409717111" lon="13.7917759619"><ele>1568.93</ele><time>2026-8-20T12:23:33Z</time></trkpt><trkpt lat="42.3408515453" lon="13.7918304596"><ele>1569.28</ele><time>2026-8-20T12:23:44Z</time></trkpt><trkpt lat="42.3407928781" lon="13.7919710424"><ele>1569.80</ele><time>2026-8-20T12:23:55Z</time></trkpt><trkpt lat="42.3407587860" lon="13.7921414424"><ele>1570.73</ele><time>2026-8-20T12:24:7Z</time></trkpt><trkpt lat="42.3407012969" lon="13.7923130044"><ele>1571.60</ele><time>2026-8-20T12:24:19Z</time></trkpt><trkpt lat="42.3406389300" lon="13.7924678279"><ele>1572.42</ele><time>2026-8-20T12:24:30Z</time></trkpt><trkpt lat="42.3405727998" lon="13.7926161289"><ele>1573.39</ele><time>2026-8-20T12:24:41Z</time></trkpt><trkpt lat="42.3404932860" lon="13.7927706214"><ele>1574.32</ele><time>2026-8-20T12:24:52Z</time></trkpt><trkpt lat="42.3404181590" lon="13.7929179026"><ele>1575.49</ele><time>2026-8-20T12:25:3Z</time></trkpt><trkpt lat="42.3403506009" lon="13.7930731103"><ele>1576.35</ele><time>2026-8-20T12:25:13Z</time></trkpt><trkpt lat="42.3402849371" lon="13.7932313103"><ele>1577.34</ele><time>2026-8-20T12:25:23Z</time></trkpt><trkpt lat="42.3402377386" lon="13.7934021503"><ele>1578.18</ele><time>2026-8-20T12:25:33Z</time></trkpt><trkpt lat="42.3401859674" lon="13.7935740814"><ele>1578.76</ele><time>2026-8-20T12:25:44Z</time></trkpt><trkpt lat="42.3401412629" lon="13.7937323889"><ele>1579.51</ele><time>2026-8-20T12:25:54Z</time></trkpt><trkpt lat="42.3401215300" lon="13.7938994821"><ele>1580.06</ele><time>2026-8-20T12:26:4Z</time></trkpt><trkpt lat="42.3401466385" lon="13.7940915022"><ele>1580.62</ele><time>2026-8-20T12:26:13Z</time></trkpt><trkpt lat="42.3401716473" lon="13.7942598034"><ele>1581.53</ele><time>2026-8-20T12:26:22Z</time></trkpt><trkpt lat="42.3401757643" lon="13.7944361144"><ele>1582.46</ele><time>2026-8-20T12:26:33Z</time></trkpt><trkpt lat="42.3401785456" lon="13.7946107704"><ele>1583.10</ele><time>2026-8-20T12:26:43Z</time></trkpt><trkpt lat="42.3401801214" lon="13.7947670845"><ele>1583.79</ele><time>2026-8-20T12:26:52Z</time></trkpt><trkpt lat="42.3401981211" lon="13.7949426481"><ele>1584.75</ele><time>2026-8-20T12:27:3Z</time></trkpt><trkpt lat="42.3401845433" lon="13.7951191980"><ele>1585.81</ele><time>2026-8-20T12:27:13Z</time></trkpt><trkpt lat="42.3401913783" lon="13.7952863602"><ele>1586.71</ele><time>2026-8-20T12:27:22Z</time></trkpt><trkpt lat="42.3402095662" lon="13.7954718509"><ele>1587.75</ele><time>2026-8-20T12:27:33Z</time></trkpt><trkpt lat="42.3402227852" lon="13.7956492128"><ele>1588.76</ele><time>2026-8-20T12:27:43Z</time></trkpt><trkpt lat="42.3401886206" lon="13.7958271774"><ele>1589.61</ele><time>2026-8-20T12:27:53Z</time></trkpt><trkpt lat="42.3401302993" lon="13.7959899288"><ele>1590.35</ele><time>2026-8-20T12:28:3Z</time></trkpt><trkpt lat="42.3400417361" lon="13.7961163111"><ele>1590.73</ele><time>2026-8-20T12:28:13Z</time></trkpt><trkpt lat="42.3399542626" lon="13.7962349151"><ele>1591.18</ele><time>2026-8-20T12:28:23Z</time></trkpt><trkpt lat="42.3398550955" lon="13.7963749629"><ele>1591.86</ele><time>2026-8-20T12:28:34Z</time></trkpt><trkpt lat="42.3397642188" lon="13.7964566518"><ele>1592.82</ele><time>2026-8-20T12:28:44Z</time></trkpt><trkpt lat="42.3396278919" lon="13.7964822593"><ele>1593.95</ele><time>2026-8-20T12:29:16Z</time></trkpt><trkpt lat="42.3395974831" lon="13.7964940684"><ele>1594.50</ele><time>2026-8-20T12:29:59Z</time></trkpt><trkpt lat="42.3394590430" lon="13.7965395469"><ele>1594.46</ele><time>2026-8-20T12:30:18Z</time></trkpt><trkpt lat="42.3393508699" lon="13.7966313027"><ele>1595.10</ele><time>2026-8-20T12:30:28Z</time></trkpt><trkpt lat="42.3392957971" lon="13.7967856228"><ele>1596.00</ele><time>2026-8-20T12:30:37Z</time></trkpt><trkpt lat="42.3392931149" lon="13.7969750790"><ele>1596.90</ele><time>2026-8-20T12:30:47Z</time></trkpt><trkpt lat="42.3392980769" lon="13.7971404539"><ele>1597.56</ele><time>2026-8-20T12:30:57Z</time></trkpt><trkpt lat="42.3393032158" lon="13.7973263166"><ele>1598.39</ele><time>2026-8-20T12:31:8Z</time></trkpt><trkpt lat="42.3392986134" lon="13.7975072879"><ele>1599.48</ele><time>2026-8-20T12:31:18Z</time></trkpt><trkpt lat="42.3392626215" lon="13.7976722773"><ele>1601.06</ele><time>2026-8-20T12:31:31Z</time></trkpt><trkpt lat="42.3392279889" lon="13.7977982406"><ele>1602.86</ele><time>2026-8-20T12:31:44Z</time></trkpt><trkpt lat="42.3391368307" lon="13.7979711113"><ele>1603.94</ele><time>2026-8-20T12:31:54Z</time></trkpt><trkpt lat="42.3390646535" lon="13.7981111056"><ele>1604.57</ele><time>2026-8-20T12:32:1Z</time></trkpt><trkpt lat="42.3389611580" lon="13.7982251225"><ele>1605.17</ele><time>2026-8-20T12:32:10Z</time></trkpt><trkpt lat="42.3388522184" lon="13.7983289911"><ele>1605.93</ele><time>2026-8-20T12:32:20Z</time></trkpt><trkpt lat="42.3387228232" lon="13.7983734626"><ele>1606.89</ele><time>2026-8-20T12:32:30Z</time></trkpt><trkpt lat="42.3386026360" lon="13.7983521447"><ele>1607.42</ele><time>2026-8-20T12:32:39Z</time></trkpt><trkpt lat="42.3385206575" lon="13.7982108502"><ele>1607.32</ele><time>2026-8-20T12:32:47Z</time></trkpt><trkpt lat="42.3384742741" lon="13.7980353646"><ele>1607.19</ele><time>2026-8-20T12:32:55Z</time></trkpt><trkpt lat="42.3384060964" lon="13.7978872085"><ele>1607.50</ele><time>2026-8-20T12:33:3Z</time></trkpt><trkpt lat="42.3383017536" lon="13.7977919018"><ele>1607.66</ele><time>2026-8-20T12:33:10Z</time></trkpt><trkpt lat="42.3381684395" lon="13.7977938715"><ele>1607.89</ele><time>2026-8-20T12:33:18Z</time></trkpt><trkpt lat="42.3380669975" lon="13.7978891004"><ele>1608.59</ele><time>2026-8-20T12:33:26Z</time></trkpt><trkpt lat="42.3380156583" lon="13.7980658223"><ele>1609.48</ele><time>2026-8-20T12:33:34Z</time></trkpt><trkpt lat="42.3380300961" lon="13.7982369773"><ele>1609.91</ele><time>2026-8-20T12:33:41Z</time></trkpt><trkpt lat="42.3381178307" lon="13.7983712155"><ele>1610.71</ele><time>2026-8-20T12:33:48Z</time></trkpt><trkpt lat="42.3382398473" lon="13.7984427251"><ele>1611.10</ele><time>2026-8-20T12:33:55Z</time></trkpt><trkpt lat="42.3383685694" lon="13.7984750074"><ele>1611.14</ele><time>2026-8-20T12:34:2Z</time></trkpt><trkpt lat="42.3384826738" lon="13.7985252030"><ele>1611.25</ele><time>2026-8-20T12:34:12Z</time></trkpt><trkpt lat="42.3385729669" lon="13.7986562625"><ele>1611.10</ele><time>2026-8-20T12:34:23Z</time></trkpt><trkpt lat="42.3386557424" lon="13.7987969339"><ele>1611.68</ele><time>2026-8-20T12:34:32Z</time></trkpt><trkpt lat="42.3387468222" lon="13.7989303947"><ele>1612.52</ele><time>2026-8-20T12:34:40Z</time></trkpt><trkpt lat="42.3388527066" lon="13.7990431627"><ele>1612.92</ele><time>2026-8-20T12:34:48Z</time></trkpt><trkpt lat="42.3389690474" lon="13.7991302298"><ele>1613.81</ele><time>2026-8-20T12:34:56Z</time></trkpt><trkpt lat="42.3390972149" lon="13.7992091943"><ele>1613.93</ele><time>2026-8-20T12:35:5Z</time></trkpt><trkpt lat="42.3392208539" lon="13.7993152321"><ele>1613.98</ele><time>2026-8-20T12:35:38Z</time></trkpt><trkpt lat="42.3392319418" lon="13.7993171401"><ele>1613.80</ele><time>2026-8-20T12:36:30Z</time></trkpt><trkpt lat="42.3393479735" lon="13.7992955185"><ele>1613.13</ele><time>2026-8-20T12:36:57Z</time></trkpt><trkpt lat="42.3394791093" lon="13.7992735561"><ele>1613.69</ele><time>2026-8-20T12:37:6Z</time></trkpt><trkpt lat="42.3396137272" lon="13.7992542838"><ele>1614.76</ele><time>2026-8-20T12:37:17Z</time></trkpt><trkpt lat="42.3397553356" lon="13.7992522112"><ele>1615.61</ele><time>2026-8-20T12:37:28Z</time></trkpt><trkpt lat="42.3398898804" lon="13.7992861960"><ele>1616.31</ele><time>2026-8-20T12:37:39Z</time></trkpt><trkpt lat="42.3399657430" lon="13.7992760260"><ele>1616.99</ele><time>2026-8-20T12:38:2Z</time></trkpt><trkpt lat="42.3401007463" lon="13.7992062555"><ele>1617.69</ele><time>2026-8-20T12:38:26Z</time></trkpt><trkpt lat="42.3402202810" lon="13.7991204277"><ele>1618.79</ele><time>2026-8-20T12:38:38Z</time></trkpt><trkpt lat="42.3403350217" lon="13.7990340544"><ele>1620.20</ele><time>2026-8-20T12:38:50Z</time></trkpt><trkpt lat="42.3404619796" lon="13.7989797606"><ele>1621.49</ele><time>2026-8-20T12:39:2Z</time></trkpt><trkpt lat="42.3405979062" lon="13.7989809341"><ele>1622.40</ele><time>2026-8-20T12:39:14Z</time></trkpt><trkpt lat="42.3407369415" lon="13.7990323082"><ele>1623.32</ele><time>2026-8-20T12:39:27Z</time></trkpt><trkpt lat="42.3408620517" lon="13.7990651957"><ele>1624.16</ele><time>2026-8-20T12:39:39Z</time></trkpt><trkpt lat="42.3409968289" lon="13.7990500946"><ele>1625.10</ele><time>2026-8-20T12:39:49Z</time></trkpt><trkpt lat="42.3411271771" lon="13.7990030295"><ele>1626.33</ele><time>2026-8-20T12:40:1Z</time></trkpt><trkpt lat="42.3412452266" lon="13.7989649862"><ele>1627.46</ele><time>2026-8-20T12:40:13Z</time></trkpt><trkpt lat="42.3413772024" lon="13.7989265844"><ele>1628.63</ele><time>2026-8-20T12:40:26Z</time></trkpt><trkpt lat="42.3415098768" lon="13.7989054984"><ele>1629.90</ele><time>2026-8-20T12:40:38Z</time></trkpt><trkpt lat="42.3416010467" lon="13.7988972941"><ele>1631.69</ele><time>2026-8-20T12:41:8Z</time></trkpt><trkpt lat="42.3416189668" lon="13.7988874998"><ele>1631.56</ele><time>2026-8-20T12:41:43Z</time></trkpt><trkpt lat="42.3417512268" lon="13.7987703661"><ele>1632.09</ele><time>2026-8-20T12:41:58Z</time></trkpt><trkpt lat="42.3418303253" lon="13.7986401608"><ele>1633.22</ele><time>2026-8-20T12:42:9Z</time></trkpt><trkpt lat="42.3419182869" lon="13.7985102703"><ele>1634.47</ele><time>2026-8-20T12:42:22Z</time></trkpt><trkpt lat="42.3420127225" lon="13.7983981683"><ele>1635.39</ele><time>2026-8-20T12:42:34Z</time></trkpt><trkpt lat="42.3421053602" lon="13.7982841691"><ele>1636.98</ele><time>2026-8-20T12:42:57Z</time></trkpt><trkpt lat="42.3422044306" lon="13.7981724227"><ele>1637.01</ele><time>2026-8-20T12:43:20Z</time></trkpt><trkpt lat="42.3423070156" lon="13.7980537286"><ele>1637.23</ele><time>2026-8-20T12:43:32Z</time></trkpt><trkpt lat="42.3424088610" lon="13.7979346393"><ele>1637.97</ele><time>2026-8-20T12:43:42Z</time></trkpt><trkpt lat="42.3425192255" lon="13.7978214584"><ele>1638.98</ele><time>2026-8-20T12:43:52Z</time></trkpt><trkpt lat="42.3426322519" lon="13.7977180138"><ele>1640.04</ele><time>2026-8-20T12:44:1Z</time></trkpt><trkpt lat="42.3427380076" lon="13.7976282316"><ele>1640.34</ele><time>2026-8-20T12:44:8Z</time></trkpt><trkpt lat="42.3428554860" lon="13.7975520760"><ele>1640.42</ele><time>2026-8-20T12:44:15Z</time></trkpt><trkpt lat="42.3429515062" lon="13.7975209052"><ele>1640.49</ele><time>2026-8-20T12:45:22Z</time></trkpt><trkpt lat="42.3429503701" lon="13.7975434366"><ele>1639.48</ele><time>2026-8-20T12:47:4Z</time></trkpt><trkpt lat="42.3429429252" lon="13.7975281966"><ele>1641.37</ele><time>2026-8-20T12:48:9Z</time></trkpt><trkpt lat="42.3430065997" lon="13.7974952976"><ele>1641.92</ele><time>2026-8-20T12:48:43Z</time></trkpt><trkpt lat="42.3431532551" lon="13.7974810833"><ele>1641.43</ele><time>2026-8-20T12:48:50Z</time></trkpt><trkpt lat="42.3432878405" lon="13.7975424389"><ele>1641.20</ele><time>2026-8-20T12:48:56Z</time></trkpt><trkpt lat="42.3434040025" lon="13.7976426389"><ele>1641.07</ele><time>2026-8-20T12:49:2Z</time></trkpt><trkpt lat="42.3435185496" lon="13.7977295760"><ele>1640.97</ele><time>2026-8-20T12:49:7Z</time></trkpt><trkpt lat="42.3436389934" lon="13.7977993093"><ele>1640.98</ele><time>2026-8-20T12:49:11Z</time></trkpt><trkpt lat="42.3437645752" lon="13.7978857476"><ele>1640.96</ele><time>2026-8-20T12:49:15Z</time></trkpt><trkpt lat="42.3438736866" lon="13.7980045821"><ele>1640.57</ele><time>2026-8-20T12:49:19Z</time></trkpt><trkpt lat="42.3439901825" lon="13.7980944570"><ele>1639.82</ele><time>2026-8-20T12:49:24Z</time></trkpt><trkpt lat="42.3441191297" lon="13.7980754091"><ele>1639.10</ele><time>2026-8-20T12:49:28Z</time></trkpt><trkpt lat="42.3442358687" lon="13.7979850522"><ele>1638.45</ele><time>2026-8-20T12:49:32Z</time></trkpt><trkpt lat="42.3443426751" lon="13.7978739920"><ele>1637.19</ele><time>2026-8-20T12:49:36Z</time></trkpt><trkpt lat="42.3444559425" lon="13.7977798283"><ele>1636.00</ele><time>2026-8-20T12:49:40Z</time></trkpt><trkpt lat="42.3445727304" lon="13.7976829056"><ele>1635.02</ele><time>2026-8-20T12:49:43Z</time></trkpt><trkpt lat="42.3446843215" lon="13.7976017269"><ele>1634.37</ele><time>2026-8-20T12:49:45Z</time></trkpt><trkpt lat="42.3447775282" lon="13.7974812789"><ele>1633.71</ele><time>2026-8-20T12:49:47Z</time></trkpt><trkpt lat="42.3448826373" lon="13.7973808218"><ele>1633.12</ele><time>2026-8-20T12:49:49Z</time></trkpt><trkpt lat="42.3449938232" lon="13.7972773053"><ele>1632.72</ele><time>2026-8-20T12:49:51Z</time></trkpt><trkpt lat="42.3451023549" lon="13.7971766107"><ele>1632.28</ele><time>2026-8-20T12:49:54Z</time></trkpt><trkpt lat="42.3452462233" lon="13.7971292809"><ele>1631.61</ele><time>2026-8-20T12:49:57Z</time></trkpt><trkpt lat="42.3454123805" lon="13.7971291971"><ele>1628.84</ele><time>2026-8-20T12:50:11Z</time></trkpt><trkpt lat="42.3454333163" lon="13.7971254443"><ele>1627.50</ele><time>2026-8-20T12:50:41Z</time></trkpt><trkpt lat="42.3455277253" lon="13.7969967127"><ele>1626.86</ele><time>2026-8-20T12:51:1Z</time></trkpt><trkpt lat="42.3455242510" lon="13.7968140165"><ele>1625.92</ele><time>2026-8-20T12:51:5Z</time></trkpt><trkpt lat="42.3454741901" lon="13.7966344343"><ele>1624.89</ele><time>2026-8-20T12:51:9Z</time></trkpt><trkpt lat="42.3454458173" lon="13.7964721955"><ele>1624.14</ele><time>2026-8-20T12:51:13Z</time></trkpt><trkpt lat="42.3454567138" lon="13.7962981872"><ele>1623.42</ele><time>2026-8-20T12:51:16Z</time></trkpt><trkpt lat="42.3454866372" lon="13.7961241789"><ele>1622.73</ele><time>2026-8-20T12:51:19Z</time></trkpt><trkpt lat="42.3455341836" lon="13.7959488575"><ele>1621.96</ele><time>2026-8-20T12:51:22Z</time></trkpt><trkpt lat="42.3455980047" lon="13.7957942113"><ele>1621.25</ele><time>2026-8-20T12:51:26Z</time></trkpt><trkpt lat="42.3457148345" lon="13.7956722337"><ele>1620.36</ele><time>2026-8-20T12:51:29Z</time></trkpt><trkpt lat="42.3458055245" lon="13.7955443865"><ele>1618.16</ele><time>2026-8-20T12:51:41Z</time></trkpt><trkpt lat="42.3459107615" lon="13.7954802672"><ele>1617.88</ele><time>2026-8-20T12:51:53Z</time></trkpt><trkpt lat="42.3460271191" lon="13.7954009995"><ele>1617.67</ele><time>2026-8-20T12:51:59Z</time></trkpt><trkpt lat="42.3461514339" lon="13.7953142356"><ele>1617.40</ele><time>2026-8-20T12:52:3Z</time></trkpt><trkpt lat="42.3462609155" lon="13.7952305703"><ele>1616.98</ele><time>2026-8-20T12:52:5Z</time></trkpt><trkpt lat="42.3463982809" lon="13.7951342202"><ele>1616.47</ele><time>2026-8-20T12:52:8Z</time></trkpt><trkpt lat="42.3465250712" lon="13.7950384990"><ele>1615.82</ele><time>2026-8-20T12:52:10Z</time></trkpt><trkpt lat="42.3466309346" lon="13.7949515227"><ele>1615.22</ele><time>2026-8-20T12:52:13Z</time></trkpt><trkpt lat="42.3467438808" lon="13.7948645326"><ele>1614.48</ele><time>2026-8-20T12:52:15Z</time></trkpt><trkpt lat="42.3468766362" lon="13.7948015425"><ele>1613.64</ele><time>2026-8-20T12:52:18Z</time></trkpt><trkpt lat="42.3469968047" lon="13.7947374629"><ele>1612.99</ele><time>2026-8-20T12:52:20Z</time></trkpt><trkpt lat="42.3471085355" lon="13.7946752831"><ele>1612.33</ele><time>2026-8-20T12:52:23Z</time></trkpt><trkpt lat="42.3472468369" lon="13.7945906259"><ele>1611.56</ele><time>2026-8-20T12:52:26Z</time></trkpt><trkpt lat="42.3473472521" lon="13.7944961060"><ele>1610.68</ele><time>2026-8-20T12:52:29Z</time></trkpt><trkpt lat="42.3474897444" lon="13.7944186293"><ele>1609.89</ele><time>2026-8-20T12:52:32Z</time></trkpt><trkpt lat="42.3476180714" lon="13.7943461119"><ele>1609.10</ele><time>2026-8-20T12:52:34Z</time></trkpt><trkpt lat="42.3477304727" lon="13.7943015620"><ele>1608.47</ele><time>2026-8-20T12:52:37Z</time></trkpt><trkpt lat="42.3478725460" lon="13.7942364766"><ele>1607.88</ele><time>2026-8-20T12:52:39Z</time></trkpt><trkpt lat="42.3479875457" lon="13.7941662362"><ele>1607.25</ele><time>2026-8-20T12:52:41Z</time></trkpt><trkpt lat="42.3480964266" lon="13.7940994744"><ele>1606.75</ele><time>2026-8-20T12:52:43Z</time></trkpt><trkpt lat="42.3482153239" lon="13.7940425193"><ele>1606.23</ele><time>2026-8-20T12:52:45Z</time></trkpt><trkpt lat="42.3483462631" lon="13.7939788587"><ele>1605.44</ele><time>2026-8-20T12:52:48Z</time></trkpt><trkpt lat="42.3484622464" lon="13.7938569021"><ele>1604.46</ele><time>2026-8-20T12:52:52Z</time></trkpt><trkpt lat="42.3485831916" lon="13.7937743683"><ele>1603.70</ele><time>2026-8-20T12:52:57Z</time></trkpt><trkpt lat="42.3486069404" lon="13.7937097158"><ele>1603.09</ele><time>2026-8-20T12:53:2Z</time></trkpt><trkpt lat="42.3485660786" lon="13.7936255056"><ele>1602.36</ele><time>2026-8-20T12:53:6Z</time></trkpt><trkpt lat="42.3486788152" lon="13.7935663993"><ele>1601.02</ele><time>2026-8-20T12:53:12Z</time></trkpt><trkpt lat="42.3486865964" lon="13.7937078718"><ele>1599.38</ele><time>2026-8-20T12:53:18Z</time></trkpt><trkpt lat="42.3486289079" lon="13.7938708789"><ele>1597.61</ele><time>2026-8-20T12:53:22Z</time></trkpt><trkpt lat="42.3485576408" lon="13.7940309732"><ele>1595.51</ele><time>2026-8-20T12:53:26Z</time></trkpt><trkpt lat="42.3484706367" lon="13.7941624853"><ele>1593.43</ele><time>2026-8-20T12:53:30Z</time></trkpt><trkpt lat="42.3483837023" lon="13.7942870614"><ele>1591.45</ele><time>2026-8-20T12:53:34Z</time></trkpt><trkpt lat="42.3482936790" lon="13.7944994168"><ele>1587.08</ele><time>2026-8-20T12:53:43Z</time></trkpt><trkpt lat="42.3483171006" lon="13.7945018544"><ele>1585.08</ele><time>2026-8-20T12:54:13Z</time></trkpt><trkpt lat="42.3483822508" lon="13.7944599630"><ele>1585.64</ele><time>2026-8-20T12:55:6Z</time></trkpt><trkpt lat="42.3483705695" lon="13.7944591090"><ele>1585.56</ele><time>2026-8-20T12:55:50Z</time></trkpt><trkpt lat="42.3483415853" lon="13.7942477382"><ele>1586.14</ele><time>2026-8-20T12:56:5Z</time></trkpt><trkpt lat="42.3483858747" lon="13.7941114185"><ele>1586.88</ele><time>2026-8-20T12:56:12Z</time></trkpt><trkpt lat="42.3484896589" lon="13.7940871483"><ele>1588.21</ele><time>2026-8-20T12:56:25Z</time></trkpt><trkpt lat="42.3486239638" lon="13.7940339229"><ele>1590.14</ele><time>2026-8-20T12:56:43Z</time></trkpt><trkpt lat="42.3487112769" lon="13.7939349376"><ele>1592.04</ele><time>2026-8-20T12:57:1Z</time></trkpt><trkpt lat="42.3487327178" lon="13.7938246911"><ele>1593.31</ele><time>2026-8-20T12:57:23Z</time></trkpt><trkpt lat="42.3487394497" lon="13.7936474893"><ele>1595.15</ele><time>2026-8-20T12:57:47Z</time></trkpt><trkpt lat="42.3487485618" lon="13.7934932835"><ele>1597.83</ele><time>2026-8-20T12:58:13Z</time></trkpt><trkpt lat="42.3487692140" lon="13.7933637667"><ele>1598.86</ele><time>2026-8-20T12:58:33Z</time></trkpt><trkpt lat="42.3487848071" lon="13.7932469174"><ele>1600.65</ele><time>2026-8-20T12:58:49Z</time></trkpt><trkpt lat="42.3487602424" lon="13.7931605865"><ele>1603.14</ele><time>2026-8-20T12:59:9Z</time></trkpt><trkpt lat="42.3486661266" lon="13.7930885210"><ele>1605.06</ele><time>2026-8-20T12:59:25Z</time></trkpt><trkpt lat="42.3486521288" lon="13.7929422927"><ele>1606.58</ele><time>2026-8-20T12:59:39Z</time></trkpt><trkpt lat="42.3486578013" lon="13.7928481486"><ele>1608.06</ele><time>2026-8-20T13:0:6Z</time></trkpt><trkpt lat="42.3486568783" lon="13.7927632732"><ele>1609.86</ele><time>2026-8-20T13:0:35Z</time></trkpt><trkpt lat="42.3486020439" lon="13.7926260196"><ele>1611.74</ele><time>2026-8-20T13:0:53Z</time></trkpt><trkpt lat="42.3485676227" lon="13.7924894340"><ele>1613.79</ele><time>2026-8-20T13:1:10Z</time></trkpt><trkpt lat="42.3485416047" lon="13.7923430084"><ele>1615.44</ele><time>2026-8-20T13:1:24Z</time></trkpt><trkpt lat="42.3484894820" lon="13.7922010059"><ele>1616.97</ele><time>2026-8-20T13:1:38Z</time></trkpt><trkpt lat="42.3484453332" lon="13.7921099039"><ele>1619.09</ele><time>2026-8-20T13:2:4Z</time></trkpt><trkpt lat="42.3484199576" lon="13.7919915697"><ele>1622.58</ele><time>2026-8-20T13:2:37Z</time></trkpt><trkpt lat="42.3484747997" lon="13.7917510956"><ele>1624.98</ele><time>2026-8-20T13:2:59Z</time></trkpt><trkpt lat="42.3485308367" lon="13.7915873820"><ele>1625.85</ele><time>2026-8-20T13:3:9Z</time></trkpt><trkpt lat="42.3485279107" lon="13.7914800836"><ele>1628.09</ele><time>2026-8-20T13:3:28Z</time></trkpt><trkpt lat="42.3485107707" lon="13.7913183855"><ele>1631.54</ele><time>2026-8-20T13:3:54Z</time></trkpt><trkpt lat="42.3485356868" lon="13.7912583974"><ele>1632.14</ele><time>2026-8-20T13:4:24Z</time></trkpt><trkpt lat="42.3486384931" lon="13.7911578851"><ele>1632.27</ele><time>2026-8-20T13:4:53Z</time></trkpt><trkpt lat="42.3486093991" lon="13.7910852467"><ele>1634.21</ele><time>2026-8-20T13:5:13Z</time></trkpt><trkpt lat="42.3485802510" lon="13.7910166606"><ele>1636.40</ele><time>2026-8-20T13:5:34Z</time></trkpt><trkpt lat="42.3485794690" lon="13.7909931477"><ele>1638.44</ele><time>2026-8-20T13:5:57Z</time></trkpt><trkpt lat="42.3485718922" lon="13.7909340309"><ele>1640.72</ele><time>2026-8-20T13:6:19Z</time></trkpt><trkpt lat="42.3486378865" lon="13.7908075767"><ele>1643.53</ele><time>2026-8-20T13:6:47Z</time></trkpt><trkpt lat="42.3486859108" lon="13.7908248872"><ele>1644.45</ele><time>2026-8-20T13:7:45Z</time></trkpt><trkpt lat="42.3487577867" lon="13.7907382864"><ele>1646.07</ele><time>2026-8-20T13:8:32Z</time></trkpt><trkpt lat="42.3487896728" lon="13.7906593108"><ele>1648.38</ele><time>2026-8-20T13:8:51Z</time></trkpt><trkpt lat="42.3487741673" lon="13.7905867664"><ele>1650.77</ele><time>2026-8-20T13:9:14Z</time></trkpt><trkpt lat="42.3487412185" lon="13.7905466231"><ele>1652.51</ele><time>2026-8-20T13:9:33Z</time></trkpt><trkpt lat="42.3486659769" lon="13.7905421457"><ele>1654.12</ele><time>2026-8-20T13:9:48Z</time></trkpt><trkpt lat="42.3486477630" lon="13.7904220652"><ele>1655.60</ele><time>2026-8-20T13:10:4Z</time></trkpt><trkpt lat="42.3486140338" lon="13.7904805482"><ele>1656.58</ele><time>2026-8-20T13:10:23Z</time></trkpt><trkpt lat="42.3485611845" lon="13.7903831154"><ele>1658.07</ele><time>2026-8-20T13:10:36Z</time></trkpt><trkpt lat="42.3484936310" lon="13.7902342644"><ele>1659.59</ele><time>2026-8-20T13:10:46Z</time></trkpt><trkpt lat="42.3484961595" lon="13.7902439094"><ele>1661.34</ele><time>2026-8-20T13:11:3Z</time></trkpt><trkpt lat="42.3484526522" lon="13.7901862466"><ele>1662.31</ele><time>2026-8-20T13:11:22Z</time></trkpt><trkpt lat="42.3484868184" lon="13.7901075930"><ele>1664.19</ele><time>2026-8-20T13:11:39Z</time></trkpt><trkpt lat="42.3484784179" lon="13.7899628049"><ele>1666.26</ele><time>2026-8-20T13:11:57Z</time></trkpt><trkpt lat="42.3484631628" lon="13.7898559403"><ele>1667.35</ele><time>2026-8-20T13:12:17Z</time></trkpt><trkpt lat="42.3484651511" lon="13.7897686614"><ele>1669.31</ele><time>2026-8-20T13:12:36Z</time></trkpt><trkpt lat="42.3485215794" lon="13.7896751343"><ele>1672.24</ele><time>2026-8-20T13:13:4Z</time></trkpt><trkpt lat="42.3484875410" lon="13.7895479037"><ele>1674.83</ele><time>2026-8-20T13:13:31Z</time></trkpt><trkpt lat="42.3485038122" lon="13.7893997370"><ele>1677.07</ele><time>2026-8-20T13:13:49Z</time></trkpt><trkpt lat="42.3484790075" lon="13.7892569665"><ele>1679.25</ele><time>2026-8-20T13:14:9Z</time></trkpt><trkpt lat="42.3484876380" lon="13.7891738909"><ele>1680.35</ele><time>2026-8-20T13:14:24Z</time></trkpt><trkpt lat="42.3487745412" lon="13.7891631667"><ele>1680.46</ele><time>2026-8-20T13:14:35Z</time></trkpt><trkpt lat="42.3488347645" lon="13.7890189154"><ele>1680.41</ele><time>2026-8-20T13:14:43Z</time></trkpt><trkpt lat="42.3489043013" lon="13.7888516396"><ele>1679.83</ele><time>2026-8-20T13:15:0Z</time></trkpt><trkpt lat="42.3489162170" lon="13.7888058003"><ele>1678.47</ele><time>2026-8-20T13:17:13Z</time></trkpt><trkpt lat="42.3489242745" lon="13.7888217537"><ele>1679.37</ele><time>2026-8-20T13:20:22Z</time></trkpt><trkpt lat="42.3489062262" lon="13.7888285045"><ele>1680.80</ele><time>2026-8-20T13:21:53Z</time></trkpt><trkpt lat="42.3489724444" lon="13.7886919146"><ele>1680.47</ele><time>2026-8-20T13:22:19Z</time></trkpt><trkpt lat="42.3490600800" lon="13.7885484123"><ele>1681.27</ele><time>2026-8-20T13:22:30Z</time></trkpt><trkpt lat="42.3491079150" lon="13.7884212114"><ele>1682.53</ele><time>2026-8-20T13:22:46Z</time></trkpt><trkpt lat="42.3491215981" lon="13.7882735830"><ele>1684.24</ele><time>2026-8-20T13:23:6Z</time></trkpt><trkpt lat="42.3491388559" lon="13.7881366523"><ele>1686.04</ele><time>2026-8-20T13:23:28Z</time></trkpt><trkpt lat="42.3491568980" lon="13.7880029669"><ele>1688.08</ele><time>2026-8-20T13:23:44Z</time></trkpt><trkpt lat="42.3491610600" lon="13.7879519950"><ele>1689.73</ele><time>2026-8-20T13:24:1Z</time></trkpt><trkpt lat="42.3491332604" lon="13.7879181789"><ele>1691.04</ele><time>2026-8-20T13:24:17Z</time></trkpt><trkpt lat="42.3491317935" lon="13.7879173521"><ele>1691.53</ele><time>2026-8-20T13:24:33Z</time></trkpt><trkpt lat="42.3491892281" lon="13.7878904740"><ele>1691.82</ele><time>2026-8-20T13:24:58Z</time></trkpt><trkpt lat="42.3493046483" lon="13.7878964321"><ele>1692.10</ele><time>2026-8-20T13:25:20Z</time></trkpt><trkpt lat="42.3494223439" lon="13.7878737359"><ele>1694.02</ele><time>2026-8-20T13:25:39Z</time></trkpt><trkpt lat="42.3495274292" lon="13.7878348840"><ele>1696.89</ele><time>2026-8-20T13:25:59Z</time></trkpt><trkpt lat="42.3496203075" lon="13.7878287151"><ele>1699.15</ele><time>2026-8-20T13:26:22Z</time></trkpt><trkpt lat="42.3497296095" lon="13.7878752407"><ele>1700.90</ele><time>2026-8-20T13:26:46Z</time></trkpt><trkpt lat="42.3498239753" lon="13.7879080070"><ele>1702.69</ele><time>2026-8-20T13:27:26Z</time></trkpt><trkpt lat="42.3498380752" lon="13.7879212973"><ele>1702.24</ele><time>2026-8-20T13:28:29Z</time></trkpt><trkpt lat="42.3499107314" lon="13.7879431173"><ele>1703.09</ele><time>2026-8-20T13:29:6Z</time></trkpt><trkpt lat="42.3499803359" lon="13.7879072595"><ele>1703.47</ele><time>2026-8-20T13:29:23Z</time></trkpt><trkpt lat="42.3500814079" lon="13.7878019357"><ele>1703.66</ele><time>2026-8-20T13:29:42Z</time></trkpt><trkpt lat="42.3501614970" lon="13.7876598607"><ele>1704.49</ele><time>2026-8-20T13:29:56Z</time></trkpt><trkpt lat="42.3502504486" lon="13.7874575299"><ele>1704.15</ele><time>2026-8-20T13:30:18Z</time></trkpt><trkpt lat="42.3502532415" lon="13.7874417336"><ele>1703.70</ele><time>2026-8-20T13:31:24Z</time></trkpt><trkpt lat="42.3502547628" lon="13.7874448210"><ele>1704.26</ele><time>2026-8-20T13:33:21Z</time></trkpt><trkpt lat="42.3502559126" lon="13.7874398134"><ele>1704.16</ele><time>2026-8-20T13:35:3Z</time></trkpt><trkpt lat="42.3503646893" lon="13.7873713685"><ele>1704.31</ele><time>2026-8-20T13:35:43Z</time></trkpt><trkpt lat="42.3504982889" lon="13.7873306405"><ele>1703.15</ele><time>2026-8-20T13:35:49Z</time></trkpt><trkpt lat="42.3506349069" lon="13.7872991525"><ele>1701.77</ele><time>2026-8-20T13:35:54Z</time></trkpt><trkpt lat="42.3507629754" lon="13.7872586539"><ele>1699.73</ele><time>2026-8-20T13:35:59Z</time></trkpt><trkpt lat="42.3508852814" lon="13.7871796684"><ele>1697.85</ele><time>2026-8-20T13:36:5Z</time></trkpt><trkpt lat="42.3509691395" lon="13.7870577034"><ele>1696.36</ele><time>2026-8-20T13:36:11Z</time></trkpt><trkpt lat="42.3510254659" lon="13.7869032752"><ele>1695.12</ele><time>2026-8-20T13:36:16Z</time></trkpt><trkpt lat="42.3510884475" lon="13.7867454272"><ele>1693.58</ele><time>2026-8-20T13:36:21Z</time></trkpt><trkpt lat="42.3511525942" lon="13.7865674682"><ele>1691.97</ele><time>2026-8-20T13:36:26Z</time></trkpt><trkpt lat="42.3512082416" lon="13.7864027079"><ele>1690.04</ele><time>2026-8-20T13:36:32Z</time></trkpt><trkpt lat="42.3512691027" lon="13.7862486066"><ele>1688.39</ele><time>2026-8-20T13:36:36Z</time></trkpt><trkpt lat="42.3513379768" lon="13.7860866599"><ele>1686.47</ele><time>2026-8-20T13:36:41Z</time></trkpt><trkpt lat="42.3514137743" lon="13.7859649840"><ele>1684.63</ele><time>2026-8-20T13:36:45Z</time></trkpt><trkpt lat="42.3515034020" lon="13.7858128399"><ele>1682.97</ele><time>2026-8-20T13:36:50Z</time></trkpt><trkpt lat="42.3515980672" lon="13.7856545057"><ele>1680.59</ele><time>2026-8-20T13:36:55Z</time></trkpt><trkpt lat="42.3516859137" lon="13.7855314720"><ele>1679.04</ele><time>2026-8-20T13:36:59Z</time></trkpt><trkpt lat="42.3517667991" lon="13.7854022230"><ele>1677.77</ele><time>2026-8-20T13:37:3Z</time></trkpt><trkpt lat="42.3518490046" lon="13.7852302473"><ele>1676.01</ele><time>2026-8-20T13:37:7Z</time></trkpt><trkpt lat="42.3518979270" lon="13.7850794289"><ele>1674.61</ele><time>2026-8-20T13:37:10Z</time></trkpt><trkpt lat="42.3519721557" lon="13.7849369226"><ele>1673.30</ele><time>2026-8-20T13:37:13Z</time></trkpt><trkpt lat="42.3520548362" lon="13.7848040554"><ele>1671.78</ele><time>2026-8-20T13:37:17Z</time></trkpt><trkpt lat="42.3521346180" lon="13.7846514140"><ele>1670.04</ele><time>2026-8-20T13:37:20Z</time></trkpt><trkpt lat="42.3522320576" lon="13.7844906072"><ele>1668.53</ele><time>2026-8-20T13:37:24Z</time></trkpt><trkpt lat="42.3523084167" lon="13.7843738403"><ele>1667.30</ele><time>2026-8-20T13:37:28Z</time></trkpt><trkpt lat="42.3524014978" lon="13.7842350011"><ele>1666.12</ele><time>2026-8-20T13:37:31Z</time></trkpt><trkpt lat="42.3525103578" lon="13.7840992143"><ele>1664.65</ele><time>2026-8-20T13:37:35Z</time></trkpt><trkpt lat="42.3525701726" lon="13.7840534427"><ele>1661.25</ele><time>2026-8-20T13:37:49Z</time></trkpt><trkpt lat="42.3525803960" lon="13.7841008787"><ele>1660.57</ele><time>2026-8-20T13:38:28Z</time></trkpt><trkpt lat="42.3525834898" lon="13.7840989768"><ele>1661.06</ele><time>2026-8-20T13:39:26Z</time></trkpt><trkpt lat="42.3525878244" lon="13.7840528321"><ele>1661.63</ele><time>2026-8-20T13:40:23Z</time></trkpt><trkpt lat="42.3526818305" lon="13.7839190941"><ele>1661.08</ele><time>2026-8-20T13:40:52Z</time></trkpt><trkpt lat="42.3527669278" lon="13.7837676681"><ele>1660.26</ele><time>2026-8-20T13:40:55Z</time></trkpt><trkpt lat="42.3528424557" lon="13.7836228218"><ele>1659.07</ele><time>2026-8-20T13:40:59Z</time></trkpt><trkpt lat="42.3529186193" lon="13.7835001666"><ele>1658.29</ele><time>2026-8-20T13:41:2Z</time></trkpt><trkpt lat="42.3530214653" lon="13.7833576882"><ele>1657.27</ele><time>2026-8-20T13:41:5Z</time></trkpt><trkpt lat="42.3531095172" lon="13.7832328817"><ele>1656.47</ele><time>2026-8-20T13:41:8Z</time></trkpt><trkpt lat="42.3531877343" lon="13.7831047364"><ele>1655.78</ele><time>2026-8-20T13:41:11Z</time></trkpt><trkpt lat="42.3532701842" lon="13.7829545047"><ele>1655.21</ele><time>2026-8-20T13:41:14Z</time></trkpt><trkpt lat="42.3533694819" lon="13.7828013184"><ele>1654.82</ele><time>2026-8-20T13:41:17Z</time></trkpt><trkpt lat="42.3534712661" lon="13.7826672569"><ele>1653.93</ele><time>2026-8-20T13:41:21Z</time></trkpt><trkpt lat="42.3535547499" lon="13.7825632096"><ele>1653.04</ele><time>2026-8-20T13:41:24Z</time></trkpt><trkpt lat="42.3536487948" lon="13.7824279815"><ele>1651.91</ele><time>2026-8-20T13:41:27Z</time></trkpt><trkpt lat="42.3537512776" lon="13.7822897081"><ele>1650.46</ele><time>2026-8-20T13:41:30Z</time></trkpt><trkpt lat="42.3538494017" lon="13.7821696512"><ele>1649.35</ele><time>2026-8-20T13:41:34Z</time></trkpt><trkpt lat="42.3539435794" lon="13.7820342486"><ele>1648.73</ele><time>2026-8-20T13:41:37Z</time></trkpt><trkpt lat="42.3540432472" lon="13.7818893883"><ele>1647.98</ele><time>2026-8-20T13:41:41Z</time></trkpt><trkpt lat="42.3541285750" lon="13.7817695271"><ele>1647.20</ele><time>2026-8-20T13:41:44Z</time></trkpt><trkpt lat="42.3542135116" lon="13.7816466205"><ele>1646.44</ele><time>2026-8-20T13:41:47Z</time></trkpt><trkpt lat="42.3543191515" lon="13.7815348339"><ele>1645.56</ele><time>2026-8-20T13:41:50Z</time></trkpt><trkpt lat="42.3544267472" lon="13.7814396713"><ele>1644.51</ele><time>2026-8-20T13:41:54Z</time></trkpt><trkpt lat="42.3545285314" lon="13.7812976092"><ele>1643.37</ele><time>2026-8-20T13:41:58Z</time></trkpt><trkpt lat="42.3546330119" lon="13.7811736786"><ele>1642.42</ele><time>2026-8-20T13:42:2Z</time></trkpt><trkpt lat="42.3547193036" lon="13.7810522039"><ele>1641.62</ele><time>2026-8-20T13:42:5Z</time></trkpt><trkpt lat="42.3548081517" lon="13.7809086847"><ele>1640.41</ele><time>2026-8-20T13:42:8Z</time></trkpt><trkpt lat="42.3548864946" lon="13.7807499245"><ele>1639.58</ele><time>2026-8-20T13:42:12Z</time></trkpt><trkpt lat="42.3549734429" lon="13.7806355115"><ele>1638.69</ele><time>2026-8-20T13:42:15Z</time></trkpt><trkpt lat="42.3550664261" lon="13.7805199251"><ele>1637.31</ele><time>2026-8-20T13:42:18Z</time></trkpt><trkpt lat="42.3551686574" lon="13.7803846970"><ele>1636.16</ele><time>2026-8-20T13:42:21Z</time></trkpt><trkpt lat="42.3552599782" lon="13.7802516483"><ele>1635.39</ele><time>2026-8-20T13:42:23Z</time></trkpt><trkpt lat="42.3553552665" lon="13.7801370397"><ele>1634.52</ele><time>2026-8-20T13:42:26Z</time></trkpt><trkpt lat="42.3554660193" lon="13.7799958885"><ele>1633.23</ele><time>2026-8-20T13:42:29Z</time></trkpt><trkpt lat="42.3555536382" lon="13.7798636919"><ele>1632.09</ele><time>2026-8-20T13:42:31Z</time></trkpt><trkpt lat="42.3556490522" lon="13.7797312159"><ele>1631.14</ele><time>2026-8-20T13:42:34Z</time></trkpt><trkpt lat="42.3557380820" lon="13.7795919087"><ele>1630.40</ele><time>2026-8-20T13:42:36Z</time></trkpt><trkpt lat="42.3558172491" lon="13.7794548087"><ele>1629.82</ele><time>2026-8-20T13:42:39Z</time></trkpt><trkpt lat="42.3559129704" lon="13.7793177925"><ele>1629.04</ele><time>2026-8-20T13:42:42Z</time></trkpt><trkpt lat="42.3560281098" lon="13.7791910861"><ele>1628.55</ele><time>2026-8-20T13:42:45Z</time></trkpt><trkpt lat="42.3561277148" lon="13.7790758768"><ele>1627.95</ele><time>2026-8-20T13:42:47Z</time></trkpt><trkpt lat="42.3562283535" lon="13.7789599970"><ele>1627.36</ele><time>2026-8-20T13:42:50Z</time></trkpt><trkpt lat="42.3563426826" lon="13.7788392138"><ele>1626.52</ele><time>2026-8-20T13:42:53Z</time></trkpt><trkpt lat="42.3564446345" lon="13.7787348591"><ele>1625.94</ele><time>2026-8-20T13:42:56Z</time></trkpt><trkpt lat="42.3565445328" lon="13.7786359387"><ele>1625.55</ele><time>2026-8-20T13:43:0Z</time></trkpt><trkpt lat="42.3566583731" lon="13.7785301032"><ele>1625.41</ele><time>2026-8-20T13:43:6Z</time></trkpt><trkpt lat="42.3567706766" lon="13.7784231082"><ele>1625.44</ele><time>2026-8-20T13:43:12Z</time></trkpt><trkpt lat="42.3568841256" lon="13.7783235591"><ele>1625.58</ele><time>2026-8-20T13:43:18Z</time></trkpt><trkpt lat="42.3570049508" lon="13.7782401731"><ele>1625.69</ele><time>2026-8-20T13:43:24Z</time></trkpt><trkpt lat="42.3571185874" lon="13.7781645424"><ele>1626.09</ele><time>2026-8-20T13:43:31Z</time></trkpt><trkpt lat="42.3572262470" lon="13.7780612265"><ele>1626.60</ele><time>2026-8-20T13:43:38Z</time></trkpt><trkpt lat="42.3573297515" lon="13.7779594971"><ele>1627.07</ele><time>2026-8-20T13:43:45Z</time></trkpt><trkpt lat="42.3574469285" lon="13.7778548291"><ele>1627.19</ele><time>2026-8-20T13:43:51Z</time></trkpt><trkpt lat="42.3575628043" lon="13.7777549547"><ele>1627.37</ele><time>2026-8-20T13:43:58Z</time></trkpt><trkpt lat="42.3576786881" lon="13.7776608579"><ele>1627.53</ele><time>2026-8-20T13:44:4Z</time></trkpt><trkpt lat="42.3577915085" lon="13.7775652064"><ele>1627.62</ele><time>2026-8-20T13:44:10Z</time></trkpt><trkpt lat="42.3579105336" lon="13.7774747237"><ele>1627.81</ele><time>2026-8-20T13:44:17Z</time></trkpt><trkpt lat="42.3580246903" lon="13.7773937378"><ele>1628.08</ele><time>2026-8-20T13:44:23Z</time></trkpt><trkpt lat="42.3581475718" lon="13.7773314910"><ele>1628.65</ele><time>2026-8-20T13:44:28Z</time></trkpt><trkpt lat="42.3582671285" lon="13.7772587053"><ele>1629.02</ele><time>2026-8-20T13:44:34Z</time></trkpt><trkpt lat="42.3583822288" lon="13.7771655824"><ele>1629.29</ele><time>2026-8-20T13:44:39Z</time></trkpt><trkpt lat="42.3585081585" lon="13.7770695258"><ele>1629.27</ele><time>2026-8-20T13:44:44Z</time></trkpt><trkpt lat="42.3586309701" lon="13.7769900193"><ele>1629.10</ele><time>2026-8-20T13:44:48Z</time></trkpt><trkpt lat="42.3587407521" lon="13.7769043772"><ele>1628.72</ele><time>2026-8-20T13:44:52Z</time></trkpt><trkpt lat="42.3588644480" lon="13.7768202857"><ele>1628.35</ele><time>2026-8-20T13:44:56Z</time></trkpt><trkpt lat="42.3590032733" lon="13.7767604808"><ele>1627.52</ele><time>2026-8-20T13:45:0Z</time></trkpt><trkpt lat="42.3591247481" lon="13.7766948156"><ele>1626.70</ele><time>2026-8-20T13:45:4Z</time></trkpt><trkpt lat="42.3592529283" lon="13.7766223890"><ele>1625.76</ele><time>2026-8-20T13:45:7Z</time></trkpt><trkpt lat="42.3593836650" lon="13.7765582744"><ele>1624.48</ele><time>2026-8-20T13:45:11Z</time></trkpt><trkpt lat="42.3594930209" lon="13.7764953263"><ele>1623.25</ele><time>2026-8-20T13:45:14Z</time></trkpt><trkpt lat="42.3596149427" lon="13.7764294795"><ele>1621.91</ele><time>2026-8-20T13:45:17Z</time></trkpt><trkpt lat="42.3597436468" lon="13.7763687735"><ele>1620.19</ele><time>2026-8-20T13:45:21Z</time></trkpt><trkpt lat="42.3598674126" lon="13.7763223518"><ele>1618.72</ele><time>2026-8-20T13:45:25Z</time></trkpt><trkpt lat="42.3600062309" lon="13.7762929174"><ele>1617.48</ele><time>2026-8-20T13:45:28Z</time></trkpt><trkpt lat="42.3601443786" lon="13.7762629520"><ele>1616.34</ele><time>2026-8-20T13:45:32Z</time></trkpt><trkpt lat="42.3602715041" lon="13.7762086931"><ele>1615.27</ele><time>2026-8-20T13:45:35Z</time></trkpt><trkpt lat="42.3604006414" lon="13.7761452142"><ele>1614.40</ele><time>2026-8-20T13:45:38Z</time></trkpt><trkpt lat="42.3605346680" lon="13.7760955375"><ele>1613.31</ele><time>2026-8-20T13:45:41Z</time></trkpt><trkpt lat="42.3606638331" lon="13.7760405522"><ele>1612.18</ele><time>2026-8-20T13:45:44Z</time></trkpt><trkpt lat="42.3607918527" lon="13.7759662326"><ele>1611.09</ele><time>2026-8-20T13:45:47Z</time></trkpt><trkpt lat="42.3609221354" lon="13.7758919131"><ele>1610.42</ele><time>2026-8-20T13:45:50Z</time></trkpt><trkpt lat="42.3610385880" lon="13.7758413842"><ele>1609.80</ele><time>2026-8-20T13:45:52Z</time></trkpt><trkpt lat="42.3611634993" lon="13.7758044410"><ele>1609.05</ele><time>2026-8-20T13:45:55Z</time></trkpt><trkpt lat="42.3612943408" lon="13.7757543381"><ele>1608.09</ele><time>2026-8-20T13:45:59Z</time></trkpt><trkpt lat="42.3614115548" lon="13.7756775320"><ele>1607.86</ele><time>2026-8-20T13:46:3Z</time></trkpt><trkpt lat="42.3615296278" lon="13.7755975686"><ele>1607.76</ele><time>2026-8-20T13:46:6Z</time></trkpt><trkpt lat="42.3616734124" lon="13.7755385880"><ele>1607.27</ele><time>2026-8-20T13:46:9Z</time></trkpt><trkpt lat="42.3617927637" lon="13.7754622847"><ele>1606.90</ele><time>2026-8-20T13:46:13Z</time></trkpt><trkpt lat="42.3618931510" lon="13.7753574829"><ele>1606.72</ele><time>2026-8-20T13:46:16Z</time></trkpt><trkpt lat="42.3620006628" lon="13.7752507254"><ele>1606.33</ele><time>2026-8-20T13:46:19Z</time></trkpt><trkpt lat="42.3621323006" lon="13.7751727808"><ele>1605.74</ele><time>2026-8-20T13:46:22Z</time></trkpt><trkpt lat="42.3622520361" lon="13.7751038745"><ele>1605.35</ele><time>2026-8-20T13:46:26Z</time></trkpt><trkpt lat="42.3623748729" lon="13.7750309170"><ele>1605.04</ele><time>2026-8-20T13:46:29Z</time></trkpt><trkpt lat="42.3625022988" lon="13.7749609910"><ele>1604.83</ele><time>2026-8-20T13:46:33Z</time></trkpt><trkpt lat="42.3626339491" lon="13.7748904489"><ele>1604.91</ele><time>2026-8-20T13:46:38Z</time></trkpt><trkpt lat="42.3627458140" lon="13.7748130504"><ele>1605.01</ele><time>2026-8-20T13:46:42Z</time></trkpt><trkpt lat="42.3628510348" lon="13.7747185305"><ele>1604.99</ele><time>2026-8-20T13:46:45Z</time></trkpt><trkpt lat="42.3629785236" lon="13.7746337615"><ele>1604.91</ele><time>2026-8-20T13:46:48Z</time></trkpt><trkpt lat="42.3631003965" lon="13.7745652813"><ele>1604.75</ele><time>2026-8-20T13:46:51Z</time></trkpt><trkpt lat="42.3632128536" lon="13.7745008245"><ele>1604.40</ele><time>2026-8-20T13:46:54Z</time></trkpt><trkpt lat="42.3633433040" lon="13.7744426820"><ele>1604.08</ele><time>2026-8-20T13:46:57Z</time></trkpt><trkpt lat="42.3634821922" lon="13.7743919995"><ele>1603.59</ele><time>2026-8-20T13:47:0Z</time></trkpt><trkpt lat="42.3636232945" lon="13.7743269419"><ele>1602.91</ele><time>2026-8-20T13:47:3Z</time></trkpt><trkpt lat="42.3637491278" lon="13.7742662989"><ele>1601.94</ele><time>2026-8-20T13:47:8Z</time></trkpt><trkpt lat="42.3638765831" lon="13.7741952203"><ele>1600.90</ele><time>2026-8-20T13:47:13Z</time></trkpt><trkpt lat="42.3639739051" lon="13.7741131488"><ele>1599.44</ele><time>2026-8-20T13:47:32Z</time></trkpt><trkpt lat="42.3639784123" lon="13.7741137595"><ele>1597.56</ele><time>2026-8-20T13:49:3Z</time></trkpt><trkpt lat="42.3640123850" lon="13.7740902410"><ele>1598.46</ele><time>2026-8-20T13:50:54Z</time></trkpt><trkpt lat="42.3640855654" lon="13.7740206612"><ele>1599.28</ele><time>2026-8-20T13:51:34Z</time></trkpt><trkpt lat="42.3642040696" lon="13.7739249319"><ele>1599.56</ele><time>2026-8-20T13:51:40Z</time></trkpt><trkpt lat="42.3643324245" lon="13.7738823658"><ele>1599.59</ele><time>2026-8-20T13:51:45Z</time></trkpt><trkpt lat="42.3644628636" lon="13.7738213874"><ele>1599.27</ele><time>2026-8-20T13:51:50Z</time></trkpt><trkpt lat="42.3645915929" lon="13.7737539299"><ele>1598.52</ele><time>2026-8-20T13:51:55Z</time></trkpt><trkpt lat="42.3647129769" lon="13.7737301085"><ele>1597.92</ele><time>2026-8-20T13:52:0Z</time></trkpt><trkpt lat="42.3648359757" lon="13.7736695912"><ele>1597.76</ele><time>2026-8-20T13:52:6Z</time></trkpt><trkpt lat="42.3649718519" lon="13.7736095628"><ele>1597.33</ele><time>2026-8-20T13:52:11Z</time></trkpt><trkpt lat="42.3651117906" lon="13.7735650185"><ele>1596.76</ele><time>2026-8-20T13:52:17Z</time></trkpt><trkpt lat="42.3652338772" lon="13.7735219020"><ele>1596.36</ele><time>2026-8-20T13:52:21Z</time></trkpt><trkpt lat="42.3653567769" lon="13.7734608608"><ele>1596.00</ele><time>2026-8-20T13:52:25Z</time></trkpt><trkpt lat="42.3654812482" lon="13.7733864086"><ele>1595.42</ele><time>2026-8-20T13:52:29Z</time></trkpt><trkpt lat="42.3656133050" lon="13.7733021705"><ele>1594.84</ele><time>2026-8-20T13:52:33Z</time></trkpt><trkpt lat="42.3657410452" lon="13.7732471642"><ele>1594.15</ele><time>2026-8-20T13:52:37Z</time></trkpt><trkpt lat="42.3658707552" lon="13.7732011985"><ele>1593.44</ele><time>2026-8-20T13:52:43Z</time></trkpt><trkpt lat="42.3659955617" lon="13.7731617456"><ele>1593.57</ele><time>2026-8-20T13:52:49Z</time></trkpt><trkpt lat="42.3661208831" lon="13.7731142302"><ele>1593.81</ele><time>2026-8-20T13:52:56Z</time></trkpt><trkpt lat="42.3662537243" lon="13.7730657349"><ele>1593.82</ele><time>2026-8-20T13:53:3Z</time></trkpt><trkpt lat="42.3663866299" lon="13.7730493618"><ele>1593.91</ele><time>2026-8-20T13:53:10Z</time></trkpt><trkpt lat="42.3665230097" lon="13.7730326420"><ele>1594.15</ele><time>2026-8-20T13:53:19Z</time></trkpt><trkpt lat="42.3666583747" lon="13.7730061635"><ele>1594.83</ele><time>2026-8-20T13:53:29Z</time></trkpt><trkpt lat="42.3667819332" lon="13.7729410455"><ele>1595.83</ele><time>2026-8-20T13:53:38Z</time></trkpt><trkpt lat="42.3669004567" lon="13.7728576514"><ele>1596.74</ele><time>2026-8-20T13:53:48Z</time></trkpt><trkpt lat="42.3670091015" lon="13.7727459753"><ele>1597.75</ele><time>2026-8-20T13:53:59Z</time></trkpt><trkpt lat="42.3671028416" lon="13.7726163517"><ele>1599.11</ele><time>2026-8-20T13:54:11Z</time></trkpt><trkpt lat="42.3672173724" lon="13.7725400459"><ele>1600.94</ele><time>2026-8-20T13:54:23Z</time></trkpt><trkpt lat="42.3673486035" lon="13.7725135381"><ele>1602.01</ele><time>2026-8-20T13:54:35Z</time></trkpt><trkpt lat="42.3674862902" lon="13.7724914868"><ele>1602.44</ele><time>2026-8-20T13:54:47Z</time></trkpt><trkpt lat="42.3676160183" lon="13.7724427404"><ele>1603.07</ele><time>2026-8-20T13:54:58Z</time></trkpt><trkpt lat="42.3677273677" lon="13.7723718805"><ele>1604.09</ele><time>2026-8-20T13:55:15Z</time></trkpt><trkpt lat="42.3678186536" lon="13.7722720765"><ele>1604.90</ele><time>2026-8-20T13:55:32Z</time></trkpt><trkpt lat="42.3679357510" lon="13.7721193817"><ele>1604.74</ele><time>2026-8-20T13:55:49Z</time></trkpt><trkpt lat="42.3679573900" lon="13.7720875030"><ele>1604.51</ele><time>2026-8-20T13:56:12Z</time></trkpt><trkpt lat="42.3679274763" lon="13.7721174438"><ele>1603.13</ele><time>2026-8-20T13:57:52Z</time></trkpt><trkpt lat="42.3679128797" lon="13.7720905217"><ele>1603.74</ele><time>2026-8-20T14:0:8Z</time></trkpt><trkpt lat="42.3679784925" lon="13.7720520635"><ele>1603.80</ele><time>2026-8-20T14:0:57Z</time></trkpt><trkpt lat="42.3681199341" lon="13.7719881814"><ele>1603.35</ele><time>2026-8-20T14:1:2Z</time></trkpt><trkpt lat="42.3682378046" lon="13.7719419133"><ele>1602.29</ele><time>2026-8-20T14:1:7Z</time></trkpt><trkpt lat="42.3683656706" lon="13.7718768138"><ele>1601.18</ele><time>2026-8-20T14:1:12Z</time></trkpt><trkpt lat="42.3685016041" lon="13.7718090811"><ele>1600.03</ele><time>2026-8-20T14:1:17Z</time></trkpt><trkpt lat="42.3686268297" lon="13.7717604660"><ele>1598.95</ele><time>2026-8-20T14:1:21Z</time></trkpt><trkpt lat="42.3687573569" lon="13.7717165868"><ele>1597.85</ele><time>2026-8-20T14:1:25Z</time></trkpt><trkpt lat="42.3688933952" lon="13.7716510194"><ele>1596.58</ele><time>2026-8-20T14:1:29Z</time></trkpt><trkpt lat="42.3690069700" lon="13.7715865416"><ele>1595.33</ele><time>2026-8-20T14:1:33Z</time></trkpt><trkpt lat="42.3691390604" lon="13.7715480812"><ele>1593.97</ele><time>2026-8-20T14:1:38Z</time></trkpt><trkpt lat="42.3692836314" lon="13.7715251483"><ele>1592.06</ele><time>2026-8-20T14:1:43Z</time></trkpt><trkpt lat="42.3694071849" lon="13.7714994746"><ele>1590.63</ele><time>2026-8-20T14:1:47Z</time></trkpt><trkpt lat="42.3695259187" lon="13.7714579422"><ele>1588.84</ele><time>2026-8-20T14:1:52Z</time></trkpt><trkpt lat="42.3696634127" lon="13.7713990035"><ele>1586.73</ele><time>2026-8-20T14:1:57Z</time></trkpt><trkpt lat="42.3697845382" lon="13.7713405117"><ele>1585.16</ele><time>2026-8-20T14:2:2Z</time></trkpt><trkpt lat="42.3699005228" lon="13.7712734146"><ele>1583.65</ele><time>2026-8-20T14:2:6Z</time></trkpt><trkpt lat="42.3700451944" lon="13.7712139031"><ele>1582.50</ele><time>2026-8-20T14:2:10Z</time></trkpt><trkpt lat="42.3701532162" lon="13.7711570948"><ele>1581.30</ele><time>2026-8-20T14:2:14Z</time></trkpt><trkpt lat="42.3702801112" lon="13.7710964866"><ele>1580.09</ele><time>2026-8-20T14:2:18Z</time></trkpt><trkpt lat="42.3704221789" lon="13.7710464578"><ele>1578.93</ele><time>2026-8-20T14:2:22Z</time></trkpt><trkpt lat="42.3705711029" lon="13.7710136455"><ele>1577.99</ele><time>2026-8-20T14:2:26Z</time></trkpt><trkpt lat="42.3706953786" lon="13.7709575146"><ele>1577.28</ele><time>2026-8-20T14:2:29Z</time></trkpt><trkpt lat="42.3708089814" lon="13.7708788644"><ele>1576.69</ele><time>2026-8-20T14:2:32Z</time></trkpt><trkpt lat="42.3709329846" lon="13.7708077370"><ele>1575.97</ele><time>2026-8-20T14:2:35Z</time></trkpt><trkpt lat="42.3710541800" lon="13.7707313430"><ele>1575.27</ele><time>2026-8-20T14:2:39Z</time></trkpt><trkpt lat="42.3711507255" lon="13.7706484809"><ele>1574.25</ele><time>2026-8-20T14:2:42Z</time></trkpt><trkpt lat="42.3712870907" lon="13.7705377936"><ele>1572.78</ele><time>2026-8-20T14:2:47Z</time></trkpt><trkpt lat="42.3714026436" lon="13.7704356574"><ele>1571.12</ele><time>2026-8-20T14:2:51Z</time></trkpt><trkpt lat="42.3715230557" lon="13.7703324622"><ele>1568.53</ele><time>2026-8-20T14:2:59Z</time></trkpt><trkpt lat="42.3715723221" lon="13.7703883730"><ele>1567.43</ele><time>2026-8-20T14:3:24Z</time></trkpt><trkpt lat="42.3715358664" lon="13.7704085394"><ele>1567.55</ele><time>2026-8-20T14:3:52Z</time></trkpt><trkpt lat="42.3714812981" lon="13.7705331991"><ele>1568.02</ele><time>2026-8-20T14:4:10Z</time></trkpt><trkpt lat="42.3713810536" lon="13.7706476857"><ele>1569.73</ele><time>2026-8-20T14:4:26Z</time></trkpt><trkpt lat="42.3712749593" lon="13.7706572818"><ele>1571.19</ele><time>2026-8-20T14:4:41Z</time></trkpt><trkpt lat="42.3711937759" lon="13.7706864625"><ele>1572.16</ele><time>2026-8-20T14:4:56Z</time></trkpt><trkpt lat="42.3710892024" lon="13.7708186724"><ele>1572.76</ele><time>2026-8-20T14:5:12Z</time></trkpt><trkpt lat="42.3710452812" lon="13.7708326679"><ele>1572.54</ele><time>2026-8-20T14:5:35Z</time></trkpt><trkpt lat="42.3710703477" lon="13.7707606284"><ele>1572.54</ele><time>2026-8-20T14:6:9Z</time></trkpt><trkpt lat="42.3711089705" lon="13.7707710190"><ele>1571.53</ele><time>2026-8-20T14:6:43Z</time></trkpt><trkpt lat="42.3711211705" lon="13.7708465397"><ele>1571.69</ele><time>2026-8-20T14:7:9Z</time></trkpt><trkpt lat="42.3710499227" lon="13.7709076022"><ele>1571.77</ele><time>2026-8-20T14:7:26Z</time></trkpt><trkpt lat="42.3710290622" lon="13.7710192837"><ele>1571.77</ele><time>2026-8-20T14:7:37Z</time></trkpt><trkpt lat="42.3710294645" lon="13.7708921637"><ele>1573.16</ele><time>2026-8-20T14:7:44Z</time></trkpt><trkpt lat="42.3710232027" lon="13.7708128657"><ele>1572.66</ele><time>2026-8-20T14:8:5Z</time></trkpt><trkpt lat="42.3710146046" lon="13.7708242679"><ele>1572.43</ele><time>2026-8-20T14:8:39Z</time></trkpt><trkpt lat="42.3710239865" lon="13.7707871385"><ele>1572.66</ele><time>2026-8-20T14:9:10Z</time></trkpt><trkpt lat="42.3711569002" lon="13.7707228353"><ele>1572.40</ele><time>2026-8-20T14:9:26Z</time></trkpt><trkpt lat="42.3712641075" lon="13.7706412934"><ele>1571.61</ele><time>2026-8-20T14:9:32Z</time></trkpt><trkpt lat="42.3713779589" lon="13.7705635512"><ele>1570.56</ele><time>2026-8-20T14:9:36Z</time></trkpt><trkpt lat="42.3715074384" lon="13.7704423070"><ele>1569.42</ele><time>2026-8-20T14:9:40Z</time></trkpt><trkpt lat="42.3716130294" lon="13.7703723461"><ele>1567.85</ele><time>2026-8-20T14:9:45Z</time></trkpt><trkpt lat="42.3717019614" lon="13.7702330528"><ele>1566.17</ele><time>2026-8-20T14:9:50Z</time></trkpt><trkpt lat="42.3718066653" lon="13.7701009540"><ele>1564.62</ele><time>2026-8-20T14:9:55Z</time></trkpt><trkpt lat="42.3719387921" lon="13.7700589607"><ele>1563.30</ele><time>2026-8-20T14:10:0Z</time></trkpt><trkpt lat="42.3720613984" lon="13.7700849026"><ele>1562.10</ele><time>2026-8-20T14:10:4Z</time></trkpt><trkpt lat="42.3722009640" lon="13.7700763810"><ele>1560.97</ele><time>2026-8-20T14:10:8Z</time></trkpt><trkpt lat="42.3723197077" lon="13.7700948143"><ele>1559.68</ele><time>2026-8-20T14:10:11Z</time></trkpt><trkpt lat="42.3724558633" lon="13.7701357640"><ele>1558.05</ele><time>2026-8-20T14:10:16Z</time></trkpt><trkpt lat="42.3725954932" lon="13.7701642793"><ele>1556.28</ele><time>2026-8-20T14:10:20Z</time></trkpt><trkpt lat="42.3727189377" lon="13.7701855553"><ele>1554.72</ele><time>2026-8-20T14:10:25Z</time></trkpt><trkpt lat="42.3728492763" lon="13.7702135090"><ele>1553.63</ele><time>2026-8-20T14:10:30Z</time></trkpt><trkpt lat="42.3729795101" lon="13.7702479516"><ele>1552.45</ele><time>2026-8-20T14:10:33Z</time></trkpt><trkpt lat="42.3731163656" lon="13.7702215067"><ele>1551.34</ele><time>2026-8-20T14:10:37Z</time></trkpt><trkpt lat="42.3732386436" lon="13.7701225374"><ele>1550.33</ele><time>2026-8-20T14:10:41Z</time></trkpt><trkpt lat="42.3733087722" lon="13.7699861638"><ele>1549.12</ele><time>2026-8-20T14:10:44Z</time></trkpt><trkpt lat="42.3733416712" lon="13.7698032288"><ele>1548.29</ele><time>2026-8-20T14:10:47Z</time></trkpt><trkpt lat="42.3733724188" lon="13.7696222775"><ele>1547.38</ele><time>2026-8-20T14:10:52Z</time></trkpt><trkpt lat="42.3733494843" lon="13.7694878717"><ele>1546.64</ele><time>2026-8-20T14:10:59Z</time></trkpt><trkpt lat="42.3732478079" lon="13.7693802640"><ele>1546.05</ele><time>2026-8-20T14:11:5Z</time></trkpt><trkpt lat="42.3731224565" lon="13.7693184894"><ele>1545.89</ele><time>2026-8-20T14:11:11Z</time></trkpt><trkpt lat="42.3729933053" lon="13.7692523282"><ele>1545.51</ele><time>2026-8-20T14:11:16Z</time></trkpt><trkpt lat="42.3729065876" lon="13.7691289885"><ele>1544.47</ele><time>2026-8-20T14:11:19Z</time></trkpt><trkpt lat="42.3728487105" lon="13.7689636555"><ele>1543.90</ele><time>2026-8-20T14:11:23Z</time></trkpt><trkpt lat="42.3728207219" lon="13.7687858474"><ele>1543.29</ele><time>2026-8-20T14:11:27Z</time></trkpt><trkpt lat="42.3728122073" lon="13.7686114479"><ele>1541.60</ele><time>2026-8-20T14:11:30Z</time></trkpt><trkpt lat="42.3728934154" lon="13.7684522755"><ele>1540.00</ele><time>2026-8-20T14:11:35Z</time></trkpt><trkpt lat="42.3729428044" lon="13.7682942348"><ele>1539.28</ele><time>2026-8-20T14:11:40Z</time></trkpt><trkpt lat="42.3729577800" lon="13.7680968968"><ele>1539.11</ele><time>2026-8-20T14:11:46Z</time></trkpt><trkpt lat="42.3729803693" lon="13.7679447723"><ele>1538.27</ele><time>2026-8-20T14:11:51Z</time></trkpt><trkpt lat="42.3730314150" lon="13.7677866351"><ele>1537.03</ele><time>2026-8-20T14:11:56Z</time></trkpt><trkpt lat="42.3730790103" lon="13.7676157895"><ele>1535.68</ele><time>2026-8-20T14:12:1Z</time></trkpt><trkpt lat="42.3731232388" lon="13.7677012989"><ele>1534.31</ele><time>2026-8-20T14:12:6Z</time></trkpt><trkpt lat="42.3731388962" lon="13.7678559870"><ele>1531.56</ele><time>2026-8-20T14:12:23Z</time></trkpt><trkpt lat="42.3731252085" lon="13.7678439003"><ele>1531.74</ele><time>2026-8-20T14:12:58Z</time></trkpt><trkpt lat="42.3731302656" lon="13.7679321505"><ele>1531.92</ele><time>2026-8-20T14:13:21Z</time></trkpt><trkpt lat="42.3731347639" lon="13.7681256328"><ele>1531.94</ele><time>2026-8-20T14:13:28Z</time></trkpt><trkpt lat="42.3731886805" lon="13.7682829192"><ele>1531.57</ele><time>2026-8-20T14:13:33Z</time></trkpt><trkpt lat="42.3732920755" lon="13.7683750615"><ele>1530.06</ele><time>2026-8-20T14:13:38Z</time></trkpt><trkpt lat="42.3734136718" lon="13.7684075162"><ele>1528.64</ele><time>2026-8-20T14:13:42Z</time></trkpt><trkpt lat="42.3735516798" lon="13.7683937699"><ele>1527.10</ele><time>2026-8-20T14:13:46Z</time></trkpt><trkpt lat="42.3736826386" lon="13.7683170419"><ele>1525.09</ele><time>2026-8-20T14:13:51Z</time></trkpt><trkpt lat="42.3737980868" lon="13.7682240782"><ele>1523.47</ele><time>2026-8-20T14:13:55Z</time></trkpt><trkpt lat="42.3739062483" lon="13.7681310531"><ele>1521.35</ele><time>2026-8-20T14:14:0Z</time></trkpt><trkpt lat="42.3740124609" lon="13.7679977250"><ele>1519.26</ele><time>2026-8-20T14:14:5Z</time></trkpt><trkpt lat="42.3741046339" lon="13.7678472977"><ele>1517.96</ele><time>2026-8-20T14:14:8Z</time></trkpt><trkpt lat="42.3742132634" lon="13.7677611457"><ele>1516.47</ele><time>2026-8-20T14:14:10Z</time></trkpt><trkpt lat="42.3743243515" lon="13.7676861696"><ele>1514.72</ele><time>2026-8-20T14:14:13Z</time></trkpt><trkpt lat="42.3744388484" lon="13.7675988302"><ele>1513.32</ele><time>2026-8-20T14:14:16Z</time></trkpt><trkpt lat="42.3745635012" lon="13.7675087038"><ele>1512.25</ele><time>2026-8-20T14:14:19Z</time></trkpt><trkpt lat="42.3746908084" lon="13.7674603053"><ele>1511.31</ele><time>2026-8-20T14:14:23Z</time></trkpt><trkpt lat="42.3748148996" lon="13.7674316950"><ele>1510.64</ele><time>2026-8-20T14:14:27Z</time></trkpt><trkpt lat="42.3749433774" lon="13.7673670538"><ele>1510.01</ele><time>2026-8-20T14:14:32Z</time></trkpt><trkpt lat="42.3750440777" lon="13.7672506878"><ele>1509.43</ele><time>2026-8-20T14:14:35Z</time></trkpt><trkpt lat="42.3751477618" lon="13.7671536673"><ele>1508.79</ele><time>2026-8-20T14:14:38Z</time></trkpt><trkpt lat="42.3752633650" lon="13.7669964731"><ele>1507.64</ele><time>2026-8-20T14:14:42Z</time></trkpt><trkpt lat="42.3753607669" lon="13.7669116817"><ele>1506.94</ele><time>2026-8-20T14:14:46Z</time></trkpt><trkpt lat="42.3755014781" lon="13.7668740749"><ele>1506.74</ele><time>2026-8-20T14:14:50Z</time></trkpt><trkpt lat="42.3756328644" lon="13.7668488803"><ele>1506.25</ele><time>2026-8-20T14:14:53Z</time></trkpt><trkpt lat="42.3757575034" lon="13.7668037438"><ele>1505.57</ele><time>2026-8-20T14:14:57Z</time></trkpt><trkpt lat="42.3758751573" lon="13.7667426048"><ele>1504.95</ele><time>2026-8-20T14:15:2Z</time></trkpt><trkpt lat="42.3760033864" lon="13.7666600570"><ele>1504.62</ele><time>2026-8-20T14:15:9Z</time></trkpt><trkpt lat="42.3761244398" lon="13.7665738631"><ele>1504.86</ele><time>2026-8-20T14:15:17Z</time></trkpt><trkpt lat="42.3762440393" lon="13.7664822852"><ele>1505.51</ele><time>2026-8-20T14:15:26Z</time></trkpt><trkpt lat="42.3763294341" lon="13.7663569590"><ele>1506.64</ele><time>2026-8-20T14:15:36Z</time></trkpt><trkpt lat="42.3764102510" lon="13.7662380352"><ele>1508.44</ele><time>2026-8-20T14:15:47Z</time></trkpt><trkpt lat="42.3765361318" lon="13.7661659354"><ele>1509.59</ele><time>2026-8-20T14:15:58Z</time></trkpt><trkpt lat="42.3766745720" lon="13.7661395408"><ele>1509.85</ele><time>2026-8-20T14:16:8Z</time></trkpt><trkpt lat="42.3768019471" lon="13.7661115201"><ele>1510.06</ele><time>2026-8-20T14:16:17Z</time></trkpt><trkpt lat="42.3769367766" lon="13.7660530210"><ele>1510.53</ele><time>2026-8-20T14:16:27Z</time></trkpt><trkpt lat="42.3770546905" lon="13.7660065886"><ele>1511.37</ele><time>2026-8-20T14:16:37Z</time></trkpt><trkpt lat="42.3771864753" lon="13.7659617439"><ele>1511.44</ele><time>2026-8-20T14:16:45Z</time></trkpt><trkpt lat="42.3772975164" lon="13.7658530474"><ele>1510.71</ele><time>2026-8-20T14:16:51Z</time></trkpt><trkpt lat="42.3773969701" lon="13.7657359187"><ele>1509.88</ele><time>2026-8-20T14:16:59Z</time></trkpt><trkpt lat="42.3774904917" lon="13.7656204735"><ele>1509.32</ele><time>2026-8-20T14:17:8Z</time></trkpt><trkpt lat="42.3775968030" lon="13.7654864062"><ele>1508.54</ele><time>2026-8-20T14:17:14Z</time></trkpt><trkpt lat="42.3776784930" lon="13.7653570231"><ele>1508.46</ele><time>2026-8-20T14:17:19Z</time></trkpt><trkpt lat="42.3777529914" lon="13.7652068697"><ele>1508.89</ele><time>2026-8-20T14:17:24Z</time></trkpt><trkpt lat="42.3778247321" lon="13.7650530087"><ele>1510.20</ele><time>2026-8-20T14:17:29Z</time></trkpt><trkpt lat="42.3778950814" lon="13.7648891956"><ele>1509.57</ele><time>2026-8-20T14:17:35Z</time></trkpt><trkpt lat="42.3779501433" lon="13.7647332012"><ele>1508.82</ele><time>2026-8-20T14:17:41Z</time></trkpt><trkpt lat="42.3780163110" lon="13.7645645603"><ele>1509.04</ele><time>2026-8-20T14:17:48Z</time></trkpt><trkpt lat="42.3781167796" lon="13.7643918342"><ele>1509.90</ele><time>2026-8-20T14:18:3Z</time></trkpt><trkpt lat="42.3781321211" lon="13.7643525566"><ele>1509.64</ele><time>2026-8-20T14:18:28Z</time></trkpt><trkpt lat="42.3781890515" lon="13.7641517096"><ele>1510.10</ele><time>2026-8-20T14:18:44Z</time></trkpt><trkpt lat="42.3782376945" lon="13.7639703043"><ele>1509.66</ele><time>2026-8-20T14:18:49Z</time></trkpt><trkpt lat="42.3782766843" lon="13.7637891015"><ele>1509.27</ele><time>2026-8-20T14:18:55Z</time></trkpt><trkpt lat="42.3783534565" lon="13.7636499120"><ele>1508.89</ele><time>2026-8-20T14:19:2Z</time></trkpt><trkpt lat="42.3784729571" lon="13.7635788904"><ele>1508.28</ele><time>2026-8-20T14:19:9Z</time></trkpt><trkpt lat="42.3785972875" lon="13.7635314558"><ele>1508.19</ele><time>2026-8-20T14:19:18Z</time></trkpt><trkpt lat="42.3787277564" lon="13.7634687228"><ele>1508.83</ele><time>2026-8-20T14:19:27Z</time></trkpt><trkpt lat="42.3788493592" lon="13.7633905094"><ele>1510.04</ele><time>2026-8-20T14:19:37Z</time></trkpt><trkpt lat="42.3789496170" lon="13.7632846143"><ele>1511.71</ele><time>2026-8-20T14:19:46Z</time></trkpt><trkpt lat="42.3790235157" lon="13.7631406025"><ele>1513.91</ele><time>2026-8-20T14:20:2Z</time></trkpt><trkpt lat="42.3791010966" lon="13.7630383636"><ele>1515.73</ele><time>2026-8-20T14:20:30Z</time></trkpt><trkpt lat="42.3791987236" lon="13.7630039427"><ele>1515.94</ele><time>2026-8-20T14:20:50Z</time></trkpt><trkpt lat="42.3793319959" lon="13.7629755400"><ele>1515.80</ele><time>2026-8-20T14:20:57Z</time></trkpt><trkpt lat="42.3794591194" lon="13.7629097281"><ele>1515.68</ele><time>2026-8-20T14:21:3Z</time></trkpt><trkpt lat="42.3795724986" lon="13.7628101371"><ele>1515.81</ele><time>2026-8-20T14:21:9Z</time></trkpt><trkpt lat="42.3796759872" lon="13.7626790023"><ele>1515.88</ele><time>2026-8-20T14:21:15Z</time></trkpt><trkpt lat="42.3797637457" lon="13.7625394156"><ele>1516.15</ele><time>2026-8-20T14:21:21Z</time></trkpt><trkpt lat="42.3798219636" lon="13.7623886056"><ele>1516.59</ele><time>2026-8-20T14:21:27Z</time></trkpt><trkpt lat="42.3798324075" lon="13.7622198416"><ele>1517.01</ele><time>2026-8-20T14:21:32Z</time></trkpt><trkpt lat="42.3798243848" lon="13.7620369584"><ele>1517.35</ele><time>2026-8-20T14:21:39Z</time></trkpt><trkpt lat="42.3798373423" lon="13.7618579075"><ele>1518.27</ele><time>2026-8-20T14:21:46Z</time></trkpt><trkpt lat="42.3799269673" lon="13.7617275584"><ele>1518.96</ele><time>2026-8-20T14:21:54Z</time></trkpt><trkpt lat="42.3800549318" lon="13.7616460787"><ele>1518.98</ele><time>2026-8-20T14:22:3Z</time></trkpt><trkpt lat="42.3801651271" lon="13.7615546084"><ele>1519.97</ele><time>2026-8-20T14:22:12Z</time></trkpt><trkpt lat="42.3802845596" lon="13.7614875136"><ele>1521.35</ele><time>2026-8-20T14:22:23Z</time></trkpt><trkpt lat="42.3804096691" lon="13.7614497543"><ele>1521.81</ele><time>2026-8-20T14:22:32Z</time></trkpt><trkpt lat="42.3805505186" lon="13.7614160869"><ele>1521.73</ele><time>2026-8-20T14:22:38Z</time></trkpt><trkpt lat="42.3806856613" lon="13.7613729081"><ele>1521.63</ele><time>2026-8-20T14:22:44Z</time></trkpt><trkpt lat="42.3808177980" lon="13.7613312062"><ele>1521.68</ele><time>2026-8-20T14:22:50Z</time></trkpt><trkpt lat="42.3809362442" lon="13.7612663382"><ele>1521.57</ele><time>2026-8-20T14:22:57Z</time></trkpt><trkpt lat="42.3810557527" lon="13.7611900657"><ele>1521.75</ele><time>2026-8-20T14:23:20Z</time></trkpt><trkpt lat="42.3811128270" lon="13.7611294049"><ele>1521.89</ele><time>2026-8-20T14:23:43Z</time></trkpt><trkpt lat="42.3812320057" lon="13.7610541923"><ele>1522.25</ele><time>2026-8-20T14:23:51Z</time></trkpt><trkpt lat="42.3813514283" lon="13.7609748845"><ele>1522.83</ele><time>2026-8-20T14:23:58Z</time></trkpt><trkpt lat="42.3814585526" lon="13.7608616240"><ele>1523.90</ele><time>2026-8-20T14:24:7Z</time></trkpt><trkpt lat="42.3815421166" lon="13.7607322598"><ele>1525.07</ele><time>2026-8-20T14:24:15Z</time></trkpt><trkpt lat="42.3816617369" lon="13.7606318656"><ele>1525.32</ele><time>2026-8-20T14:24:23Z</time></trkpt><trkpt lat="42.3817592030" lon="13.7606295655"><ele>1523.99</ele><time>2026-8-20T14:24:42Z</time></trkpt><trkpt lat="42.3818046274" lon="13.7607253762"><ele>1524.26</ele><time>2026-8-20T14:25:0Z</time></trkpt><trkpt lat="42.3819146818" lon="13.7608390348"><ele>1523.67</ele><time>2026-8-20T14:25:5Z</time></trkpt><trkpt lat="42.3820461729" lon="13.7609266676"><ele>1523.39</ele><time>2026-8-20T14:25:9Z</time></trkpt><trkpt lat="42.3821752053" lon="13.7609929126"><ele>1523.17</ele><time>2026-8-20T14:25:13Z</time></trkpt><trkpt lat="42.3822949827" lon="13.7610677909"><ele>1522.87</ele><time>2026-8-20T14:25:16Z</time></trkpt><trkpt lat="42.3824160034" lon="13.7611365086"><ele>1522.55</ele><time>2026-8-20T14:25:18Z</time></trkpt><trkpt lat="42.3825234175" lon="13.7611983670"><ele>1522.03</ele><time>2026-8-20T14:25:20Z</time></trkpt><trkpt lat="42.3826606292" lon="13.7612990476"><ele>1521.44</ele><time>2026-8-20T14:25:23Z</time></trkpt><trkpt lat="42.3827969190" lon="13.7613636581"><ele>1520.73</ele><time>2026-8-20T14:25:25Z</time></trkpt><trkpt lat="42.3829151457" lon="13.7613468105"><ele>1520.15</ele><time>2026-8-20T14:25:27Z</time></trkpt><trkpt lat="42.3830360547" lon="13.7613066612"><ele>1519.62</ele><time>2026-8-20T14:25:29Z</time></trkpt><trkpt lat="42.3831668543" lon="13.7612646259"><ele>1518.95</ele><time>2026-8-20T14:25:31Z</time></trkpt><trkpt lat="42.3832850392" lon="13.7612037314"><ele>1518.31</ele><time>2026-8-20T14:25:33Z</time></trkpt><trkpt lat="42.3834316525" lon="13.7611442897"><ele>1517.53</ele><time>2026-8-20T14:25:36Z</time></trkpt><trkpt lat="42.3835884221" lon="13.7611238938"><ele>1516.86</ele><time>2026-8-20T14:25:38Z</time></trkpt><trkpt lat="42.3837243347" lon="13.7611313956"><ele>1516.39</ele><time>2026-8-20T14:25:40Z</time></trkpt><trkpt lat="42.3838632647" lon="13.7611432560"><ele>1515.81</ele><time>2026-8-20T14:25:42Z</time></trkpt><trkpt lat="42.3840016499" lon="13.7611298869"><ele>1514.99</ele><time>2026-8-20T14:25:44Z</time></trkpt><trkpt lat="42.3841066752" lon="13.7610903662"><ele>1514.47</ele><time>2026-8-20T14:25:46Z</time></trkpt><trkpt lat="42.3842128739" lon="13.7610381050"><ele>1513.78</ele><time>2026-8-20T14:25:47Z</time></trkpt><trkpt lat="42.3843597668" lon="13.7609596085"><ele>1512.69</ele><time>2026-8-20T14:25:49Z</time></trkpt><trkpt lat="42.3844732996" lon="13.7608905416"><ele>1511.76</ele><time>2026-8-20T14:25:51Z</time></trkpt><trkpt lat="42.3845802527" lon="13.7608090276"><ele>1510.83</ele><time>2026-8-20T14:25:52Z</time></trkpt><trkpt lat="42.3847115133" lon="13.7607111689"><ele>1509.40</ele><time>2026-8-20T14:25:54Z</time></trkpt><trkpt lat="42.3848390859" lon="13.7606325048"><ele>1507.99</ele><time>2026-8-20T14:25:56Z</time></trkpt><trkpt lat="42.3849618389" lon="13.7605721970"><ele>1507.06</ele><time>2026-8-20T14:25:58Z</time></trkpt><trkpt lat="42.3850742318" lon="13.7604799290"><ele>1505.60</ele><time>2026-8-20T14:26:2Z</time></trkpt><trkpt lat="42.3850410479" lon="13.7603483582"><ele>1504.00</ele><time>2026-8-20T14:26:5Z</time></trkpt><trkpt lat="42.3849374056" lon="13.7603622303"><ele>1503.05</ele><time>2026-8-20T14:26:7Z</time></trkpt><trkpt lat="42.3848047201" lon="13.7604470970"><ele>1502.53</ele><time>2026-8-20T14:26:9Z</time></trkpt><trkpt lat="42.3846824281" lon="13.7605454587"><ele>1502.06</ele><time>2026-8-20T14:26:11Z</time></trkpt><trkpt lat="42.3845675542" lon="13.7606386654"><ele>1501.64</ele><time>2026-8-20T14:26:13Z</time></trkpt><trkpt lat="42.3844333599" lon="13.7607105822"><ele>1501.18</ele><time>2026-8-20T14:26:15Z</time></trkpt><trkpt lat="42.3842929211" lon="13.7607379491"><ele>1500.73</ele><time>2026-8-20T14:26:17Z</time></trkpt><trkpt lat="42.3841129616" lon="13.7607455347"><ele>1500.33</ele><time>2026-8-20T14:26:20Z</time></trkpt><trkpt lat="42.3839418031" lon="13.7606829638"><ele>1499.92</ele><time>2026-8-20T14:26:22Z</time></trkpt><trkpt lat="42.3838281445" lon="13.7606093707"><ele>1499.59</ele><time>2026-8-20T14:26:24Z</time></trkpt><trkpt lat="42.3837320041" lon="13.7605415611"><ele>1499.03</ele><time>2026-8-20T14:26:26Z</time></trkpt><trkpt lat="42.3836065549" lon="13.7604794092"><ele>1498.24</ele><time>2026-8-20T14:26:29Z</time></trkpt><trkpt lat="42.3834717041" lon="13.7604489411"><ele>1497.38</ele><time>2026-8-20T14:26:31Z</time></trkpt><trkpt lat="42.3833330674" lon="13.7604298094"><ele>1496.67</ele><time>2026-8-20T14:26:34Z</time></trkpt><trkpt lat="42.3831943888" lon="13.7603702769"><ele>1495.60</ele><time>2026-8-20T14:26:38Z</time></trkpt><trkpt lat="42.3831454050" lon="13.7601960506"><ele>1493.40</ele><time>2026-8-20T14:26:44Z</time></trkpt><trkpt lat="42.3831667107" lon="13.7601069326"><ele>1490.70</ele><time>2026-8-20T14:27:20Z</time></trkpt><trkpt lat="42.3832010725" lon="13.7600416042"><ele>1489.41</ele><time>2026-8-20T14:28:2Z</time></trkpt><trkpt lat="42.3833510047" lon="13.7600114790"><ele>1487.95</ele><time>2026-8-20T14:28:17Z</time></trkpt><trkpt lat="42.3834746964" lon="13.7599621872"><ele>1485.36</ele><time>2026-8-20T14:28:26Z</time></trkpt><trkpt lat="42.3836014001" lon="13.7599130720"><ele>1483.26</ele><time>2026-8-20T14:28:34Z</time></trkpt><trkpt lat="42.3837316209" lon="13.7598796122"><ele>1481.49</ele><time>2026-8-20T14:28:41Z</time></trkpt><trkpt lat="42.3838595348" lon="13.7598114135"><ele>1479.59</ele><time>2026-8-20T14:28:48Z</time></trkpt><trkpt lat="42.3839650713" lon="13.7597288098"><ele>1477.54</ele><time>2026-8-20T14:28:55Z</time></trkpt><trkpt lat="42.3840688169" lon="13.7596355612"><ele>1474.85</ele><time>2026-8-20T14:29:3Z</time></trkpt><trkpt lat="42.3841778934" lon="13.7595555838"><ele>1473.12</ele><time>2026-8-20T14:29:12Z</time></trkpt><trkpt lat="42.3842848535" lon="13.7594689918"><ele>1471.94</ele><time>2026-8-20T14:29:17Z</time></trkpt><trkpt lat="42.3843900254" lon="13.7593665859"><ele>1470.74</ele><time>2026-8-20T14:29:21Z</time></trkpt><trkpt lat="42.3845085036" lon="13.7592717866"><ele>1469.46</ele><time>2026-8-20T14:29:25Z</time></trkpt><trkpt lat="42.3846290773" lon="13.7591823098"><ele>1468.01</ele><time>2026-8-20T14:29:29Z</time></trkpt><trkpt lat="42.3847514782" lon="13.7590749375"><ele>1467.24</ele><time>2026-8-20T14:29:34Z</time></trkpt><trkpt lat="42.3848535626" lon="13.7589908192"><ele>1466.61</ele><time>2026-8-20T14:29:40Z</time></trkpt><trkpt lat="42.3849386210" lon="13.7588500790"><ele>1466.53</ele><time>2026-8-20T14:29:46Z</time></trkpt><trkpt lat="42.3850074643" lon="13.7586879870"><ele>1466.68</ele><time>2026-8-20T14:29:52Z</time></trkpt><trkpt lat="42.3850822569" lon="13.7585417048"><ele>1466.99</ele><time>2026-8-20T14:29:59Z</time></trkpt><trkpt lat="42.3851877012" lon="13.7584196164"><ele>1466.86</ele><time>2026-8-20T14:30:6Z</time></trkpt><trkpt lat="42.3852822958" lon="13.7582912045"><ele>1467.21</ele><time>2026-8-20T14:30:14Z</time></trkpt><trkpt lat="42.3853608314" lon="13.7581785908"><ele>1467.67</ele><time>2026-8-20T14:30:22Z</time></trkpt><trkpt lat="42.3854684830" lon="13.7580468832"><ele>1467.31</ele><time>2026-8-20T14:30:28Z</time></trkpt><trkpt lat="42.3855636679" lon="13.7579028290"><ele>1465.90</ele><time>2026-8-20T14:30:34Z</time></trkpt><trkpt lat="42.3856605627" lon="13.7577807550"><ele>1464.50</ele><time>2026-8-20T14:30:39Z</time></trkpt><trkpt lat="42.3857461754" lon="13.7576664425"><ele>1463.36</ele><time>2026-8-20T14:30:43Z</time></trkpt><trkpt lat="42.3858397175" lon="13.7575504203"><ele>1462.32</ele><time>2026-8-20T14:30:48Z</time></trkpt><trkpt lat="42.3859475255" lon="13.7574369460"><ele>1460.95</ele><time>2026-8-20T14:30:53Z</time></trkpt><trkpt lat="42.3860559873" lon="13.7573246453"><ele>1459.61</ele><time>2026-8-20T14:30:58Z</time></trkpt><trkpt lat="42.3861639630" lon="13.7572283037"><ele>1458.37</ele><time>2026-8-20T14:31:3Z</time></trkpt><trkpt lat="42.3862787113" lon="13.7571196742"><ele>1457.05</ele><time>2026-8-20T14:31:8Z</time></trkpt><trkpt lat="42.3864045739" lon="13.7570328335"><ele>1455.98</ele><time>2026-8-20T14:31:12Z</time></trkpt><trkpt lat="42.3865297325" lon="13.7569884304"><ele>1454.52</ele><time>2026-8-20T14:31:17Z</time></trkpt><trkpt lat="42.3866738342" lon="13.7569687329"><ele>1453.07</ele><time>2026-8-20T14:31:22Z</time></trkpt><trkpt lat="42.3868083721" lon="13.7569316640"><ele>1451.98</ele><time>2026-8-20T14:31:26Z</time></trkpt><trkpt lat="42.3869359447" lon="13.7568799267"><ele>1451.04</ele><time>2026-8-20T14:31:30Z</time></trkpt><trkpt lat="42.3870568033" lon="13.7568036765"><ele>1450.15</ele><time>2026-8-20T14:31:35Z</time></trkpt><trkpt lat="42.3871666901" lon="13.7566977125"><ele>1449.04</ele><time>2026-8-20T14:31:40Z</time></trkpt><trkpt lat="42.3872910201" lon="13.7566336364"><ele>1447.84</ele><time>2026-8-20T14:31:46Z</time></trkpt><trkpt lat="42.3874117554" lon="13.7565713948"><ele>1447.13</ele><time>2026-8-20T14:31:53Z</time></trkpt><trkpt lat="42.3875385477" lon="13.7565054931"><ele>1446.81</ele><time>2026-8-20T14:31:59Z</time></trkpt><trkpt lat="42.3876623623" lon="13.7564440617"><ele>1447.06</ele><time>2026-8-20T14:32:6Z</time></trkpt><trkpt lat="42.3877617559" lon="13.7564140906"><ele>1447.13</ele><time>2026-8-20T14:32:52Z</time></trkpt><trkpt lat="42.3877600509" lon="13.7564030169"><ele>1447.64</ele><time>2026-8-20T14:34:0Z</time></trkpt><trkpt lat="42.3877879053" lon="13.7563816106"><ele>1447.80</ele><time>2026-8-20T14:34:32Z</time></trkpt><trkpt lat="42.3879307389" lon="13.7562916548"><ele>1447.41</ele><time>2026-8-20T14:34:43Z</time></trkpt><trkpt lat="42.3880431043" lon="13.7561981965"><ele>1446.88</ele><time>2026-8-20T14:34:50Z</time></trkpt><trkpt lat="42.3881679827" lon="13.7561135154"><ele>1446.90</ele><time>2026-8-20T14:34:57Z</time></trkpt><trkpt lat="42.3882853173" lon="13.7560392278"><ele>1447.01</ele><time>2026-8-20T14:35:4Z</time></trkpt><trkpt lat="42.3884079326" lon="13.7559760402"><ele>1446.85</ele><time>2026-8-20T14:35:11Z</time></trkpt><trkpt lat="42.3885236986" lon="13.7558938975"><ele>1446.94</ele><time>2026-8-20T14:35:18Z</time></trkpt><trkpt lat="42.3886502175" lon="13.7558097552"><ele>1447.11</ele><time>2026-8-20T14:35:25Z</time></trkpt><trkpt lat="42.3887772752" lon="13.7557458492"><ele>1447.39</ele><time>2026-8-20T14:35:32Z</time></trkpt><trkpt lat="42.3888952205" lon="13.7556725315"><ele>1447.57</ele><time>2026-8-20T14:35:39Z</time></trkpt><trkpt lat="42.3890188296" lon="13.7555943283"><ele>1447.77</ele><time>2026-8-20T14:35:46Z</time></trkpt><trkpt lat="42.3891317818" lon="13.7555000080"><ele>1447.90</ele><time>2026-8-20T14:35:53Z</time></trkpt><trkpt lat="42.3892363400" lon="13.7553735610"><ele>1448.14</ele><time>2026-8-20T14:36:0Z</time></trkpt><trkpt lat="42.3893561633" lon="13.7552819867"><ele>1448.55</ele><time>2026-8-20T14:36:6Z</time></trkpt><trkpt lat="42.3894763019" lon="13.7552186993"><ele>1448.52</ele><time>2026-8-20T14:36:13Z</time></trkpt><trkpt lat="42.3896114541" lon="13.7551647438"><ele>1448.84</ele><time>2026-8-20T14:36:20Z</time></trkpt><trkpt lat="42.3897331714" lon="13.7551123330"><ele>1449.18</ele><time>2026-8-20T14:36:27Z</time></trkpt><trkpt lat="42.3898620132" lon="13.7550673940"><ele>1449.06</ele><time>2026-8-20T14:36:34Z</time></trkpt><trkpt lat="42.3899892205" lon="13.7550019089"><ele>1449.20</ele><time>2026-8-20T14:36:41Z</time></trkpt><trkpt lat="42.3901069803" lon="13.7549002588"><ele>1449.19</ele><time>2026-8-20T14:36:49Z</time></trkpt><trkpt lat="42.3902265182" lon="13.7548223790"><ele>1449.30</ele><time>2026-8-20T14:36:56Z</time></trkpt><trkpt lat="42.3903526913" lon="13.7547794531"><ele>1450.23</ele><time>2026-8-20T14:37:3Z</time></trkpt><trkpt lat="42.3904889287" lon="13.7547448045"><ele>1450.84</ele><time>2026-8-20T14:37:11Z</time></trkpt><trkpt lat="42.3906136544" lon="13.7546828921"><ele>1451.02</ele><time>2026-8-20T14:37:19Z</time></trkpt><trkpt lat="42.3907285253" lon="13.7546277198"><ele>1451.49</ele><time>2026-8-20T14:37:26Z</time></trkpt><trkpt lat="42.3908576486" lon="13.7545690150"><ele>1451.92</ele><time>2026-8-20T14:37:34Z</time></trkpt><trkpt lat="42.3909779603" lon="13.7544894393"><ele>1452.27</ele><time>2026-8-20T14:37:42Z</time></trkpt><trkpt lat="42.3911051767" lon="13.7544154271"><ele>1452.38</ele><time>2026-8-20T14:37:50Z</time></trkpt><trkpt lat="42.3912322029" lon="13.7543626555"><ele>1452.57</ele><time>2026-8-20T14:37:58Z</time></trkpt><trkpt lat="42.3913590750" lon="13.7542899081"><ele>1452.74</ele><time>2026-8-20T14:38:5Z</time></trkpt><trkpt lat="42.3914730165" lon="13.7541865697"><ele>1453.23</ele><time>2026-8-20T14:38:13Z</time></trkpt><trkpt lat="42.3915792376" lon="13.7540697320"><ele>1453.60</ele><time>2026-8-20T14:38:21Z</time></trkpt><trkpt lat="42.3916772311" lon="13.7539457681"><ele>1454.20</ele><time>2026-8-20T14:38:28Z</time></trkpt><trkpt lat="42.3917709916" lon="13.7538227652"><ele>1454.79</ele><time>2026-8-20T14:38:36Z</time></trkpt><trkpt lat="42.3918614862" lon="13.7536942167"><ele>1455.37</ele><time>2026-8-20T14:38:43Z</time></trkpt><trkpt lat="42.3919667839" lon="13.7535700912"><ele>1455.93</ele><time>2026-8-20T14:38:51Z</time></trkpt><trkpt lat="42.3920679385" lon="13.7534569909"><ele>1456.13</ele><time>2026-8-20T14:38:59Z</time></trkpt><trkpt lat="42.3921728539" lon="13.7533266101"><ele>1456.23</ele><time>2026-8-20T14:39:14Z</time></trkpt><trkpt lat="42.3921351303" lon="13.7532143835"><ele>1456.67</ele><time>2026-8-20T14:39:33Z</time></trkpt><trkpt lat="42.3920894058" lon="13.7530779932"><ele>1457.60</ele><time>2026-8-20T14:40:6Z</time></trkpt><trkpt lat="42.3920868595" lon="13.7529728927"><ele>1458.42</ele><time>2026-8-20T14:40:38Z</time></trkpt><trkpt lat="42.3922126181" lon="13.7528767995"><ele>1458.33</ele><time>2026-8-20T14:40:47Z</time></trkpt><trkpt lat="42.3923326330" lon="13.7527790666"><ele>1458.67</ele><time>2026-8-20T14:40:53Z</time></trkpt><trkpt lat="42.3924430366" lon="13.7527117599"><ele>1458.94</ele><time>2026-8-20T14:40:58Z</time></trkpt><trkpt lat="42.3925834615" lon="13.7526773997"><ele>1458.75</ele><time>2026-8-20T14:41:2Z</time></trkpt><trkpt lat="42.3927209582" lon="13.7526419274"><ele>1458.02</ele><time>2026-8-20T14:41:7Z</time></trkpt><trkpt lat="42.3928435855" lon="13.7526254654"><ele>1457.50</ele><time>2026-8-20T14:41:12Z</time></trkpt><trkpt lat="42.3929710574" lon="13.7525908816"><ele>1457.36</ele><time>2026-8-20T14:41:17Z</time></trkpt><trkpt lat="42.3931105295" lon="13.7525335327"><ele>1457.48</ele><time>2026-8-20T14:41:22Z</time></trkpt><trkpt lat="42.3932276443" lon="13.7524517421"><ele>1457.50</ele><time>2026-8-20T14:41:28Z</time></trkpt><trkpt lat="42.3933400959" lon="13.7523736758"><ele>1457.32</ele><time>2026-8-20T14:41:33Z</time></trkpt><trkpt lat="42.3934742542" lon="13.7522959177"><ele>1457.44</ele><time>2026-8-20T14:41:40Z</time></trkpt><trkpt lat="42.3936038744" lon="13.7522268053"><ele>1457.60</ele><time>2026-8-20T14:41:46Z</time></trkpt><trkpt lat="42.3937269375" lon="13.7521493565"><ele>1457.93</ele><time>2026-8-20T14:41:51Z</time></trkpt><trkpt lat="42.3938332451" lon="13.7520500366"><ele>1458.46</ele><time>2026-8-20T14:41:56Z</time></trkpt><trkpt lat="42.3939424893" lon="13.7519285968"><ele>1459.04</ele><time>2026-8-20T14:42:2Z</time></trkpt><trkpt lat="42.3940459080" lon="13.7518164469"><ele>1459.44</ele><time>2026-8-20T14:42:8Z</time></trkpt><trkpt lat="42.3941477641" lon="13.7517002997"><ele>1459.92</ele><time>2026-8-20T14:42:15Z</time></trkpt><trkpt lat="42.3942479159" lon="13.7515789656"><ele>1460.26</ele><time>2026-8-20T14:42:22Z</time></trkpt><trkpt lat="42.3943462116" lon="13.7514582423"><ele>1460.65</ele><time>2026-8-20T14:42:29Z</time></trkpt><trkpt lat="42.3944386760" lon="13.7513385128"><ele>1461.05</ele><time>2026-8-20T14:42:36Z</time></trkpt><trkpt lat="42.3945339932" lon="13.7512054935"><ele>1461.75</ele><time>2026-8-20T14:42:43Z</time></trkpt><trkpt lat="42.3946367204" lon="13.7510716543"><ele>1462.65</ele><time>2026-8-20T14:42:52Z</time></trkpt><trkpt lat="42.3947348539" lon="13.7509550061"><ele>1463.40</ele><time>2026-8-20T14:43:1Z</time></trkpt><trkpt lat="42.3948360500" lon="13.7508527815"><ele>1463.90</ele><time>2026-8-20T14:43:9Z</time></trkpt><trkpt lat="42.3949539475" lon="13.7507513125"><ele>1463.99</ele><time>2026-8-20T14:43:16Z</time></trkpt><trkpt lat="42.3950691747" lon="13.7506501550"><ele>1464.23</ele><time>2026-8-20T14:43:23Z</time></trkpt><trkpt lat="42.3951795404" lon="13.7505412980"><ele>1464.58</ele><time>2026-8-20T14:43:30Z</time></trkpt><trkpt lat="42.3952765810" lon="13.7504310301"><ele>1464.50</ele><time>2026-8-20T14:43:36Z</time></trkpt><trkpt lat="42.3953709612" lon="13.7503192993"><ele>1464.53</ele><time>2026-8-20T14:43:42Z</time></trkpt><trkpt lat="42.3954732344" lon="13.7501876196"><ele>1464.64</ele><time>2026-8-20T14:43:48Z</time></trkpt><trkpt lat="42.3955695564" lon="13.7500562752"><ele>1464.77</ele><time>2026-8-20T14:43:54Z</time></trkpt><trkpt lat="42.3956676945" lon="13.7499250425"><ele>1465.16</ele><time>2026-8-20T14:44:0Z</time></trkpt><trkpt lat="42.3957638210" lon="13.7497934327"><ele>1465.26</ele><time>2026-8-20T14:44:6Z</time></trkpt><trkpt lat="42.3958669044" lon="13.7496890500"><ele>1465.17</ele><time>2026-8-20T14:44:12Z</time></trkpt><trkpt lat="42.3960099715" lon="13.7496078773"><ele>1464.66</ele><time>2026-8-20T14:44:19Z</time></trkpt><trkpt lat="42.3961143289" lon="13.7495384552"><ele>1465.16</ele><time>2026-8-20T14:44:27Z</time></trkpt><trkpt lat="42.3962105997" lon="13.7494147196"><ele>1466.26</ele><time>2026-8-20T14:44:36Z</time></trkpt><trkpt lat="42.3963223211" lon="13.7493094802"><ele>1466.36</ele><time>2026-8-20T14:44:45Z</time></trkpt><trkpt lat="42.3964353531" lon="13.7492156641"><ele>1466.52</ele><time>2026-8-20T14:44:53Z</time></trkpt><trkpt lat="42.3965468025" lon="13.7491270434"><ele>1466.94</ele><time>2026-8-20T14:45:0Z</time></trkpt><trkpt lat="42.3966818833" lon="13.7490282788"><ele>1466.97</ele><time>2026-8-20T14:45:11Z</time></trkpt><trkpt lat="42.3967595009" lon="13.7489536980"><ele>1466.89</ele><time>2026-8-20T14:45:23Z</time></trkpt><trkpt lat="42.3968674761" lon="13.7488387539"><ele>1466.55</ele><time>2026-8-20T14:45:32Z</time></trkpt><trkpt lat="42.3969686218" lon="13.7487143465"><ele>1466.76</ele><time>2026-8-20T14:45:38Z</time></trkpt><trkpt lat="42.3970729046" lon="13.7485901466"><ele>1467.25</ele><time>2026-8-20T14:45:45Z</time></trkpt><trkpt lat="42.3971766327" lon="13.7484745402"><ele>1467.44</ele><time>2026-8-20T14:45:51Z</time></trkpt><trkpt lat="42.3972885231" lon="13.7483556449"><ele>1467.56</ele><time>2026-8-20T14:45:58Z</time></trkpt><trkpt lat="42.3973800195" lon="13.7482324289"><ele>1468.03</ele><time>2026-8-20T14:46:4Z</time></trkpt><trkpt lat="42.3974567000" lon="13.7480880466"><ele>1468.37</ele><time>2026-8-20T14:46:11Z</time></trkpt><trkpt lat="42.3975352504" lon="13.7479316523"><ele>1468.88</ele><time>2026-8-20T14:46:18Z</time></trkpt><trkpt lat="42.3976134975" lon="13.7477843743"><ele>1469.30</ele><time>2026-8-20T14:46:24Z</time></trkpt><trkpt lat="42.3976955842" lon="13.7476343522"><ele>1469.61</ele><time>2026-8-20T14:46:30Z</time></trkpt><trkpt lat="42.3977803951" lon="13.7474928377"><ele>1470.06</ele><time>2026-8-20T14:46:36Z</time></trkpt><trkpt lat="42.3978668125" lon="13.7473594397"><ele>1470.41</ele><time>2026-8-20T14:46:42Z</time></trkpt><trkpt lat="42.3979419122" lon="13.7472067139"><ele>1470.23</ele><time>2026-8-20T14:46:58Z</time></trkpt><trkpt lat="42.3979302239" lon="13.7472011268"><ele>1469.86</ele><time>2026-8-20T14:47:24Z</time></trkpt><trkpt lat="42.3979804642" lon="13.7470141018"><ele>1469.99</ele><time>2026-8-20T14:47:40Z</time></trkpt><trkpt lat="42.3980355652" lon="13.7468228181"><ele>1470.20</ele><time>2026-8-20T14:47:56Z</time></trkpt><trkpt lat="42.3980380028" lon="13.7468124812"><ele>1469.83</ele><time>2026-8-20T14:48:38Z</time></trkpt><trkpt lat="42.3980487163" lon="13.7468156070"><ele>1470.04</ele><time>2026-8-20T14:49:58Z</time></trkpt><trkpt lat="42.3980496874" lon="13.7468062067"><ele>1469.99</ele><time>2026-8-20T14:51:44Z</time></trkpt><trkpt lat="42.3980448053" lon="13.7468017887"><ele>1470.27</ele><time>2026-8-20T14:53:3Z</time></trkpt><trkpt lat="42.3981276015" lon="13.7466628337"><ele>1470.58</ele><time>2026-8-20T14:53:29Z</time></trkpt><trkpt lat="42.3982016556" lon="13.7465086905"><ele>1470.98</ele><time>2026-8-20T14:53:35Z</time></trkpt><trkpt lat="42.3982716026" lon="13.7463524798"><ele>1471.11</ele><time>2026-8-20T14:53:41Z</time></trkpt><trkpt lat="42.3983402244" lon="13.7461873423"><ele>1471.19</ele><time>2026-8-20T14:53:48Z</time></trkpt><trkpt lat="42.3983814335" lon="13.7460197567"><ele>1471.21</ele><time>2026-8-20T14:53:55Z</time></trkpt><trkpt lat="42.3983999854" lon="13.7458409183"><ele>1471.33</ele><time>2026-8-20T14:54:2Z</time></trkpt><trkpt lat="42.3984467824" lon="13.7456740585"><ele>1471.41</ele><time>2026-8-20T14:54:9Z</time></trkpt><trkpt lat="42.3985102074" lon="13.7455149461"><ele>1471.30</ele><time>2026-8-20T14:54:15Z</time></trkpt><trkpt lat="42.3985823896" lon="13.7453730524"><ele>1471.58</ele><time>2026-8-20T14:54:22Z</time></trkpt><trkpt lat="42.3986555636" lon="13.7452171490"><ele>1472.31</ele><time>2026-8-20T14:54:29Z</time></trkpt><trkpt lat="42.3987081780" lon="13.7450446495"><ele>1473.12</ele><time>2026-8-20T14:54:36Z</time></trkpt><trkpt lat="42.3987497981" lon="13.7448202867"><ele>1474.31</ele><time>2026-8-20T14:54:51Z</time></trkpt><trkpt lat="42.3987546050" lon="13.7448036506"><ele>1473.51</ele><time>2026-8-20T14:55:43Z</time></trkpt><trkpt lat="42.3987649530" lon="13.7446693014"><ele>1473.43</ele><time>2026-8-20T14:56:32Z</time></trkpt><trkpt lat="42.3987700359" lon="13.7445569923"><ele>1473.68</ele><time>2026-8-20T14:56:51Z</time></trkpt><trkpt lat="42.3987621814" lon="13.7443689816"><ele>1473.87</ele><time>2026-8-20T14:57:8Z</time></trkpt><trkpt lat="42.3987598345" lon="13.7441844656"><ele>1474.13</ele><time>2026-8-20T14:57:16Z</time></trkpt><trkpt lat="42.3987516202" lon="13.7440099544"><ele>1474.52</ele><time>2026-8-20T14:57:24Z</time></trkpt><trkpt lat="42.3987414152" lon="13.7438358518"><ele>1474.71</ele><time>2026-8-20T14:57:32Z</time></trkpt><trkpt lat="42.3987267113" lon="13.7436175996"><ele>1475.14</ele><time>2026-8-20T14:57:56Z</time></trkpt><trkpt lat="42.3987214244" lon="13.7435259938"><ele>1475.43</ele><time>2026-8-20T14:58:20Z</time></trkpt><trkpt lat="42.3987154662" lon="13.7433464266"><ele>1475.67</ele><time>2026-8-20T14:58:29Z</time></trkpt><trkpt lat="42.3987067037" lon="13.7431662844"><ele>1475.89</ele><time>2026-8-20T14:58:37Z</time></trkpt><trkpt lat="42.3986925650" lon="13.7429839652"><ele>1476.08</ele><time>2026-8-20T14:58:46Z</time></trkpt><trkpt lat="42.3986783100" lon="13.7428010430"><ele>1476.35</ele><time>2026-8-20T14:58:54Z</time></trkpt><trkpt lat="42.3986802378" lon="13.7426203920"><ele>1476.32</ele><time>2026-8-20T14:59:2Z</time></trkpt><trkpt lat="42.3986964044" lon="13.7424295151"><ele>1476.52</ele><time>2026-8-20T14:59:10Z</time></trkpt><trkpt lat="42.3987111042" lon="13.7422419910"><ele>1476.95</ele><time>2026-8-20T14:59:18Z</time></trkpt><trkpt lat="42.3987123720" lon="13.7420675741"><ele>1477.58</ele><time>2026-8-20T14:59:26Z</time></trkpt><trkpt lat="42.3987065163" lon="13.7418868113"><ele>1477.83</ele><time>2026-8-20T14:59:35Z</time></trkpt><trkpt lat="42.3987121624" lon="13.7417031499"><ele>1478.30</ele><time>2026-8-20T14:59:43Z</time></trkpt><trkpt lat="42.3987313255" lon="13.7415293721"><ele>1478.53</ele><time>2026-8-20T14:59:51Z</time></trkpt><trkpt lat="42.3987556750" lon="13.7413542531"><ele>1479.07</ele><time>2026-8-20T14:59:59Z</time></trkpt><trkpt lat="42.3987875891" lon="13.7411680177"><ele>1479.32</ele><time>2026-8-20T15:0:7Z</time></trkpt><trkpt lat="42.3988142091" lon="13.7409952562"><ele>1479.74</ele><time>2026-8-20T15:0:15Z</time></trkpt><trkpt lat="42.3988509644" lon="13.7408250012"><ele>1479.85</ele><time>2026-8-20T15:0:23Z</time></trkpt><trkpt lat="42.3988861498" lon="13.7406444177"><ele>1479.81</ele><time>2026-8-20T15:0:32Z</time></trkpt><trkpt lat="42.3989109497" lon="13.7404719635"><ele>1479.92</ele><time>2026-8-20T15:0:40Z</time></trkpt><trkpt lat="42.3989484832" lon="13.7402974162"><ele>1480.27</ele><time>2026-8-20T15:0:49Z</time></trkpt><trkpt lat="42.3989847000" lon="13.7401219876"><ele>1481.50</ele><time>2026-8-20T15:0:57Z</time></trkpt><trkpt lat="42.3990273848" lon="13.7399492040"><ele>1481.63</ele><time>2026-8-20T15:1:6Z</time></trkpt><trkpt lat="42.3990740301" lon="13.7397753855"><ele>1481.30</ele><time>2026-8-20T15:1:14Z</time></trkpt><trkpt lat="42.3991083959" lon="13.7396089733"><ele>1481.54</ele><time>2026-8-20T15:1:22Z</time></trkpt><trkpt lat="42.3991574906" lon="13.7394394353"><ele>1481.61</ele><time>2026-8-20T15:1:31Z</time></trkpt><trkpt lat="42.3992170021" lon="13.7392686028"><ele>1482.01</ele><time>2026-8-20T15:1:40Z</time></trkpt><trkpt lat="42.3992831167" lon="13.7391059229"><ele>1482.34</ele><time>2026-8-20T15:1:48Z</time></trkpt><trkpt lat="42.3993491661" lon="13.7389438273"><ele>1482.89</ele><time>2026-8-20T15:1:57Z</time></trkpt><trkpt lat="42.3993969802" lon="13.7387777027"><ele>1483.50</ele><time>2026-8-20T15:2:7Z</time></trkpt><trkpt lat="42.3994315924" lon="13.7385767129"><ele>1484.30</ele><time>2026-8-20T15:2:24Z</time></trkpt><trkpt lat="42.3994347578" lon="13.7385333522"><ele>1483.12</ele><time>2026-8-20T15:3:1Z</time></trkpt><trkpt lat="42.3994340119" lon="13.7383160752"><ele>1483.46</ele><time>2026-8-20T15:3:28Z</time></trkpt><trkpt lat="42.3994341418" lon="13.7381326435"><ele>1483.78</ele><time>2026-8-20T15:3:37Z</time></trkpt><trkpt lat="42.3994199094" lon="13.7379607678"><ele>1484.11</ele><time>2026-8-20T15:3:46Z</time></trkpt><trkpt lat="42.3994335467" lon="13.7377715176"><ele>1483.75</ele><time>2026-8-20T15:3:54Z</time></trkpt><trkpt lat="42.3994280093" lon="13.7375997473"><ele>1483.83</ele><time>2026-8-20T15:4:5Z</time></trkpt><trkpt lat="42.3994229726" lon="13.7374191249"><ele>1484.43</ele><time>2026-8-20T15:4:16Z</time></trkpt><trkpt lat="42.3994135750" lon="13.7372327317"><ele>1484.76</ele><time>2026-8-20T15:4:32Z</time></trkpt><trkpt lat="42.3993879408" lon="13.7371560076"><ele>1484.99</ele><time>2026-8-20T15:5:7Z</time></trkpt><trkpt lat="42.3993775807" lon="13.7369720358"><ele>1485.66</ele><time>2026-8-20T15:5:37Z</time></trkpt><trkpt lat="42.3993661227" lon="13.7367992504"><ele>1486.05</ele><time>2026-8-20T15:5:46Z</time></trkpt><trkpt lat="42.3993433978" lon="13.7366171139"><ele>1486.40</ele><time>2026-8-20T15:5:57Z</time></trkpt><trkpt lat="42.3993229773" lon="13.7364378758"><ele>1486.61</ele><time>2026-8-20T15:6:7Z</time></trkpt><trkpt lat="42.3993270798" lon="13.7362601431"><ele>1486.67</ele><time>2026-8-20T15:6:16Z</time></trkpt><trkpt lat="42.3993271031" lon="13.7360843830"><ele>1487.08</ele><time>2026-8-20T15:6:26Z</time></trkpt><trkpt lat="42.3993338021" lon="13.7359041218"><ele>1487.44</ele><time>2026-8-20T15:6:35Z</time></trkpt><trkpt lat="42.3993826183" lon="13.7357423343"><ele>1487.58</ele><time>2026-8-20T15:6:45Z</time></trkpt><trkpt lat="42.3994303588" lon="13.7355740182"><ele>1487.99</ele><time>2026-8-20T15:6:55Z</time></trkpt><trkpt lat="42.3994049057" lon="13.7353990786"><ele>1488.73</ele><time>2026-8-20T15:7:5Z</time></trkpt><trkpt lat="42.3993688542" lon="13.7352224346"><ele>1489.28</ele><time>2026-8-20T15:7:16Z</time></trkpt><trkpt lat="42.3993476387" lon="13.7350494135"><ele>1489.46</ele><time>2026-8-20T15:7:25Z</time></trkpt><trkpt lat="42.3993509598" lon="13.7348705325"><ele>1489.20</ele><time>2026-8-20T15:7:34Z</time></trkpt><trkpt lat="42.3993516864" lon="13.7346944149"><ele>1489.67</ele><time>2026-8-20T15:7:54Z</time></trkpt><trkpt lat="42.3993567054" lon="13.7346970550"><ele>1489.56</ele><time>2026-8-20T15:8:47Z</time></trkpt><trkpt lat="42.3993545709" lon="13.7346912508"><ele>1489.27</ele><time>2026-8-20T15:9:53Z</time></trkpt><trkpt lat="42.3993369844" lon="13.7345215958"><ele>1489.93</ele><time>2026-8-20T15:10:26Z</time></trkpt><trkpt lat="42.3993092962" lon="13.7343430519"><ele>1490.40</ele><time>2026-8-20T15:10:35Z</time></trkpt><trkpt lat="42.3992818384" lon="13.7341552565"><ele>1490.60</ele><time>2026-8-20T15:10:43Z</time></trkpt><trkpt lat="42.3992450163" lon="13.7339887582"><ele>1490.93</ele><time>2026-8-20T15:10:52Z</time></trkpt><trkpt lat="42.3992178531" lon="13.7338190479"><ele>1491.56</ele><time>2026-8-20T15:11:0Z</time></trkpt><trkpt lat="42.3992114829" lon="13.7336433108"><ele>1491.79</ele><time>2026-8-20T15:11:8Z</time></trkpt><trkpt lat="42.3991846852" lon="13.7334647309"><ele>1492.39</ele><time>2026-8-20T15:11:17Z</time></trkpt><trkpt lat="42.3991924350" lon="13.7332833186"><ele>1492.24</ele><time>2026-8-20T15:11:25Z</time></trkpt><trkpt lat="42.3992091673" lon="13.7331163092"><ele>1492.13</ele><time>2026-8-20T15:11:33Z</time></trkpt><trkpt lat="42.3992600832" lon="13.7329483861"><ele>1492.50</ele><time>2026-8-20T15:11:42Z</time></trkpt><trkpt lat="42.3992620967" lon="13.7327670306"><ele>1493.08</ele><time>2026-8-20T15:11:52Z</time></trkpt><trkpt lat="42.3991922010" lon="13.7326198351"><ele>1494.03</ele><time>2026-8-20T15:11:59Z</time></trkpt><trkpt lat="42.3991240282" lon="13.7324805239"><ele>1494.52</ele><time>2026-8-20T15:12:6Z</time></trkpt><trkpt lat="42.3990488305" lon="13.7323268716"><ele>1494.65</ele><time>2026-8-20T15:12:13Z</time></trkpt><trkpt lat="42.3989672971" lon="13.7321789085"><ele>1494.21</ele><time>2026-8-20T15:12:20Z</time></trkpt><trkpt lat="42.3988876166" lon="13.7320361752"><ele>1494.39</ele><time>2026-8-20T15:12:28Z</time></trkpt><trkpt lat="42.3988051491" lon="13.7318864954"><ele>1495.10</ele><time>2026-8-20T15:12:36Z</time></trkpt><trkpt lat="42.3987235408" lon="13.7317362587"><ele>1495.28</ele><time>2026-8-20T15:12:44Z</time></trkpt><trkpt lat="42.3986380559" lon="13.7315961672"><ele>1495.50</ele><time>2026-8-20T15:12:51Z</time></trkpt><trkpt lat="42.3985530697" lon="13.7314375061"><ele>1495.91</ele><time>2026-8-20T15:13:0Z</time></trkpt><trkpt lat="42.3985049722" lon="13.7313066144"><ele>1496.14</ele><time>2026-8-20T15:13:9Z</time></trkpt><trkpt lat="42.3984604853" lon="13.7311230926"><ele>1496.40</ele><time>2026-8-20T15:13:17Z</time></trkpt><trkpt lat="42.3984158771" lon="13.7309539158"><ele>1496.83</ele><time>2026-8-20T15:13:25Z</time></trkpt><trkpt lat="42.3983841890" lon="13.7307773077"><ele>1497.32</ele><time>2026-8-20T15:13:32Z</time></trkpt><trkpt lat="42.3983808287" lon="13.7306034565"><ele>1497.66</ele><time>2026-8-20T15:13:40Z</time></trkpt><trkpt lat="42.3983368627" lon="13.7304296263"><ele>1498.32</ele><time>2026-8-20T15:13:47Z</time></trkpt><trkpt lat="42.3982729177" lon="13.7302661807"><ele>1498.64</ele><time>2026-8-20T15:13:55Z</time></trkpt><trkpt lat="42.3982134275" lon="13.7301137112"><ele>1498.91</ele><time>2026-8-20T15:14:3Z</time></trkpt><trkpt lat="42.3981601093" lon="13.7299526017"><ele>1499.47</ele><time>2026-8-20T15:14:11Z</time></trkpt><trkpt lat="42.3981189961" lon="13.7297785236"><ele>1499.78</ele><time>2026-8-20T15:14:17Z</time></trkpt><trkpt lat="42.3980818463" lon="13.7296022980"><ele>1500.23</ele><time>2026-8-20T15:14:24Z</time></trkpt><trkpt lat="42.3980523779" lon="13.7294200515"><ele>1500.19</ele><time>2026-8-20T15:14:31Z</time></trkpt><trkpt lat="42.3980252445" lon="13.7292431694"><ele>1500.27</ele><time>2026-8-20T15:14:38Z</time></trkpt><trkpt lat="42.3980367801" lon="13.7290480058"><ele>1500.63</ele><time>2026-8-20T15:14:45Z</time></trkpt><trkpt lat="42.3980454868" lon="13.7288847158"><ele>1501.09</ele><time>2026-8-20T15:14:53Z</time></trkpt><trkpt lat="42.3980283817" lon="13.7286963699"><ele>1501.43</ele><time>2026-8-20T15:15:1Z</time></trkpt><trkpt lat="42.3980164195" lon="13.7285117885"><ele>1501.69</ele><time>2026-8-20T15:15:8Z</time></trkpt><trkpt lat="42.3979916470" lon="13.7283439329"><ele>1502.18</ele><time>2026-8-20T15:15:14Z</time></trkpt><trkpt lat="42.3979712171" lon="13.7281748240"><ele>1502.58</ele><time>2026-8-20T15:15:21Z</time></trkpt><trkpt lat="42.3979560100" lon="13.7279957147"><ele>1503.15</ele><time>2026-8-20T15:15:28Z</time></trkpt><trkpt lat="42.3979611963" lon="13.7278195121"><ele>1504.38</ele><time>2026-8-20T15:15:35Z</time></trkpt><trkpt lat="42.3980119691" lon="13.7276159426"><ele>1505.23</ele><time>2026-8-20T15:15:50Z</time></trkpt><trkpt lat="42.3980000379" lon="13.7275860542"><ele>1504.68</ele><time>2026-8-20T15:16:42Z</time></trkpt><trkpt lat="42.3980036140" lon="13.7275663712"><ele>1503.93</ele><time>2026-8-20T15:18:5Z</time></trkpt><trkpt lat="42.3980285647" lon="13.7275665227"><ele>1503.63</ele><time>2026-8-20T15:19:50Z</time></trkpt><trkpt lat="42.3980206751" lon="13.7275469931"><ele>1504.05</ele><time>2026-8-20T15:21:12Z</time></trkpt><trkpt lat="42.3980599735" lon="13.7274131645"><ele>1504.90</ele><time>2026-8-20T15:21:32Z</time></trkpt><trkpt lat="42.3981005499" lon="13.7272241485"><ele>1505.23</ele><time>2026-8-20T15:21:39Z</time></trkpt><trkpt lat="42.3981470428" lon="13.7270513549"><ele>1505.31</ele><time>2026-8-20T15:21:47Z</time></trkpt><trkpt lat="42.3981579719" lon="13.7268875493"><ele>1505.93</ele><time>2026-8-20T15:21:55Z</time></trkpt><trkpt lat="42.3981681788" lon="13.7266980840"><ele>1506.37</ele><time>2026-8-20T15:22:5Z</time></trkpt><trkpt lat="42.3982293103" lon="13.7265532035"><ele>1505.67</ele><time>2026-8-20T15:22:15Z</time></trkpt><trkpt lat="42.3982957704" lon="13.7264058245"><ele>1506.15</ele><time>2026-8-20T15:22:25Z</time></trkpt><trkpt lat="42.3983154819" lon="13.7262276001"><ele>1507.01</ele><time>2026-8-20T15:22:35Z</time></trkpt><trkpt lat="42.3983523315" lon="13.7260520495"><ele>1507.26</ele><time>2026-8-20T15:22:44Z</time></trkpt><trkpt lat="42.3983811960" lon="13.7258670665"><ele>1507.64</ele><time>2026-8-20T15:22:54Z</time></trkpt><trkpt lat="42.3983776383" lon="13.7256865296"><ele>1508.06</ele><time>2026-8-20T15:23:3Z</time></trkpt><trkpt lat="42.3983703926" lon="13.7255132198"><ele>1508.43</ele><time>2026-8-20T15:23:12Z</time></trkpt><trkpt lat="42.3983687256" lon="13.7253439892"><ele>1508.47</ele><time>2026-8-20T15:23:21Z</time></trkpt><trkpt lat="42.3983700760" lon="13.7251605280"><ele>1508.99</ele><time>2026-8-20T15:23:30Z</time></trkpt><trkpt lat="42.3983697072" lon="13.7249744134"><ele>1509.24</ele><time>2026-8-20T15:23:39Z</time></trkpt><trkpt lat="42.3983475319" lon="13.7248079346"><ele>1509.46</ele><time>2026-8-20T15:24:10Z</time></trkpt><trkpt lat="42.3983539311" lon="13.7247885230"><ele>1509.23</ele><time>2026-8-20T15:25:15Z</time></trkpt><trkpt lat="42.3983643092" lon="13.7247837312"><ele>1509.62</ele><time>2026-8-20T15:26:49Z</time></trkpt><trkpt lat="42.3983640096" lon="13.7246542331"><ele>1509.52</ele><time>2026-8-20T15:27:48Z</time></trkpt><trkpt lat="42.3983604787" lon="13.7244807556"><ele>1509.71</ele><time>2026-8-20T15:27:55Z</time></trkpt><trkpt lat="42.3983706418" lon="13.7243008625"><ele>1509.84</ele><time>2026-8-20T15:28:2Z</time></trkpt><trkpt lat="42.3983794877" lon="13.7241155401"><ele>1510.24</ele><time>2026-8-20T15:28:10Z</time></trkpt><trkpt lat="42.3983823974" lon="13.7239391729"><ele>1510.82</ele><time>2026-8-20T15:28:17Z</time></trkpt><trkpt lat="42.3984020529" lon="13.7237614032"><ele>1511.22</ele><time>2026-8-20T15:28:25Z</time></trkpt><trkpt lat="42.3984403536" lon="13.7235872354"><ele>1511.25</ele><time>2026-8-20T15:28:34Z</time></trkpt><trkpt lat="42.3984736554" lon="13.7234085251"><ele>1511.38</ele><time>2026-8-20T15:28:42Z</time></trkpt><trkpt lat="42.3985105986" lon="13.7232381273"><ele>1511.85</ele><time>2026-8-20T15:28:51Z</time></trkpt><trkpt lat="42.3985686340" lon="13.7230686564"><ele>1512.91</ele><time>2026-8-20T15:29:1Z</time></trkpt><trkpt lat="42.3986571375" lon="13.7229435984"><ele>1512.48</ele><time>2026-8-20T15:29:10Z</time></trkpt><trkpt lat="42.3987521045" lon="13.7228211854"><ele>1512.28</ele><time>2026-8-20T15:29:19Z</time></trkpt><trkpt lat="42.3988250643" lon="13.7226743437"><ele>1512.92</ele><time>2026-8-20T15:29:28Z</time></trkpt><trkpt lat="42.3988629598" lon="13.7224992924"><ele>1514.32</ele><time>2026-8-20T15:29:37Z</time></trkpt><trkpt lat="42.3988765571" lon="13.7223130930"><ele>1514.93</ele><time>2026-8-20T15:29:46Z</time></trkpt><trkpt lat="42.3988769656" lon="13.7221285381"><ele>1515.36</ele><time>2026-8-20T15:29:54Z</time></trkpt><trkpt lat="42.3988958099" lon="13.7219551764"><ele>1515.53</ele><time>2026-8-20T15:30:1Z</time></trkpt><trkpt lat="42.3989376146" lon="13.7217756840"><ele>1515.62</ele><time>2026-8-20T15:30:9Z</time></trkpt><trkpt lat="42.3989852837" lon="13.7216069922"><ele>1515.87</ele><time>2026-8-20T15:30:16Z</time></trkpt><trkpt lat="42.3990322184" lon="13.7214441877"><ele>1516.18</ele><time>2026-8-20T15:30:22Z</time></trkpt><trkpt lat="42.3990861280" lon="13.7212899607"><ele>1516.62</ele><time>2026-8-20T15:30:28Z</time></trkpt><trkpt lat="42.3991467571" lon="13.7211177684"><ele>1517.24</ele><time>2026-8-20T15:30:34Z</time></trkpt><trkpt lat="42.3991860647" lon="13.7209402327"><ele>1517.78</ele><time>2026-8-20T15:30:41Z</time></trkpt><trkpt lat="42.3992495332" lon="13.7207824364"><ele>1518.07</ele><time>2026-8-20T15:30:48Z</time></trkpt><trkpt lat="42.3993308337" lon="13.7206368108"><ele>1518.10</ele><time>2026-8-20T15:30:55Z</time></trkpt><trkpt lat="42.3993980186" lon="13.7204823364"><ele>1518.40</ele><time>2026-8-20T15:31:1Z</time></trkpt><trkpt lat="42.3994679376" lon="13.7203334219"><ele>1518.76</ele><time>2026-8-20T15:31:8Z</time></trkpt><trkpt lat="42.3995419738" lon="13.7201687175"><ele>1519.45</ele><time>2026-8-20T15:31:15Z</time></trkpt><trkpt lat="42.3996128747" lon="13.7200101838"><ele>1519.96</ele><time>2026-8-20T15:31:21Z</time></trkpt><trkpt lat="42.3996800278" lon="13.7198534142"><ele>1520.23</ele><time>2026-8-20T15:31:27Z</time></trkpt><trkpt lat="42.3997376673" lon="13.7197027794"><ele>1520.82</ele><time>2026-8-20T15:31:34Z</time></trkpt><trkpt lat="42.3997861427" lon="13.7195339101"><ele>1521.33</ele><time>2026-8-20T15:31:40Z</time></trkpt><trkpt lat="42.3998264421" lon="13.7193552463"><ele>1521.57</ele><time>2026-8-20T15:31:47Z</time></trkpt><trkpt lat="42.3998698978" lon="13.7191831972"><ele>1522.19</ele><time>2026-8-20T15:31:55Z</time></trkpt><trkpt lat="42.3999133687" lon="13.7190013938"><ele>1522.74</ele><time>2026-8-20T15:32:1Z</time></trkpt><trkpt lat="42.3999641149" lon="13.7188388687"><ele>1523.02</ele><time>2026-8-20T15:32:7Z</time></trkpt><trkpt lat="42.4000187230" lon="13.7186729698"><ele>1523.28</ele><time>2026-8-20T15:32:15Z</time></trkpt><trkpt lat="42.4000733477" lon="13.7185093046"><ele>1524.15</ele><time>2026-8-20T15:32:36Z</time></trkpt><trkpt lat="42.4000862611" lon="13.7185213584"><ele>1523.51</ele><time>2026-8-20T15:33:37Z</time></trkpt><trkpt lat="42.4000864569" lon="13.7185274566"><ele>1523.07</ele><time>2026-8-20T15:35:20Z</time></trkpt><trkpt lat="42.4000856889" lon="13.7185151214"><ele>1522.08</ele><time>2026-8-20T15:37:9Z</time></trkpt><trkpt lat="42.4000759661" lon="13.7185053763"><ele>1523.07</ele><time>2026-8-20T15:38:15Z</time></trkpt><trkpt lat="42.4001229066" lon="13.7183372886"><ele>1523.93</ele><time>2026-8-20T15:38:37Z</time></trkpt><trkpt lat="42.4001714994" lon="13.7181676535"><ele>1524.65</ele><time>2026-8-20T15:38:49Z</time></trkpt><trkpt lat="42.4002210898" lon="13.7180005793"><ele>1525.04</ele><time>2026-8-20T15:39:0Z</time></trkpt><trkpt lat="42.4002765901" lon="13.7178353034"><ele>1525.32</ele><time>2026-8-20T15:39:10Z</time></trkpt><trkpt lat="42.4003179129" lon="13.7176661398"><ele>1525.66</ele><time>2026-8-20T15:39:20Z</time></trkpt><trkpt lat="42.4003605181" lon="13.7174975462"><ele>1526.14</ele><time>2026-8-20T15:39:30Z</time></trkpt><trkpt lat="42.4003891591" lon="13.7173240325"><ele>1526.78</ele><time>2026-8-20T15:39:40Z</time></trkpt><trkpt lat="42.4003667215" lon="13.7171458843"><ele>1526.68</ele><time>2026-8-20T15:39:51Z</time></trkpt><trkpt lat="42.4003063261" lon="13.7169911772"><ele>1526.83</ele><time>2026-8-20T15:40:2Z</time></trkpt><trkpt lat="42.4002225185" lon="13.7168602366"><ele>1527.27</ele><time>2026-8-20T15:40:13Z</time></trkpt><trkpt lat="42.4001164315" lon="13.7167408504"><ele>1527.30</ele><time>2026-8-20T15:40:25Z</time></trkpt><trkpt lat="42.4000191987" lon="13.7166197011"><ele>1527.41</ele><time>2026-8-20T15:40:36Z</time></trkpt><trkpt lat="42.3999220463" lon="13.7164998529"><ele>1527.46</ele><time>2026-8-20T15:40:47Z</time></trkpt><trkpt lat="42.3998328019" lon="13.7163700172"><ele>1527.80</ele><time>2026-8-20T15:40:58Z</time></trkpt><trkpt lat="42.3997405102" lon="13.7162404647"><ele>1528.18</ele><time>2026-8-20T15:41:9Z</time></trkpt><trkpt lat="42.3996537016" lon="13.7160987477"><ele>1528.80</ele><time>2026-8-20T15:41:21Z</time></trkpt><trkpt lat="42.3996301275" lon="13.7159327119"><ele>1528.78</ele><time>2026-8-20T15:41:32Z</time></trkpt><trkpt lat="42.3996024532" lon="13.7157596438"><ele>1529.14</ele><time>2026-8-20T15:41:43Z</time></trkpt><trkpt lat="42.3995807650" lon="13.7155789021"><ele>1529.70</ele><time>2026-8-20T15:41:55Z</time></trkpt><trkpt lat="42.3996136570" lon="13.7154078372"><ele>1529.67</ele><time>2026-8-20T15:42:6Z</time></trkpt><trkpt lat="42.3996213600" lon="13.7152286153"><ele>1530.93</ele><time>2026-8-20T15:42:16Z</time></trkpt><trkpt lat="42.3996152580" lon="13.7150524948"><ele>1531.76</ele><time>2026-8-20T15:42:26Z</time></trkpt><trkpt lat="42.3995782435" lon="13.7148897434"><ele>1531.79</ele><time>2026-8-20T15:42:36Z</time></trkpt><trkpt lat="42.3994992500" lon="13.7147279882"><ele>1532.53</ele><time>2026-8-20T15:42:45Z</time></trkpt><trkpt lat="42.3994501596" lon="13.7145698899"><ele>1532.57</ele><time>2026-8-20T15:42:53Z</time></trkpt><trkpt lat="42.3994287789" lon="13.7143895030"><ele>1532.64</ele><time>2026-8-20T15:43:4Z</time></trkpt><trkpt lat="42.3994235440" lon="13.7142081186"><ele>1532.97</ele><time>2026-8-20T15:43:15Z</time></trkpt><trkpt lat="42.3994477373" lon="13.7140396675"><ele>1533.43</ele><time>2026-8-20T15:43:25Z</time></trkpt><trkpt lat="42.3994921805" lon="13.7139494325"><ele>1533.94</ele><time>2026-8-20T15:43:59Z</time></trkpt><trkpt lat="42.3994972545" lon="13.7139546185"><ele>1533.17</ele><time>2026-8-20T15:45:29Z</time></trkpt><trkpt lat="42.3994799255" lon="13.7139622826"><ele>1533.85</ele><time>2026-8-20T15:46:54Z</time></trkpt><trkpt lat="42.3995302990" lon="13.7138730482"><ele>1533.89</ele><time>2026-8-20T15:47:24Z</time></trkpt><trkpt lat="42.3995992821" lon="13.7137147674"><ele>1534.82</ele><time>2026-8-20T15:47:35Z</time></trkpt><trkpt lat="42.3996835412" lon="13.7135943747"><ele>1535.32</ele><time>2026-8-20T15:47:46Z</time></trkpt><trkpt lat="42.3998137826" lon="13.7135674898"><ele>1536.08</ele><time>2026-8-20T15:47:58Z</time></trkpt><trkpt lat="42.3999396795" lon="13.7135801381"><ele>1536.67</ele><time>2026-8-20T15:48:8Z</time></trkpt><trkpt lat="42.4000600277" lon="13.7136403590"><ele>1537.52</ele><time>2026-8-20T15:48:19Z</time></trkpt><trkpt lat="42.4001957764" lon="13.7136727055"><ele>1537.25</ele><time>2026-8-20T15:48:30Z</time></trkpt><trkpt lat="42.4003259582" lon="13.7137079355"><ele>1537.60</ele><time>2026-8-20T15:48:41Z</time></trkpt><trkpt lat="42.4004568346" lon="13.7137319357"><ele>1538.56</ele><time>2026-8-20T15:48:53Z</time></trkpt><trkpt lat="42.4005737272" lon="13.7137334235"><ele>1539.16</ele><time>2026-8-20T15:49:5Z</time></trkpt><trkpt lat="42.4007065175" lon="13.7137519126"><ele>1540.00</ele><time>2026-8-20T15:49:17Z</time></trkpt><trkpt lat="42.4008230323" lon="13.7136882730"><ele>1540.59</ele><time>2026-8-20T15:49:29Z</time></trkpt><trkpt lat="42.4009181294" lon="13.7135873355"><ele>1541.10</ele><time>2026-8-20T15:49:41Z</time></trkpt><trkpt lat="42.4010151043" lon="13.7134667812"><ele>1541.97</ele><time>2026-8-20T15:49:53Z</time></trkpt><trkpt lat="42.4011027790" lon="13.7133338512"><ele>1542.27</ele><time>2026-8-20T15:50:5Z</time></trkpt><trkpt lat="42.4011519638" lon="13.7131624223"><ele>1542.72</ele><time>2026-8-20T15:50:18Z</time></trkpt><trkpt lat="42.4012325294" lon="13.7130415533"><ele>1543.38</ele><time>2026-8-20T15:50:33Z</time></trkpt><trkpt lat="42.4012905278" lon="13.7129562899"><ele>1544.24</ele><time>2026-8-20T15:51:5Z</time></trkpt><trkpt lat="42.4013813952" lon="13.7129771864"><ele>1545.01</ele><time>2026-8-20T15:51:45Z</time></trkpt><trkpt lat="42.4014298446" lon="13.7129152375"><ele>1545.62</ele><time>2026-8-20T15:52:27Z</time></trkpt><trkpt lat="42.4014969310" lon="13.7128421711"><ele>1545.81</ele><time>2026-8-20T15:53:2Z</time></trkpt><trkpt lat="42.4015508458" lon="13.7127574679"><ele>1546.08</ele><time>2026-8-20T15:53:27Z</time></trkpt><trkpt lat="42.4014977086" lon="13.7125967815"><ele>1546.43</ele><time>2026-8-20T15:53:48Z</time></trkpt><trkpt lat="42.4014508538" lon="13.7124369666"><ele>1546.43</ele><time>2026-8-20T15:53:57Z</time></trkpt><trkpt lat="42.4014097208" lon="13.7122440187"><ele>1546.57</ele><time>2026-8-20T15:54:5Z</time></trkpt><trkpt lat="42.4013864475" lon="13.7120732718"><ele>1545.97</ele><time>2026-8-20T15:54:13Z</time></trkpt><trkpt lat="42.4013579730" lon="13.7118913815"><ele>1546.48</ele><time>2026-8-20T15:54:20Z</time></trkpt><trkpt lat="42.4013296701" lon="13.7117075315"><ele>1546.91</ele><time>2026-8-20T15:54:27Z</time></trkpt><trkpt lat="42.4013211206" lon="13.7115367642"><ele>1546.67</ele><time>2026-8-20T15:54:33Z</time></trkpt><trkpt lat="42.4013567995" lon="13.7113709003"><ele>1546.16</ele><time>2026-8-20T15:54:39Z</time></trkpt><trkpt lat="42.4014270718" lon="13.7111647214"><ele>1545.57</ele><time>2026-8-20T15:54:53Z</time></trkpt><trkpt lat="42.4014518263" lon="13.7111263802"><ele>1545.48</ele><time>2026-8-20T15:55:10Z</time></trkpt><trkpt lat="42.4015226606" lon="13.7109302916"><ele>1545.25</ele><time>2026-8-20T15:55:20Z</time></trkpt><trkpt lat="42.4015768769" lon="13.7107704696"><ele>1545.02</ele><time>2026-8-20T15:55:26Z</time></trkpt><trkpt lat="42.4016117531" lon="13.7106067022"><ele>1544.74</ele><time>2026-8-20T15:55:34Z</time></trkpt><trkpt lat="42.4016027964" lon="13.7104185045"><ele>1544.55</ele><time>2026-8-20T15:55:41Z</time></trkpt><trkpt lat="42.4015705486" lon="13.7102424621"><ele>1544.12</ele><time>2026-8-20T15:55:48Z</time></trkpt><trkpt lat="42.4015050894" lon="13.7100766366"><ele>1544.05</ele><time>2026-8-20T15:55:55Z</time></trkpt><trkpt lat="42.4014104437" lon="13.7099653549"><ele>1544.19</ele><time>2026-8-20T15:56:2Z</time></trkpt><trkpt lat="42.4013539138" lon="13.7098132713"><ele>1544.47</ele><time>2026-8-20T15:56:9Z</time></trkpt><trkpt lat="42.4013221613" lon="13.7096338102"><ele>1544.58</ele><time>2026-8-20T15:56:16Z</time></trkpt><trkpt lat="42.4012657721" lon="13.7094887439"><ele>1544.45</ele><time>2026-8-20T15:56:23Z</time></trkpt><trkpt lat="42.4012282072" lon="13.7093281886"><ele>1544.42</ele><time>2026-8-20T15:56:29Z</time></trkpt><trkpt lat="42.4012011476" lon="13.7091424456"><ele>1544.41</ele><time>2026-8-20T15:56:35Z</time></trkpt><trkpt lat="42.4011374312" lon="13.7089819182"><ele>1544.51</ele><time>2026-8-20T15:56:41Z</time></trkpt><trkpt lat="42.4010762992" lon="13.7088276772"><ele>1544.73</ele><time>2026-8-20T15:56:47Z</time></trkpt><trkpt lat="42.4010866676" lon="13.7086511515"><ele>1544.72</ele><time>2026-8-20T15:56:53Z</time></trkpt><trkpt lat="42.4011347294" lon="13.7084820214"><ele>1545.07</ele><time>2026-8-20T15:56:58Z</time></trkpt><trkpt lat="42.4012158369" lon="13.7083536526"><ele>1545.57</ele><time>2026-8-20T15:57:2Z</time></trkpt><trkpt lat="42.4013467748" lon="13.7082799338"><ele>1546.55</ele><time>2026-8-20T15:57:7Z</time></trkpt><trkpt lat="42.4014716484" lon="13.7082213778"><ele>1547.41</ele><time>2026-8-20T15:57:12Z</time></trkpt><trkpt lat="42.4015923310" lon="13.7081433786"><ele>1547.72</ele><time>2026-8-20T15:57:17Z</time></trkpt><trkpt lat="42.4017084343" lon="13.7080413010"><ele>1547.53</ele><time>2026-8-20T15:57:23Z</time></trkpt><trkpt lat="42.4018012779" lon="13.7079242198"><ele>1547.63</ele><time>2026-8-20T15:57:29Z</time></trkpt><trkpt lat="42.4019016652" lon="13.7078057695"><ele>1547.41</ele><time>2026-8-20T15:57:35Z</time></trkpt><trkpt lat="42.4020139767" lon="13.7076996666"><ele>1546.53</ele><time>2026-8-20T15:57:42Z</time></trkpt><trkpt lat="42.4021193546" lon="13.7076053938"><ele>1543.77</ele><time>2026-8-20T15:58:2Z</time></trkpt><trkpt lat="42.4021606743" lon="13.7075028643"><ele>1542.86</ele><time>2026-8-20T15:58:23Z</time></trkpt><trkpt lat="42.4022167735" lon="13.7073346321"><ele>1543.61</ele><time>2026-8-20T15:58:33Z</time></trkpt><trkpt lat="42.4022941310" lon="13.7071930775"><ele>1544.87</ele><time>2026-8-20T15:58:42Z</time></trkpt><trkpt lat="42.4023592018" lon="13.7070299510"><ele>1545.90</ele><time>2026-8-20T15:58:51Z</time></trkpt><trkpt lat="42.4024022848" lon="13.7068624282"><ele>1546.60</ele><time>2026-8-20T15:58:59Z</time></trkpt><trkpt lat="42.4023969686" lon="13.7066881014"><ele>1546.50</ele><time>2026-8-20T15:59:8Z</time></trkpt><trkpt lat="42.4023659891" lon="13.7065105727"><ele>1546.27</ele><time>2026-8-20T15:59:18Z</time></trkpt><trkpt lat="42.4023125963" lon="13.7063509980"><ele>1545.75</ele><time>2026-8-20T15:59:28Z</time></trkpt><trkpt lat="42.4022525400" lon="13.7061864864"><ele>1545.06</ele><time>2026-8-20T15:59:38Z</time></trkpt><trkpt lat="42.4021796230" lon="13.7060349341"><ele>1544.95</ele><time>2026-8-20T15:59:48Z</time></trkpt><trkpt lat="42.4021044467" lon="13.7058879808"><ele>1544.80</ele><time>2026-8-20T15:59:57Z</time></trkpt><trkpt lat="42.4020220898" lon="13.7057499960"><ele>1544.95</ele><time>2026-8-20T16:0:6Z</time></trkpt><trkpt lat="42.4019422010" lon="13.7056112383"><ele>1545.15</ele><time>2026-8-20T16:0:15Z</time></trkpt><trkpt lat="42.4018603340" lon="13.7054633293"><ele>1545.04</ele><time>2026-8-20T16:0:24Z</time></trkpt><trkpt lat="42.4018106796" lon="13.7052947655"><ele>1544.89</ele><time>2026-8-20T16:0:34Z</time></trkpt><trkpt lat="42.4017727561" lon="13.7051235977"><ele>1544.98</ele><time>2026-8-20T16:0:43Z</time></trkpt><trkpt lat="42.4017359689" lon="13.7049567886"><ele>1545.27</ele><time>2026-8-20T16:0:52Z</time></trkpt><trkpt lat="42.4017000291" lon="13.7047833018"><ele>1545.58</ele><time>2026-8-20T16:1:1Z</time></trkpt><trkpt lat="42.4016502081" lon="13.7046182470"><ele>1545.41</ele><time>2026-8-20T16:1:9Z</time></trkpt><trkpt lat="42.4015998561" lon="13.7044411898"><ele>1545.47</ele><time>2026-8-20T16:1:18Z</time></trkpt><trkpt lat="42.4015468487" lon="13.7042725564"><ele>1545.63</ele><time>2026-8-20T16:1:26Z</time></trkpt><trkpt lat="42.4014928565" lon="13.7041113619"><ele>1545.47</ele><time>2026-8-20T16:1:35Z</time></trkpt><trkpt lat="42.4014375545" lon="13.7039439473"><ele>1545.13</ele><time>2026-8-20T16:1:44Z</time></trkpt><trkpt lat="42.4013798032" lon="13.7037744094"><ele>1545.26</ele><time>2026-8-20T16:1:53Z</time></trkpt><trkpt lat="42.4013172998" lon="13.7036127434"><ele>1545.29</ele><time>2026-8-20T16:2:1Z</time></trkpt><trkpt lat="42.4012556928" lon="13.7034557189"><ele>1545.44</ele><time>2026-8-20T16:2:9Z</time></trkpt><trkpt lat="42.4011997855" lon="13.7032990612"><ele>1545.54</ele><time>2026-8-20T16:2:17Z</time></trkpt><trkpt lat="42.4011477642" lon="13.7031327374"><ele>1545.52</ele><time>2026-8-20T16:2:26Z</time></trkpt><trkpt lat="42.4011008535" lon="13.7029569689"><ele>1545.56</ele><time>2026-8-20T16:2:35Z</time></trkpt><trkpt lat="42.4010548624" lon="13.7027899653"><ele>1545.49</ele><time>2026-8-20T16:2:43Z</time></trkpt><trkpt lat="42.4010005314" lon="13.7026224099"><ele>1545.64</ele><time>2026-8-20T16:2:52Z</time></trkpt><trkpt lat="42.4009626510" lon="13.7024509802"><ele>1545.68</ele><time>2026-8-20T16:3:0Z</time></trkpt><trkpt lat="42.4009338301" lon="13.7022713013"><ele>1545.55</ele><time>2026-8-20T16:3:9Z</time></trkpt><trkpt lat="42.4008999439" lon="13.7020884210"><ele>1545.60</ele><time>2026-8-20T16:3:17Z</time></trkpt><trkpt lat="42.4008595850" lon="13.7019223755"><ele>1545.73</ele><time>2026-8-20T16:3:25Z</time></trkpt><trkpt lat="42.4008148722" lon="13.7017476372"><ele>1545.79</ele><time>2026-8-20T16:3:34Z</time></trkpt><trkpt lat="42.4007741735" lon="13.7015712471"><ele>1545.76</ele><time>2026-8-20T16:3:42Z</time></trkpt><trkpt lat="42.4007349275" lon="13.7014003005"><ele>1545.71</ele><time>2026-8-20T16:3:51Z</time></trkpt><trkpt lat="42.4006978702" lon="13.7012245972"><ele>1545.75</ele><time>2026-8-20T16:4:0Z</time></trkpt><trkpt lat="42.4006599281" lon="13.7010504678"><ele>1545.91</ele><time>2026-8-20T16:4:9Z</time></trkpt><trkpt lat="42.4006426169" lon="13.7009569456"><ele>1545.46</ele><time>2026-8-20T16:4:46Z</time></trkpt><trkpt lat="42.4006113037" lon="13.7008108292"><ele>1545.77</ele><time>2026-8-20T16:5:24Z</time></trkpt><trkpt lat="42.4005716583" lon="13.7006340874"><ele>1546.13</ele><time>2026-8-20T16:5:33Z</time></trkpt><trkpt lat="42.4005372003" lon="13.7004523091"><ele>1546.09</ele><time>2026-8-20T16:5:43Z</time></trkpt><trkpt lat="42.4005058221" lon="13.7002772558"><ele>1545.78</ele><time>2026-8-20T16:5:53Z</time></trkpt><trkpt lat="42.4004696002" lon="13.7001039153"><ele>1545.55</ele><time>2026-8-20T16:6:2Z</time></trkpt><trkpt lat="42.4004369509" lon="13.6999341287"><ele>1545.32</ele><time>2026-8-20T16:6:12Z</time></trkpt><trkpt lat="42.4003999680" lon="13.6997626256"><ele>1545.32</ele><time>2026-8-20T16:6:21Z</time></trkpt><trkpt lat="42.4003588837" lon="13.6995861819"><ele>1545.62</ele><time>2026-8-20T16:6:30Z</time></trkpt><trkpt lat="42.4003230804" lon="13.6994094390"><ele>1545.49</ele><time>2026-8-20T16:6:39Z</time></trkpt><trkpt lat="42.4002840417" lon="13.6992346784"><ele>1545.60</ele><time>2026-8-20T16:6:48Z</time></trkpt><trkpt lat="42.4002442486" lon="13.6990577763"><ele>1545.65</ele><time>2026-8-20T16:6:57Z</time></trkpt><trkpt lat="42.4002105638" lon="13.6988825630"><ele>1545.70</ele><time>2026-8-20T16:7:5Z</time></trkpt><trkpt lat="42.4001794215" lon="13.6987042613"><ele>1545.64</ele><time>2026-8-20T16:7:14Z</time></trkpt><trkpt lat="42.4001590255" lon="13.6985263135"><ele>1545.25</ele><time>2026-8-20T16:7:23Z</time></trkpt><trkpt lat="42.4001430348" lon="13.6983487196"><ele>1545.48</ele><time>2026-8-20T16:7:32Z</time></trkpt><trkpt lat="42.4001344456" lon="13.6981644120"><ele>1545.28</ele><time>2026-8-20T16:7:40Z</time></trkpt><trkpt lat="42.4001239147" lon="13.6979818717"><ele>1545.52</ele><time>2026-8-20T16:7:49Z</time></trkpt><trkpt lat="42.4001016375" lon="13.6978121102"><ele>1545.37</ele><time>2026-8-20T16:7:58Z</time></trkpt><trkpt lat="42.4000857398" lon="13.6976314522"><ele>1545.19</ele><time>2026-8-20T16:8:7Z</time></trkpt><trkpt lat="42.4000641052" lon="13.6974542495"><ele>1545.59</ele><time>2026-8-20T16:8:16Z</time></trkpt><trkpt lat="42.4000415020" lon="13.6972636543"><ele>1545.70</ele><time>2026-8-20T16:8:25Z</time></trkpt><trkpt lat="42.4000351317" lon="13.6970851570"><ele>1545.76</ele><time>2026-8-20T16:8:34Z</time></trkpt><trkpt lat="42.4000296928" lon="13.6969091836"><ele>1545.50</ele><time>2026-8-20T16:8:43Z</time></trkpt><trkpt lat="42.4000420328" lon="13.6967272964"><ele>1545.25</ele><time>2026-8-20T16:8:52Z</time></trkpt><trkpt lat="42.4000586313" lon="13.6965457827"><ele>1545.09</ele><time>2026-8-20T16:9:0Z</time></trkpt><trkpt lat="42.4000869319" lon="13.6963681597"><ele>1545.12</ele><time>2026-8-20T16:9:9Z</time></trkpt><trkpt lat="42.4001108296" lon="13.6961875577"><ele>1545.38</ele><time>2026-8-20T16:9:18Z</time></trkpt><trkpt lat="42.4001442210" lon="13.6960135633"><ele>1545.09</ele><time>2026-8-20T16:9:26Z</time></trkpt><trkpt lat="42.4001796031" lon="13.6958371662"><ele>1545.09</ele><time>2026-8-20T16:9:34Z</time></trkpt><trkpt lat="42.4001809023" lon="13.6956610289"><ele>1545.22</ele><time>2026-8-20T16:9:43Z</time></trkpt><trkpt lat="42.4001950957" lon="13.6954811867"><ele>1545.62</ele><time>2026-8-20T16:9:53Z</time></trkpt><trkpt lat="42.4002142716" lon="13.6953021865"><ele>1545.70</ele><time>2026-8-20T16:10:2Z</time></trkpt><trkpt lat="42.4002288992" lon="13.6951239395"><ele>1545.77</ele><time>2026-8-20T16:10:10Z</time></trkpt><trkpt lat="42.4002422392" lon="13.6949572153"><ele>1545.87</ele><time>2026-8-20T16:10:19Z</time></trkpt><trkpt lat="42.4002613593" lon="13.6947647017"><ele>1546.15</ele><time>2026-8-20T16:10:28Z</time></trkpt><trkpt lat="42.4002797774" lon="13.6945788539"><ele>1546.33</ele><time>2026-8-20T16:10:36Z</time></trkpt><trkpt lat="42.4002893269" lon="13.6943976115"><ele>1546.60</ele><time>2026-8-20T16:10:45Z</time></trkpt><trkpt lat="42.4002911802" lon="13.6942137685"><ele>1546.80</ele><time>2026-8-20T16:10:54Z</time></trkpt><trkpt lat="42.4002928566" lon="13.6940294318"><ele>1546.98</ele><time>2026-8-20T16:11:3Z</time></trkpt><trkpt lat="42.4003001454" lon="13.6938448087"><ele>1547.18</ele><time>2026-8-20T16:11:11Z</time></trkpt><trkpt lat="42.4003184680" lon="13.6936831195"><ele>1547.31</ele><time>2026-8-20T16:11:20Z</time></trkpt><trkpt lat="42.4003290105" lon="13.6934944056"><ele>1547.49</ele><time>2026-8-20T16:11:29Z</time></trkpt><trkpt lat="42.4003263190" lon="13.6933079641"><ele>1547.93</ele><time>2026-8-20T16:11:38Z</time></trkpt><trkpt lat="42.4003311794" lon="13.6931328708"><ele>1548.02</ele><time>2026-8-20T16:11:46Z</time></trkpt><trkpt lat="42.4003348034" lon="13.6929579731"><ele>1547.58</ele><time>2026-8-20T16:11:55Z</time></trkpt><trkpt lat="42.4003332330" lon="13.6927725538"><ele>1547.60</ele><time>2026-8-20T16:12:3Z</time></trkpt><trkpt lat="42.4003322481" lon="13.6925909598"><ele>1547.83</ele><time>2026-8-20T16:12:11Z</time></trkpt><trkpt lat="42.4003280327" lon="13.6924086511"><ele>1547.82</ele><time>2026-8-20T16:12:20Z</time></trkpt><trkpt lat="42.4003218766" lon="13.6922275182"><ele>1548.07</ele><time>2026-8-20T16:12:29Z</time></trkpt><trkpt lat="42.4003212619" lon="13.6920381431"><ele>1548.28</ele><time>2026-8-20T16:12:38Z</time></trkpt><trkpt lat="42.4003199860" lon="13.6918564979"><ele>1548.26</ele><time>2026-8-20T16:12:47Z</time></trkpt><trkpt lat="42.4003038835" lon="13.6916753650"><ele>1548.35</ele><time>2026-8-20T16:12:56Z</time></trkpt><trkpt lat="42.4002856552" lon="13.6914995732"><ele>1548.35</ele><time>2026-8-20T16:13:4Z</time></trkpt><trkpt lat="42.4002722837" lon="13.6913293041"><ele>1548.66</ele><time>2026-8-20T16:13:13Z</time></trkpt><trkpt lat="42.4002609681" lon="13.6911472212"><ele>1548.30</ele><time>2026-8-20T16:13:22Z</time></trkpt><trkpt lat="42.4002471864" lon="13.6909624860"><ele>1548.51</ele><time>2026-8-20T16:13:31Z</time></trkpt><trkpt lat="42.4002305232" lon="13.6907741195"><ele>1549.43</ele><time>2026-8-20T16:13:40Z</time></trkpt><trkpt lat="42.4002074939" lon="13.6906002473"><ele>1549.64</ele><time>2026-8-20T16:13:48Z</time></trkpt><trkpt lat="42.4001904484" lon="13.6904190387"><ele>1549.36</ele><time>2026-8-20T16:13:57Z</time></trkpt><trkpt lat="42.4001338918" lon="13.6902744084"><ele>1549.57</ele><time>2026-8-20T16:14:5Z</time></trkpt><trkpt lat="42.4000996910" lon="13.6901151761"><ele>1549.51</ele><time>2026-8-20T16:14:13Z</time></trkpt><trkpt lat="42.4000730901" lon="13.6899462075"><ele>1549.74</ele><time>2026-8-20T16:14:21Z</time></trkpt><trkpt lat="42.4000462650" lon="13.6897743919"><ele>1550.12</ele><time>2026-8-20T16:14:29Z</time></trkpt><trkpt lat="42.4000061816" lon="13.6896071699"><ele>1550.14</ele><time>2026-8-20T16:14:36Z</time></trkpt><trkpt lat="42.3999953270" lon="13.6894234656"><ele>1550.04</ele><time>2026-8-20T16:14:44Z</time></trkpt><trkpt lat="42.3999988788" lon="13.6892459204"><ele>1550.26</ele><time>2026-8-20T16:14:51Z</time></trkpt><trkpt lat="42.3999770305" lon="13.6890727548"><ele>1550.30</ele><time>2026-8-20T16:14:59Z</time></trkpt><trkpt lat="42.3999374709" lon="13.6889080459"><ele>1550.81</ele><time>2026-8-20T16:15:6Z</time></trkpt><trkpt lat="42.3998970911" lon="13.6887331784"><ele>1550.99</ele><time>2026-8-20T16:15:14Z</time></trkpt><trkpt lat="42.3998420849" lon="13.6885573890"><ele>1551.23</ele><time>2026-8-20T16:15:22Z</time></trkpt><trkpt lat="42.3997880186" lon="13.6883982630"><ele>1551.41</ele><time>2026-8-20T16:15:30Z</time></trkpt><trkpt lat="42.3997617473" lon="13.6882281822"><ele>1551.32</ele><time>2026-8-20T16:15:37Z</time></trkpt><trkpt lat="42.3997512699" lon="13.6880359493"><ele>1551.17</ele><time>2026-8-20T16:15:44Z</time></trkpt><trkpt lat="42.3997146171" lon="13.6878870358"><ele>1551.46</ele><time>2026-8-20T16:15:51Z</time></trkpt><trkpt lat="42.3996671441" lon="13.6877095595"><ele>1551.59</ele><time>2026-8-20T16:15:59Z</time></trkpt><trkpt lat="42.3996189062" lon="13.6875409680"><ele>1551.73</ele><time>2026-8-20T16:16:7Z</time></trkpt><trkpt lat="42.3995805425" lon="13.6873739705"><ele>1551.48</ele><time>2026-8-20T16:16:15Z</time></trkpt><trkpt lat="42.3995275435" lon="13.6872066977"><ele>1551.39</ele><time>2026-8-20T16:16:22Z</time></trkpt><trkpt lat="42.3994752299" lon="13.6870361678"><ele>1551.61</ele><time>2026-8-20T16:16:30Z</time></trkpt><trkpt lat="42.3994372809" lon="13.6868592154"><ele>1551.66</ele><time>2026-8-20T16:16:37Z</time></trkpt><trkpt lat="42.3993883620" lon="13.6866940814"><ele>1551.70</ele><time>2026-8-20T16:16:45Z</time></trkpt><trkpt lat="42.3993354078" lon="13.6865295776"><ele>1551.66</ele><time>2026-8-20T16:16:53Z</time></trkpt><trkpt lat="42.3992773122" lon="13.6863645155"><ele>1551.83</ele><time>2026-8-20T16:17:0Z</time></trkpt><trkpt lat="42.3992198213" lon="13.6862062157"><ele>1551.73</ele><time>2026-8-20T16:17:8Z</time></trkpt><trkpt lat="42.3991724756" lon="13.6860362382"><ele>1551.57</ele><time>2026-8-20T16:17:15Z</time></trkpt><trkpt lat="42.3991137929" lon="13.6858660169"><ele>1551.67</ele><time>2026-8-20T16:17:24Z</time></trkpt><trkpt lat="42.3990672093" lon="13.6856941308"><ele>1551.86</ele><time>2026-8-20T16:17:32Z</time></trkpt><trkpt lat="42.3990106734" lon="13.6855409201"><ele>1551.84</ele><time>2026-8-20T16:17:40Z</time></trkpt><trkpt lat="42.3989401851" lon="13.6853903066"><ele>1552.11</ele><time>2026-8-20T16:17:49Z</time></trkpt><trkpt lat="42.3988781230" lon="13.6852629596"><ele>1551.83</ele><time>2026-8-20T16:18:44Z</time></trkpt><trkpt lat="42.3988718311" lon="13.6852369845"><ele>1551.53</ele><time>2026-8-20T16:20:6Z</time></trkpt><trkpt lat="42.3988411075" lon="13.6851276714"><ele>1551.60</ele><time>2026-8-20T16:20:42Z</time></trkpt><trkpt lat="42.3987663304" lon="13.6849769124"><ele>1551.89</ele><time>2026-8-20T16:20:50Z</time></trkpt><trkpt lat="42.3986849096" lon="13.6848325189"><ele>1552.01</ele><time>2026-8-20T16:20:59Z</time></trkpt><trkpt lat="42.3985981371" lon="13.6846922315"><ele>1552.44</ele><time>2026-8-20T16:21:7Z</time></trkpt><trkpt lat="42.3985118663" lon="13.6845494038"><ele>1552.80</ele><time>2026-8-20T16:21:15Z</time></trkpt><trkpt lat="42.3984379880" lon="13.6844215728"><ele>1552.87</ele><time>2026-8-20T16:21:24Z</time></trkpt><trkpt lat="42.3983376171" lon="13.6843021482"><ele>1553.08</ele><time>2026-8-20T16:21:32Z</time></trkpt><trkpt lat="42.3982151114" lon="13.6842292445"><ele>1553.10</ele><time>2026-8-20T16:21:41Z</time></trkpt><trkpt lat="42.3980805064" lon="13.6841701772"><ele>1552.72</ele><time>2026-8-20T16:21:51Z</time></trkpt><trkpt lat="42.3979613157" lon="13.6841137335"><ele>1553.54</ele><time>2026-8-20T16:22:1Z</time></trkpt><trkpt lat="42.3978735244" lon="13.6839934531"><ele>1554.50</ele><time>2026-8-20T16:22:12Z</time></trkpt><trkpt lat="42.3977874104" lon="13.6838717874"><ele>1554.97</ele><time>2026-8-20T16:22:26Z</time></trkpt><trkpt lat="42.3977562273" lon="13.6838696053"><ele>1555.00</ele><time>2026-8-20T16:22:50Z</time></trkpt><trkpt lat="42.3977100598" lon="13.6838083388"><ele>1555.26</ele><time>2026-8-20T16:23:11Z</time></trkpt><trkpt lat="42.3976236675" lon="13.6836986244"><ele>1555.38</ele><time>2026-8-20T16:23:21Z</time></trkpt><trkpt lat="42.3975079805" lon="13.6836168040"><ele>1555.62</ele><time>2026-8-20T16:23:30Z</time></trkpt><trkpt lat="42.3974023266" lon="13.6835115105"><ele>1555.96</ele><time>2026-8-20T16:23:40Z</time></trkpt><trkpt lat="42.3973057046" lon="13.6833923310"><ele>1556.26</ele><time>2026-8-20T16:23:50Z</time></trkpt><trkpt lat="42.3972381465" lon="13.6832405161"><ele>1556.92</ele><time>2026-8-20T16:23:59Z</time></trkpt><trkpt lat="42.3971745837" lon="13.6830987409"><ele>1556.99</ele><time>2026-8-20T16:24:12Z</time></trkpt><trkpt lat="42.3970955761" lon="13.6829501262"><ele>1556.99</ele><time>2026-8-20T16:24:25Z</time></trkpt><trkpt lat="42.3970291032" lon="13.6827889617"><ele>1557.72</ele><time>2026-8-20T16:24:33Z</time></trkpt><trkpt lat="42.3969482298" lon="13.6826595092"><ele>1558.36</ele><time>2026-8-20T16:24:40Z</time></trkpt><trkpt lat="42.3968595359" lon="13.6825287249"><ele>1558.73</ele><time>2026-8-20T16:24:48Z</time></trkpt><trkpt lat="42.3967497283" lon="13.6824147741"><ele>1559.44</ele><time>2026-8-20T16:24:56Z</time></trkpt><trkpt lat="42.3966686148" lon="13.6822800152"><ele>1560.04</ele><time>2026-8-20T16:25:5Z</time></trkpt><trkpt lat="42.3965934582" lon="13.6821302399"><ele>1560.61</ele><time>2026-8-20T16:25:13Z</time></trkpt><trkpt lat="42.3965084301" lon="13.6819914859"><ele>1561.45</ele><time>2026-8-20T16:25:22Z</time></trkpt><trkpt lat="42.3964294139" lon="13.6818613950"><ele>1561.95</ele><time>2026-8-20T16:25:32Z</time></trkpt><trkpt lat="42.3963420548" lon="13.6817239888"><ele>1563.10</ele><time>2026-8-20T16:25:45Z</time></trkpt><trkpt lat="42.3963013385" lon="13.6816874030"><ele>1563.21</ele><time>2026-8-20T16:25:59Z</time></trkpt><trkpt lat="42.3962091124" lon="13.6815298274"><ele>1564.24</ele><time>2026-8-20T16:26:10Z</time></trkpt><trkpt lat="42.3961250754" lon="13.6813856671"><ele>1565.07</ele><time>2026-8-20T16:26:20Z</time></trkpt><trkpt lat="42.3960465028" lon="13.6812376962"><ele>1566.27</ele><time>2026-8-20T16:26:32Z</time></trkpt><trkpt lat="42.3959750782" lon="13.6811748383"><ele>1567.00</ele><time>2026-8-20T16:26:58Z</time></trkpt><trkpt lat="42.3958844994" lon="13.6811206536"><ele>1567.48</ele><time>2026-8-20T16:27:23Z</time></trkpt><trkpt lat="42.3957964964" lon="13.6809831841"><ele>1568.39</ele><time>2026-8-20T16:27:35Z</time></trkpt><trkpt lat="42.3957093246" lon="13.6808519692"><ele>1569.74</ele><time>2026-8-20T16:27:46Z</time></trkpt><trkpt lat="42.3955970719" lon="13.6807052897"><ele>1571.35</ele><time>2026-8-20T16:28:2Z</time></trkpt><trkpt lat="42.3955602868" lon="13.6806889793"><ele>1571.68</ele><time>2026-8-20T16:28:41Z</time></trkpt><trkpt lat="42.3954556463" lon="13.6805138905"><ele>1572.49</ele><time>2026-8-20T16:29:13Z</time></trkpt><trkpt lat="42.3953791995" lon="13.6803727224"><ele>1573.77</ele><time>2026-8-20T16:29:24Z</time></trkpt><trkpt lat="42.3952991050" lon="13.6802323256"><ele>1574.93</ele><time>2026-8-20T16:29:34Z</time></trkpt><trkpt lat="42.3952519605" lon="13.6801302039"><ele>1576.71</ele><time>2026-8-20T16:30:5Z</time></trkpt><trkpt lat="42.3951864783" lon="13.6799671976"><ele>1577.35</ele><time>2026-8-20T16:30:36Z</time></trkpt><trkpt lat="42.3951069508" lon="13.6798387281"><ele>1578.84</ele><time>2026-8-20T16:30:46Z</time></trkpt><trkpt lat="42.3950168537" lon="13.6796675884"><ele>1580.77</ele><time>2026-8-20T16:31:4Z</time></trkpt><trkpt lat="42.3950017192" lon="13.6796459504"><ele>1580.94</ele><time>2026-8-20T16:32:55Z</time></trkpt><trkpt lat="42.3949945159" lon="13.6796480528"><ele>1582.14</ele><time>2026-8-20T16:35:5Z</time></trkpt><trkpt lat="42.3949727617" lon="13.6796527766"><ele>1582.21</ele><time>2026-8-20T16:36:3Z</time></trkpt><trkpt lat="42.3948428187" lon="13.6795115352"><ele>1583.17</ele><time>2026-8-20T16:36:35Z</time></trkpt><trkpt lat="42.3947466421" lon="13.6793890223"><ele>1584.73</ele><time>2026-8-20T16:36:46Z</time></trkpt><trkpt lat="42.3946381868" lon="13.6792517267"><ele>1587.10</ele><time>2026-8-20T16:37:7Z</time></trkpt><trkpt lat="42.3946200873" lon="13.6792228607"><ele>1587.74</ele><time>2026-8-20T16:37:54Z</time></trkpt><trkpt lat="42.3945090081" lon="13.6791199576"><ele>1588.49</ele><time>2026-8-20T16:38:34Z</time></trkpt><trkpt lat="42.3944104426" lon="13.6790076625"><ele>1590.12</ele><time>2026-8-20T16:38:49Z</time></trkpt><trkpt lat="42.3942984041" lon="13.6789111910"><ele>1591.79</ele><time>2026-8-20T16:39:4Z</time></trkpt><trkpt lat="42.3941909330" lon="13.6788071802"><ele>1593.40</ele><time>2026-8-20T16:39:21Z</time></trkpt><trkpt lat="42.3940727860" lon="13.6787196994"><ele>1595.20</ele><time>2026-8-20T16:39:38Z</time></trkpt><trkpt lat="42.3939495194" lon="13.6786429639"><ele>1597.11</ele><time>2026-8-20T16:39:56Z</time></trkpt><trkpt lat="42.3938297090" lon="13.6785735941"><ele>1598.65</ele><time>2026-8-20T16:40:12Z</time></trkpt><trkpt lat="42.3937281681" lon="13.6784734719"><ele>1600.34</ele><time>2026-8-20T16:40:29Z</time></trkpt><trkpt lat="42.3936330476" lon="13.6783570340"><ele>1602.24</ele><time>2026-8-20T16:40:47Z</time></trkpt><trkpt lat="42.3935404792" lon="13.6782274954"><ele>1604.19</ele><time>2026-8-20T16:41:6Z</time></trkpt><trkpt lat="42.3934457564" lon="13.6781222344"><ele>1606.12</ele><time>2026-8-20T16:41:25Z</time></trkpt><trkpt lat="42.3933387857" lon="13.6780188502"><ele>1608.14</ele><time>2026-8-20T16:41:44Z</time></trkpt><trkpt lat="42.3932446931" lon="13.6779263970"><ele>1610.27</ele><time>2026-8-20T16:42:3Z</time></trkpt><trkpt lat="42.3931237662" lon="13.6778645983"><ele>1612.48</ele><time>2026-8-20T16:42:25Z</time></trkpt><trkpt lat="42.3930042204" lon="13.6777962470"><ele>1615.00</ele><time>2026-8-20T16:42:46Z</time></trkpt><trkpt lat="42.3928881565" lon="13.6777611503"><ele>1617.50</ele><time>2026-8-20T16:43:9Z</time></trkpt><trkpt lat="42.3927667221" lon="13.6777545866"><ele>1619.60</ele><time>2026-8-20T16:43:35Z</time></trkpt><trkpt lat="42.3926517703" lon="13.6778329402"><ele>1622.44</ele><time>2026-8-20T16:44:0Z</time></trkpt><trkpt lat="42.3925719783" lon="13.6779561943"><ele>1624.95</ele><time>2026-8-20T16:44:23Z</time></trkpt><trkpt lat="42.3924964000" lon="13.6780782823"><ele>1627.16</ele><time>2026-8-20T16:44:44Z</time></trkpt><trkpt lat="42.3924179748" lon="13.6782142427"><ele>1629.27</ele><time>2026-8-20T16:45:4Z</time></trkpt><trkpt lat="42.3923129942" lon="13.6783313979"><ele>1631.15</ele><time>2026-8-20T16:45:24Z</time></trkpt><trkpt lat="42.3922184262" lon="13.6784652796"><ele>1633.31</ele><time>2026-8-20T16:45:47Z</time></trkpt><trkpt lat="42.3921378045" lon="13.6785598094"><ele>1634.98</ele><time>2026-8-20T16:46:9Z</time></trkpt><trkpt lat="42.3920267588" lon="13.6786655523"><ele>1636.59</ele><time>2026-8-20T16:46:27Z</time></trkpt><trkpt lat="42.3919062685" lon="13.6787503517"><ele>1638.50</ele><time>2026-8-20T16:46:47Z</time></trkpt><trkpt lat="42.3918606597" lon="13.6787856767"><ele>1639.56</ele><time>2026-8-20T16:47:40Z</time></trkpt><trkpt lat="42.3918385753" lon="13.6788010571"><ele>1639.91</ele><time>2026-8-20T16:49:29Z</time></trkpt><trkpt lat="42.3917446286" lon="13.6788332742"><ele>1640.87</ele><time>2026-8-20T16:50:42Z</time></trkpt><trkpt lat="42.3916139938" lon="13.6788795870"><ele>1642.18</ele><time>2026-8-20T16:50:51Z</time></trkpt><trkpt lat="42.3914833214" lon="13.6789181955"><ele>1643.79</ele><time>2026-8-20T16:51:2Z</time></trkpt><trkpt lat="42.3913543057" lon="13.6789497854"><ele>1645.17</ele><time>2026-8-20T16:51:12Z</time></trkpt><trkpt lat="42.3912777390" lon="13.6789782085"><ele>1647.50</ele><time>2026-8-20T16:52:42Z</time></trkpt><trkpt lat="42.3911819235" lon="13.6789926631"><ele>1648.42</ele><time>2026-8-20T16:54:11Z</time></trkpt><trkpt lat="42.3910470481" lon="13.6789715302"><ele>1648.82</ele><time>2026-8-20T16:54:19Z</time></trkpt><trkpt lat="42.3909082753" lon="13.6789535300"><ele>1649.42</ele><time>2026-8-20T16:54:27Z</time></trkpt><trkpt lat="42.3907725653" lon="13.6789333821"><ele>1649.82</ele><time>2026-8-20T16:54:34Z</time></trkpt><trkpt lat="42.3906415701" lon="13.6789236450"><ele>1650.14</ele><time>2026-8-20T16:54:40Z</time></trkpt><trkpt lat="42.3905084974" lon="13.6789325319"><ele>1650.53</ele><time>2026-8-20T16:54:47Z</time></trkpt><trkpt lat="42.3903680167" lon="13.6789305920"><ele>1650.94</ele><time>2026-8-20T16:54:54Z</time></trkpt><trkpt lat="42.3902330082" lon="13.6789471004"><ele>1651.33</ele><time>2026-8-20T16:55:0Z</time></trkpt><trkpt lat="42.3901032563" lon="13.6789666582"><ele>1651.72</ele><time>2026-8-20T16:55:6Z</time></trkpt><trkpt lat="42.3899713012" lon="13.6790007965"><ele>1652.03</ele><time>2026-8-20T16:55:13Z</time></trkpt><trkpt lat="42.3898333591" lon="13.6790693784"><ele>1652.26</ele><time>2026-8-20T16:55:19Z</time></trkpt><trkpt lat="42.3897180241" lon="13.6791541278"><ele>1652.24</ele><time>2026-8-20T16:55:25Z</time></trkpt><trkpt lat="42.3896041512" lon="13.6792209745"><ele>1652.06</ele><time>2026-8-20T16:55:32Z</time></trkpt><trkpt lat="42.3895490479" lon="13.6793429727"><ele>1651.60</ele><time>2026-8-20T16:56:4Z</time></trkpt><trkpt lat="42.3895468069" lon="13.6793676652"><ele>1651.79</ele><time>2026-8-20T16:56:42Z</time></trkpt><trkpt lat="42.3894238612" lon="13.6795329605"><ele>1651.57</ele><time>2026-8-20T16:56:54Z</time></trkpt><trkpt lat="42.3893332528" lon="13.6796666938"><ele>1651.06</ele><time>2026-8-20T16:56:58Z</time></trkpt><trkpt lat="42.3892331519" lon="13.6798011186"><ele>1650.37</ele><time>2026-8-20T16:57:2Z</time></trkpt><trkpt lat="42.3891386669" lon="13.6799418926"><ele>1649.51</ele><time>2026-8-20T16:57:6Z</time></trkpt><trkpt lat="42.3890597932" lon="13.6800678168"><ele>1648.94</ele><time>2026-8-20T16:57:9Z</time></trkpt><trkpt lat="42.3889864725" lon="13.6802165886"><ele>1648.25</ele><time>2026-8-20T16:57:12Z</time></trkpt><trkpt lat="42.3889231347" lon="13.6803787239"><ele>1647.20</ele><time>2026-8-20T16:57:17Z</time></trkpt><trkpt lat="42.3888813844" lon="13.6805368821"><ele>1646.52</ele><time>2026-8-20T16:57:21Z</time></trkpt><trkpt lat="42.3888377356" lon="13.6807121057"><ele>1646.07</ele><time>2026-8-20T16:57:25Z</time></trkpt><trkpt lat="42.3887830856" lon="13.6808871827"><ele>1645.55</ele><time>2026-8-20T16:57:29Z</time></trkpt><trkpt lat="42.3887223937" lon="13.6810594099"><ele>1645.04</ele><time>2026-8-20T16:57:34Z</time></trkpt><trkpt lat="42.3886574060" lon="13.6812223680"><ele>1644.47</ele><time>2026-8-20T16:57:40Z</time></trkpt><trkpt lat="42.3886032519" lon="13.6813952518"><ele>1644.05</ele><time>2026-8-20T16:57:45Z</time></trkpt><trkpt lat="42.3885581084" lon="13.6815517489"><ele>1643.71</ele><time>2026-8-20T16:57:49Z</time></trkpt><trkpt lat="42.3885036958" lon="13.6817056546"><ele>1643.32</ele><time>2026-8-20T16:57:52Z</time></trkpt><trkpt lat="42.3884387361" lon="13.6818831833"><ele>1642.96</ele><time>2026-8-20T16:57:56Z</time></trkpt><trkpt lat="42.3883632571" lon="13.6820413359"><ele>1642.52</ele><time>2026-8-20T16:58:0Z</time></trkpt><trkpt lat="42.3882821202" lon="13.6821711995"><ele>1642.14</ele><time>2026-8-20T16:58:3Z</time></trkpt><trkpt lat="42.3881908204" lon="13.6823141598"><ele>1641.72</ele><time>2026-8-20T16:58:6Z</time></trkpt><trkpt lat="42.3881098092" lon="13.6824591249"><ele>1641.06</ele><time>2026-8-20T16:58:10Z</time></trkpt><trkpt lat="42.3880521711" lon="13.6826179325"><ele>1640.01</ele><time>2026-8-20T16:58:15Z</time></trkpt><trkpt lat="42.3879480846" lon="13.6827160343"><ele>1639.19</ele><time>2026-8-20T16:58:20Z</time></trkpt><trkpt lat="42.3878108729" lon="13.6827118266"><ele>1638.51</ele><time>2026-8-20T16:58:25Z</time></trkpt><trkpt lat="42.3876964934" lon="13.6826685257"><ele>1637.87</ele><time>2026-8-20T16:58:30Z</time></trkpt><trkpt lat="42.3875766274" lon="13.6825838685"><ele>1636.95</ele><time>2026-8-20T16:58:36Z</time></trkpt><trkpt lat="42.3874636441" lon="13.6824710313"><ele>1636.15</ele><time>2026-8-20T16:58:42Z</time></trkpt><trkpt lat="42.3873951640" lon="13.6823182795"><ele>1635.44</ele><time>2026-8-20T16:58:47Z</time></trkpt><trkpt lat="42.3873395613" lon="13.6821447127"><ele>1634.37</ele><time>2026-8-20T16:58:52Z</time></trkpt><trkpt lat="42.3872618610" lon="13.6820118316"><ele>1633.11</ele><time>2026-8-20T16:58:58Z</time></trkpt><trkpt lat="42.3871491504" lon="13.6820139829"><ele>1631.61</ele><time>2026-8-20T16:59:5Z</time></trkpt><trkpt lat="42.3871103972" lon="13.6821762901"><ele>1630.30</ele><time>2026-8-20T16:59:11Z</time></trkpt><trkpt lat="42.3871324919" lon="13.6823480688"><ele>1628.83</ele><time>2026-8-20T16:59:16Z</time></trkpt><trkpt lat="42.3871389683" lon="13.6825284083"><ele>1627.10</ele><time>2026-8-20T16:59:21Z</time></trkpt><trkpt lat="42.3871596397" lon="13.6827179670"><ele>1625.28</ele><time>2026-8-20T16:59:28Z</time></trkpt><trkpt lat="42.3871979714" lon="13.6828940827"><ele>1623.24</ele><time>2026-8-20T16:59:34Z</time></trkpt><trkpt lat="42.3872101706" lon="13.6830661752"><ele>1621.60</ele><time>2026-8-20T16:59:40Z</time></trkpt><trkpt lat="42.3871899415" lon="13.6832461897"><ele>1619.97</ele><time>2026-8-20T16:59:46Z</time></trkpt><trkpt lat="42.3871724233" lon="13.6834276412"><ele>1618.81</ele><time>2026-8-20T16:59:51Z</time></trkpt><trkpt lat="42.3871397171" lon="13.6835977770"><ele>1617.23</ele><time>2026-8-20T16:59:56Z</time></trkpt><trkpt lat="42.3870670628" lon="13.6837523058"><ele>1615.48</ele><time>2026-8-20T17:0:1Z</time></trkpt><trkpt lat="42.3869983479" lon="13.6839084188"><ele>1614.13</ele><time>2026-8-20T17:0:5Z</time></trkpt><trkpt lat="42.3869226803" lon="13.6840285314"><ele>1612.51</ele><time>2026-8-20T17:0:9Z</time></trkpt><trkpt lat="42.3868231494" lon="13.6841516364"><ele>1610.95</ele><time>2026-8-20T17:0:14Z</time></trkpt><trkpt lat="42.3867207058" lon="13.6842824277"><ele>1609.00</ele><time>2026-8-20T17:0:19Z</time></trkpt><trkpt lat="42.3866169546" lon="13.6843972095"><ele>1607.03</ele><time>2026-8-20T17:0:24Z</time></trkpt><trkpt lat="42.3865154944" lon="13.6845027236"><ele>1605.14</ele><time>2026-8-20T17:0:29Z</time></trkpt><trkpt lat="42.3864125200" lon="13.6846195646"><ele>1603.23</ele><time>2026-8-20T17:0:35Z</time></trkpt><trkpt lat="42.3863051226" lon="13.6847294681"><ele>1601.48</ele><time>2026-8-20T17:0:40Z</time></trkpt><trkpt lat="42.3862080462" lon="13.6848374130"><ele>1599.43</ele><time>2026-8-20T17:0:46Z</time></trkpt><trkpt lat="42.3861128138" lon="13.6849837191"><ele>1597.50</ele><time>2026-8-20T17:0:52Z</time></trkpt><trkpt lat="42.3860193416" lon="13.6851256639"><ele>1595.75</ele><time>2026-8-20T17:0:58Z</time></trkpt><trkpt lat="42.3859283309" lon="13.6852575280"><ele>1594.29</ele><time>2026-8-20T17:1:3Z</time></trkpt><trkpt lat="42.3858448025" lon="13.6853939574"><ele>1592.74</ele><time>2026-8-20T17:1:7Z</time></trkpt><trkpt lat="42.3857607181" lon="13.6855277187"><ele>1591.63</ele><time>2026-8-20T17:1:10Z</time></trkpt><trkpt lat="42.3856701516" lon="13.6856667660"><ele>1589.93</ele><time>2026-8-20T17:1:15Z</time></trkpt><trkpt lat="42.3855750002" lon="13.6858077831"><ele>1587.75</ele><time>2026-8-20T17:1:20Z</time></trkpt><trkpt lat="42.3854704318" lon="13.6859404854"><ele>1586.36</ele><time>2026-8-20T17:1:24Z</time></trkpt><trkpt lat="42.3853747733" lon="13.6860604472"><ele>1584.68</ele><time>2026-8-20T17:1:29Z</time></trkpt><trkpt lat="42.3852917645" lon="13.6861746479"><ele>1583.21</ele><time>2026-8-20T17:1:33Z</time></trkpt><trkpt lat="42.3851903505" lon="13.6863045534"><ele>1582.05</ele><time>2026-8-20T17:1:36Z</time></trkpt><trkpt lat="42.3850964103" lon="13.6864463542"><ele>1580.30</ele><time>2026-8-20T17:1:40Z</time></trkpt><trkpt lat="42.3850046843" lon="13.6865909211"><ele>1578.46</ele><time>2026-8-20T17:1:44Z</time></trkpt><trkpt lat="42.3849187978" lon="13.6867283844"><ele>1577.31</ele><time>2026-8-20T17:1:46Z</time></trkpt><trkpt lat="42.3848243337" lon="13.6868595891"><ele>1576.38</ele><time>2026-8-20T17:1:49Z</time></trkpt><trkpt lat="42.3847336415" lon="13.6870070408"><ele>1575.08</ele><time>2026-8-20T17:1:51Z</time></trkpt><trkpt lat="42.3846480623" lon="13.6871102639"><ele>1573.97</ele><time>2026-8-20T17:1:53Z</time></trkpt><trkpt lat="42.3845480662" lon="13.6872278899"><ele>1572.90</ele><time>2026-8-20T17:1:56Z</time></trkpt><trkpt lat="42.3844329826" lon="13.6873594020"><ele>1571.73</ele><time>2026-8-20T17:1:59Z</time></trkpt><trkpt lat="42.3843265325" lon="13.6874650279"><ele>1570.85</ele><time>2026-8-20T17:2:1Z</time></trkpt><trkpt lat="42.3842345830" lon="13.6875790637"><ele>1569.93</ele><time>2026-8-20T17:2:4Z</time></trkpt><trkpt lat="42.3841454554" lon="13.6877079774"><ele>1568.99</ele><time>2026-8-20T17:2:7Z</time></trkpt><trkpt lat="42.3840642418" lon="13.6878565256"><ele>1568.13</ele><time>2026-8-20T17:2:10Z</time></trkpt><trkpt lat="42.3839771748" lon="13.6880249530"><ele>1567.22</ele><time>2026-8-20T17:2:14Z</time></trkpt><trkpt lat="42.3839002848" lon="13.6881739553"><ele>1566.18</ele><time>2026-8-20T17:2:17Z</time></trkpt><trkpt lat="42.3838399910" lon="13.6883143522"><ele>1565.26</ele><time>2026-8-20T17:2:20Z</time></trkpt><trkpt lat="42.3838027474" lon="13.6884922930"><ele>1564.19</ele><time>2026-8-20T17:2:23Z</time></trkpt><trkpt lat="42.3837765120" lon="13.6886966787"><ele>1562.54</ele><time>2026-8-20T17:2:27Z</time></trkpt><trkpt lat="42.3837536853" lon="13.6888608802"><ele>1561.21</ele><time>2026-8-20T17:2:30Z</time></trkpt><trkpt lat="42.3837227281" lon="13.6890431028"><ele>1559.97</ele><time>2026-8-20T17:2:33Z</time></trkpt><trkpt lat="42.3836915195" lon="13.6892092601"><ele>1558.93</ele><time>2026-8-20T17:2:35Z</time></trkpt><trkpt lat="42.3836533819" lon="13.6893650796"><ele>1557.58</ele><time>2026-8-20T17:2:38Z</time></trkpt><trkpt lat="42.3836183734" lon="13.6895538959"><ele>1556.35</ele><time>2026-8-20T17:2:41Z</time></trkpt><trkpt lat="42.3835849017" lon="13.6897311802"><ele>1554.97</ele><time>2026-8-20T17:2:44Z</time></trkpt><trkpt lat="42.3835402820" lon="13.6898978054"><ele>1553.57</ele><time>2026-8-20T17:2:48Z</time></trkpt><trkpt lat="42.3834835645" lon="13.6900513619"><ele>1552.10</ele><time>2026-8-20T17:2:51Z</time></trkpt><trkpt lat="42.3834134359" lon="13.6902389768"><ele>1550.91</ele><time>2026-8-20T17:2:54Z</time></trkpt><trkpt lat="42.3833342548" lon="13.6904063634"><ele>1549.56</ele><time>2026-8-20T17:2:57Z</time></trkpt><trkpt lat="42.3832647549" lon="13.6905462155"><ele>1548.36</ele><time>2026-8-20T17:2:59Z</time></trkpt><trkpt lat="42.3832070455" lon="13.6906896718"><ele>1546.48</ele><time>2026-8-20T17:3:2Z</time></trkpt><trkpt lat="42.3831746634" lon="13.6908566393"><ele>1545.09</ele><time>2026-8-20T17:3:5Z</time></trkpt><trkpt lat="42.3831986636" lon="13.6910280492"><ele>1543.52</ele><time>2026-8-20T17:3:8Z</time></trkpt><trkpt lat="42.3832554650" lon="13.6911937315"><ele>1542.11</ele><time>2026-8-20T17:3:12Z</time></trkpt><trkpt lat="42.3833070207" lon="13.6913709529"><ele>1541.13</ele><time>2026-8-20T17:3:15Z</time></trkpt><trkpt lat="42.3833461013" lon="13.6915467493"><ele>1540.58</ele><time>2026-8-20T17:3:19Z</time></trkpt><trkpt lat="42.3833621139" lon="13.6917624039"><ele>1540.42</ele><time>2026-8-20T17:3:33Z</time></trkpt><trkpt lat="42.3833559319" lon="13.6917455639"><ele>1539.64</ele><time>2026-8-20T17:4:20Z</time></trkpt><trkpt lat="42.3833679171" lon="13.6917431673"><ele>1540.27</ele><time>2026-8-20T17:5:21Z</time></trkpt><trkpt lat="42.3833552096" lon="13.6918484699"><ele>1539.96</ele><time>2026-8-20T17:5:51Z</time></trkpt><trkpt lat="42.3833247610" lon="13.6920230482"><ele>1539.90</ele><time>2026-8-20T17:5:57Z</time></trkpt><trkpt lat="42.3832874489" lon="13.6922102328"><ele>1539.64</ele><time>2026-8-20T17:6:1Z</time></trkpt><trkpt lat="42.3832410341" lon="13.6923800083"><ele>1539.26</ele><time>2026-8-20T17:6:4Z</time></trkpt><trkpt lat="42.3832018208" lon="13.6925326008"><ele>1538.85</ele><time>2026-8-20T17:6:7Z</time></trkpt><trkpt lat="42.3831358831" lon="13.6927196570"><ele>1538.34</ele><time>2026-8-20T17:6:10Z</time></trkpt><trkpt lat="42.3830718873" lon="13.6928644404"><ele>1537.89</ele><time>2026-8-20T17:6:12Z</time></trkpt><trkpt lat="42.3830257449" lon="13.6930376105"><ele>1537.39</ele><time>2026-8-20T17:6:15Z</time></trkpt><trkpt lat="42.3830270302" lon="13.6932252254"><ele>1536.72</ele><time>2026-8-20T17:6:18Z</time></trkpt><trkpt lat="42.3830444366" lon="13.6933892104"><ele>1536.16</ele><time>2026-8-20T17:6:21Z</time></trkpt><trkpt lat="42.3830531202" lon="13.6935845800"><ele>1535.96</ele><time>2026-8-20T17:6:26Z</time></trkpt><trkpt lat="42.3830505386" lon="13.6937785372"><ele>1536.18</ele><time>2026-8-20T17:6:31Z</time></trkpt><trkpt lat="42.3830421734" lon="13.6939589852"><ele>1536.45</ele><time>2026-8-20T17:6:37Z</time></trkpt><trkpt lat="42.3830378867" lon="13.6941442133"><ele>1537.04</ele><time>2026-8-20T17:6:44Z</time></trkpt><trkpt lat="42.3830378029" lon="13.6943140546"><ele>1537.55</ele><time>2026-8-20T17:6:51Z</time></trkpt><trkpt lat="42.3830294916" lon="13.6944962209"><ele>1538.45</ele><time>2026-8-20T17:6:59Z</time></trkpt><trkpt lat="42.3830253258" lon="13.6946728665"><ele>1539.60</ele><time>2026-8-20T17:7:10Z</time></trkpt><trkpt lat="42.3830279137" lon="13.6948536546"><ele>1540.58</ele><time>2026-8-20T17:7:19Z</time></trkpt><trkpt lat="42.3830174930" lon="13.6950610187"><ele>1542.04</ele><time>2026-8-20T17:7:33Z</time></trkpt><trkpt lat="42.3830131302" lon="13.6951504787"><ele>1542.83</ele><time>2026-8-20T17:7:49Z</time></trkpt><trkpt lat="42.3829996586" lon="13.6953617260"><ele>1543.06</ele><time>2026-8-20T17:8:0Z</time></trkpt><trkpt lat="42.3830042966" lon="13.6955440510"><ele>1543.66</ele><time>2026-8-20T17:8:9Z</time></trkpt><trkpt lat="42.3830123758" lon="13.6957248801"><ele>1544.08</ele><time>2026-8-20T17:8:17Z</time></trkpt><trkpt lat="42.3830301245" lon="13.6958913237"><ele>1544.52</ele><time>2026-8-20T17:8:25Z</time></trkpt><trkpt lat="42.3830580153" lon="13.6960718222"><ele>1544.80</ele><time>2026-8-20T17:8:34Z</time></trkpt><trkpt lat="42.3830693895" lon="13.6962589268"><ele>1544.99</ele><time>2026-8-20T17:8:43Z</time></trkpt><trkpt lat="42.3830537777" lon="13.6964378692"><ele>1545.42</ele><time>2026-8-20T17:8:53Z</time></trkpt><trkpt lat="42.3830237123" lon="13.6966066249"><ele>1546.01</ele><time>2026-8-20T17:9:1Z</time></trkpt><trkpt lat="42.3829783034" lon="13.6967837624"><ele>1546.49</ele><time>2026-8-20T17:9:10Z</time></trkpt><trkpt lat="42.3829423091" lon="13.6969703636"><ele>1546.87</ele><time>2026-8-20T17:9:18Z</time></trkpt><trkpt lat="42.3829110991" lon="13.6971292738"><ele>1547.26</ele><time>2026-8-20T17:9:26Z</time></trkpt><trkpt lat="42.3828788102" lon="13.6973176976"><ele>1547.62</ele><time>2026-8-20T17:9:34Z</time></trkpt><trkpt lat="42.3828514666" lon="13.6974847969"><ele>1547.95</ele><time>2026-8-20T17:9:42Z</time></trkpt><trkpt lat="42.3828238165" lon="13.6976667512"><ele>1548.45</ele><time>2026-8-20T17:9:51Z</time></trkpt><trkpt lat="42.3828019272" lon="13.6978419498"><ele>1549.05</ele><time>2026-8-20T17:10:0Z</time></trkpt><trkpt lat="42.3827855028" lon="13.6980172489"><ele>1549.75</ele><time>2026-8-20T17:10:9Z</time></trkpt><trkpt lat="42.3827566439" lon="13.6981972083"><ele>1550.69</ele><time>2026-8-20T17:10:19Z</time></trkpt><trkpt lat="42.3827337962" lon="13.6983817653"><ele>1551.79</ele><time>2026-8-20T17:10:30Z</time></trkpt><trkpt lat="42.3827115134" lon="13.6985616559"><ele>1553.39</ele><time>2026-8-20T17:10:50Z</time></trkpt><trkpt lat="42.3826994908" lon="13.6986801629"><ele>1553.89</ele><time>2026-8-20T17:11:10Z</time></trkpt><trkpt lat="42.3826617951" lon="13.6988511461"><ele>1554.88</ele><time>2026-8-20T17:11:21Z</time></trkpt><trkpt lat="42.3826245451" lon="13.6990281986"><ele>1556.00</ele><time>2026-8-20T17:11:32Z</time></trkpt><trkpt lat="42.3825823956" lon="13.6992028356"><ele>1557.85</ele><time>2026-8-20T17:11:44Z</time></trkpt><trkpt lat="42.3825267896" lon="13.6993552895"><ele>1559.51</ele><time>2026-8-20T17:11:56Z</time></trkpt><trkpt lat="42.3824631516" lon="13.6995203085"><ele>1561.12</ele><time>2026-8-20T17:12:7Z</time></trkpt><trkpt lat="42.3824128068" lon="13.6996874467"><ele>1562.54</ele><time>2026-8-20T17:12:18Z</time></trkpt><trkpt lat="42.3823734485" lon="13.6998689287"><ele>1563.34</ele><time>2026-8-20T17:12:28Z</time></trkpt><trkpt lat="42.3823576653" lon="13.7000356091"><ele>1563.48</ele><time>2026-8-20T17:12:37Z</time></trkpt><trkpt lat="42.3823716212" lon="13.7002118262"><ele>1562.32</ele><time>2026-8-20T17:12:47Z</time></trkpt><trkpt lat="42.3824005052" lon="13.7004028559"><ele>1560.99</ele><time>2026-8-20T17:12:55Z</time></trkpt><trkpt lat="42.3824178684" lon="13.7005721452"><ele>1560.05</ele><time>2026-8-20T17:12:59Z</time></trkpt><trkpt lat="42.3824329767" lon="13.7007513293"><ele>1558.43</ele><time>2026-8-20T17:13:3Z</time></trkpt><trkpt lat="42.3824214307" lon="13.7009514682"><ele>1556.87</ele><time>2026-8-20T17:13:7Z</time></trkpt><trkpt lat="42.3824067414" lon="13.7011171505"><ele>1555.65</ele><time>2026-8-20T17:13:11Z</time></trkpt><trkpt lat="42.3823865200" lon="13.7012921926"><ele>1554.19</ele><time>2026-8-20T17:13:14Z</time></trkpt><trkpt lat="42.3823618354" lon="13.7014656351"><ele>1552.75</ele><time>2026-8-20T17:13:18Z</time></trkpt><trkpt lat="42.3823524267" lon="13.7016384210"><ele>1551.60</ele><time>2026-8-20T17:13:22Z</time></trkpt><trkpt lat="42.3823392671" lon="13.7018230464"><ele>1550.49</ele><time>2026-8-20T17:13:25Z</time></trkpt><trkpt lat="42.3823111877" lon="13.7020004913"><ele>1549.07</ele><time>2026-8-20T17:13:28Z</time></trkpt><trkpt lat="42.3822775483" lon="13.7021775171"><ele>1547.87</ele><time>2026-8-20T17:13:31Z</time></trkpt><trkpt lat="42.3822430149" lon="13.7023583427"><ele>1547.04</ele><time>2026-8-20T17:13:34Z</time></trkpt><trkpt lat="42.3822137620" lon="13.7025424931"><ele>1545.84</ele><time>2026-8-20T17:13:37Z</time></trkpt><trkpt lat="42.3821924720" lon="13.7027204130"><ele>1545.02</ele><time>2026-8-20T17:13:40Z</time></trkpt><trkpt lat="42.3821809609" lon="13.7028860394"><ele>1544.32</ele><time>2026-8-20T17:13:43Z</time></trkpt><trkpt lat="42.3821697640" lon="13.7030804297"><ele>1543.63</ele><time>2026-8-20T17:13:46Z</time></trkpt><trkpt lat="42.3821540550" lon="13.7032761611"><ele>1542.87</ele><time>2026-8-20T17:13:50Z</time></trkpt><trkpt lat="42.3821365088" lon="13.7034429330"><ele>1542.35</ele><time>2026-8-20T17:13:53Z</time></trkpt><trkpt lat="42.3821152607" lon="13.7036314141"><ele>1541.83</ele><time>2026-8-20T17:13:56Z</time></trkpt><trkpt lat="42.3820961080" lon="13.7038142513"><ele>1541.38</ele><time>2026-8-20T17:14:0Z</time></trkpt><trkpt lat="42.3820740637" lon="13.7039839989"><ele>1541.08</ele><time>2026-8-20T17:14:3Z</time></trkpt><trkpt lat="42.3820599611" lon="13.7041799468"><ele>1540.95</ele><time>2026-8-20T17:14:7Z</time></trkpt><trkpt lat="42.3820531648" lon="13.7043499667"><ele>1540.65</ele><time>2026-8-20T17:14:11Z</time></trkpt><trkpt lat="42.3820518097" lon="13.7045254698"><ele>1540.24</ele><time>2026-8-20T17:14:14Z</time></trkpt><trkpt lat="42.3820355907" lon="13.7047165772"><ele>1539.71</ele><time>2026-8-20T17:14:18Z</time></trkpt><trkpt lat="42.3819980817" lon="13.7048963900"><ele>1539.08</ele><time>2026-8-20T17:14:22Z</time></trkpt><trkpt lat="42.3819339685" lon="13.7050602436"><ele>1538.56</ele><time>2026-8-20T17:14:27Z</time></trkpt><trkpt lat="42.3818602204" lon="13.7051921245"><ele>1538.29</ele><time>2026-8-20T17:14:31Z</time></trkpt><trkpt lat="42.3817732791" lon="13.7053246843"><ele>1538.18</ele><time>2026-8-20T17:14:35Z</time></trkpt><trkpt lat="42.3816699721" lon="13.7054570136"><ele>1538.24</ele><time>2026-8-20T17:14:39Z</time></trkpt><trkpt lat="42.3815613846" lon="13.7055696035"><ele>1538.34</ele><time>2026-8-20T17:14:43Z</time></trkpt><trkpt lat="42.3814695189" lon="13.7056875578"><ele>1538.42</ele><time>2026-8-20T17:14:47Z</time></trkpt><trkpt lat="42.3813892063" lon="13.7058391236"><ele>1538.78</ele><time>2026-8-20T17:14:52Z</time></trkpt><trkpt lat="42.3813190889" lon="13.7059959825"><ele>1539.28</ele><time>2026-8-20T17:14:58Z</time></trkpt><trkpt lat="42.3812514134" lon="13.7061402183"><ele>1539.86</ele><time>2026-8-20T17:15:3Z</time></trkpt><trkpt lat="42.3811873212" lon="13.7062913901"><ele>1540.27</ele><time>2026-8-20T17:15:7Z</time></trkpt><trkpt lat="42.3811193020" lon="13.7064598035"><ele>1540.25</ele><time>2026-8-20T17:15:11Z</time></trkpt><trkpt lat="42.3810540419" lon="13.7066255976"><ele>1540.08</ele><time>2026-8-20T17:15:15Z</time></trkpt><trkpt lat="42.3809954803" lon="13.7067808095"><ele>1539.99</ele><time>2026-8-20T17:15:18Z</time></trkpt><trkpt lat="42.3809302971" lon="13.7069528550"><ele>1539.41</ele><time>2026-8-20T17:15:23Z</time></trkpt><trkpt lat="42.3808601126" lon="13.7071100017"><ele>1538.25</ele><time>2026-8-20T17:15:29Z</time></trkpt><trkpt lat="42.3808112182" lon="13.7072729878"><ele>1536.50</ele><time>2026-8-20T17:15:35Z</time></trkpt><trkpt lat="42.3807778163" lon="13.7074504187"><ele>1534.67</ele><time>2026-8-20T17:15:41Z</time></trkpt><trkpt lat="42.3807226614" lon="13.7076154165"><ele>1532.47</ele><time>2026-8-20T17:15:48Z</time></trkpt><trkpt lat="42.3806401547" lon="13.7077729292"><ele>1530.72</ele><time>2026-8-20T17:15:54Z</time></trkpt><trkpt lat="42.3805537960" lon="13.7079036701"><ele>1529.60</ele><time>2026-8-20T17:15:58Z</time></trkpt><trkpt lat="42.3804678186" lon="13.7080488657"><ele>1528.52</ele><time>2026-8-20T17:16:2Z</time></trkpt><trkpt lat="42.3803888261" lon="13.7081804965"><ele>1527.14</ele><time>2026-8-20T17:16:6Z</time></trkpt><trkpt lat="42.3803322413" lon="13.7083287374"><ele>1525.72</ele><time>2026-8-20T17:16:9Z</time></trkpt><trkpt lat="42.3803186207" lon="13.7085183361"><ele>1523.82</ele><time>2026-8-20T17:16:13Z</time></trkpt><trkpt lat="42.3803528398" lon="13.7086885725"><ele>1521.83</ele><time>2026-8-20T17:16:17Z</time></trkpt><trkpt lat="42.3803987727" lon="13.7088576648"><ele>1519.59</ele><time>2026-8-20T17:16:22Z</time></trkpt><trkpt lat="42.3804194760" lon="13.7090538978"><ele>1517.73</ele><time>2026-8-20T17:16:26Z</time></trkpt><trkpt lat="42.3804070079" lon="13.7092246790"><ele>1516.09</ele><time>2026-8-20T17:16:30Z</time></trkpt><trkpt lat="42.3803759529" lon="13.7093942659"><ele>1514.66</ele><time>2026-8-20T17:16:34Z</time></trkpt><trkpt lat="42.3803116009" lon="13.7095623860"><ele>1513.26</ele><time>2026-8-20T17:16:38Z</time></trkpt><trkpt lat="42.3802235909" lon="13.7097043754"><ele>1511.69</ele><time>2026-8-20T17:16:42Z</time></trkpt><trkpt lat="42.3801410012" lon="13.7098485511"><ele>1510.31</ele><time>2026-8-20T17:16:46Z</time></trkpt><trkpt lat="42.3800736596" lon="13.7100064801"><ele>1508.98</ele><time>2026-8-20T17:16:49Z</time></trkpt><trkpt lat="42.3800092377" lon="13.7101802789"><ele>1507.33</ele><time>2026-8-20T17:16:53Z</time></trkpt><trkpt lat="42.3799570464" lon="13.7103578635"><ele>1505.96</ele><time>2026-8-20T17:16:56Z</time></trkpt><trkpt lat="42.3799088505" lon="13.7105100649"><ele>1505.14</ele><time>2026-8-20T17:16:58Z</time></trkpt><trkpt lat="42.3798547592" lon="13.7106702011"><ele>1504.36</ele><time>2026-8-20T17:17:1Z</time></trkpt><trkpt lat="42.3797884444" lon="13.7108232966"><ele>1503.39</ele><time>2026-8-20T17:17:3Z</time></trkpt><trkpt lat="42.3797179665" lon="13.7109576165"><ele>1502.71</ele><time>2026-8-20T17:17:6Z</time></trkpt><trkpt lat="42.3796194512" lon="13.7110994384"><ele>1502.00</ele><time>2026-8-20T17:17:9Z</time></trkpt><trkpt lat="42.3795154039" lon="13.7112119235"><ele>1501.42</ele><time>2026-8-20T17:17:12Z</time></trkpt><trkpt lat="42.3793888581" lon="13.7113080011"><ele>1500.94</ele><time>2026-8-20T17:17:15Z</time></trkpt><trkpt lat="42.3792619631" lon="13.7114093453"><ele>1500.60</ele><time>2026-8-20T17:17:19Z</time></trkpt><trkpt lat="42.3791494710" lon="13.7115088734"><ele>1500.69</ele><time>2026-8-20T17:17:22Z</time></trkpt><trkpt lat="42.3790577520" lon="13.7116213795"><ele>1500.86</ele><time>2026-8-20T17:17:26Z</time></trkpt><trkpt lat="42.3789801523" lon="13.7117611561"><ele>1501.21</ele><time>2026-8-20T17:17:30Z</time></trkpt><trkpt lat="42.3788984679" lon="13.7119294423"><ele>1501.16</ele><time>2026-8-20T17:17:35Z</time></trkpt><trkpt lat="42.3788180191" lon="13.7120694551"><ele>1501.67</ele><time>2026-8-20T17:17:42Z</time></trkpt><trkpt lat="42.3787444737" lon="13.7122134771"><ele>1502.29</ele><time>2026-8-20T17:17:51Z</time></trkpt><trkpt lat="42.3786658235" lon="13.7123520859"><ele>1503.25</ele><time>2026-8-20T17:18:0Z</time></trkpt><trkpt lat="42.3785660391" lon="13.7124690413"><ele>1504.13</ele><time>2026-8-20T17:18:10Z</time></trkpt><trkpt lat="42.3784556113" lon="13.7125514354"><ele>1505.38</ele><time>2026-8-20T17:18:21Z</time></trkpt><trkpt lat="42.3783348687" lon="13.7126187212"><ele>1506.96</ele><time>2026-8-20T17:18:32Z</time></trkpt><trkpt lat="42.3782021022" lon="13.7126797708"><ele>1508.81</ele><time>2026-8-20T17:18:43Z</time></trkpt><trkpt lat="42.3780776261" lon="13.7127199417"><ele>1510.58</ele><time>2026-8-20T17:18:55Z</time></trkpt><trkpt lat="42.3779510436" lon="13.7127556034"><ele>1512.68</ele><time>2026-8-20T17:19:8Z</time></trkpt><trkpt lat="42.3778397905" lon="13.7128511014"><ele>1514.19</ele><time>2026-8-20T17:19:20Z</time></trkpt><trkpt lat="42.3777633042" lon="13.7129958592"><ele>1515.24</ele><time>2026-8-20T17:19:32Z</time></trkpt><trkpt lat="42.3776883250" lon="13.7131346231"><ele>1516.15</ele><time>2026-8-20T17:19:42Z</time></trkpt><trkpt lat="42.3775813915" lon="13.7132605910"><ele>1516.46</ele><time>2026-8-20T17:19:52Z</time></trkpt><trkpt lat="42.3774851393" lon="13.7133773777"><ele>1516.54</ele><time>2026-8-20T17:20:0Z</time></trkpt><trkpt lat="42.3774149199" lon="13.7135243229"><ele>1516.58</ele><time>2026-8-20T17:20:8Z</time></trkpt><trkpt lat="42.3773795513" lon="13.7137065934"><ele>1516.46</ele><time>2026-8-20T17:20:16Z</time></trkpt><trkpt lat="42.3773540743" lon="13.7139004189"><ele>1515.90</ele><time>2026-8-20T17:20:22Z</time></trkpt><trkpt lat="42.3773216084" lon="13.7140555009"><ele>1515.15</ele><time>2026-8-20T17:20:28Z</time></trkpt><trkpt lat="42.3772584927" lon="13.7142254859"><ele>1513.64</ele><time>2026-8-20T17:20:33Z</time></trkpt><trkpt lat="42.3771574236" lon="13.7143548858"><ele>1511.91</ele><time>2026-8-20T17:20:38Z</time></trkpt><trkpt lat="42.3770372383" lon="13.7144285767"><ele>1509.60</ele><time>2026-8-20T17:20:43Z</time></trkpt><trkpt lat="42.3769206516" lon="13.7144982498"><ele>1507.71</ele><time>2026-8-20T17:20:49Z</time></trkpt><trkpt lat="42.3768041767" lon="13.7145741228"><ele>1505.84</ele><time>2026-8-20T17:20:54Z</time></trkpt><trkpt lat="42.3766899649" lon="13.7146655023"><ele>1503.81</ele><time>2026-8-20T17:20:59Z</time></trkpt><trkpt lat="42.3765875045" lon="13.7147809547"><ele>1501.55</ele><time>2026-8-20T17:21:4Z</time></trkpt><trkpt lat="42.3764866199" lon="13.7149071358"><ele>1499.10</ele><time>2026-8-20T17:21:9Z</time></trkpt><trkpt lat="42.3763929605" lon="13.7150370553"><ele>1497.04</ele><time>2026-8-20T17:21:14Z</time></trkpt><trkpt lat="42.3762905714" lon="13.7151568872"><ele>1495.04</ele><time>2026-8-20T17:21:18Z</time></trkpt><trkpt lat="42.3761808034" lon="13.7152701197"><ele>1492.94</ele><time>2026-8-20T17:21:23Z</time></trkpt><trkpt lat="42.3760763928" lon="13.7153736013"><ele>1490.87</ele><time>2026-8-20T17:21:28Z</time></trkpt><trkpt lat="42.3759735972" lon="13.7154763341"><ele>1488.80</ele><time>2026-8-20T17:21:33Z</time></trkpt><trkpt lat="42.3758640932" lon="13.7155945413"><ele>1486.52</ele><time>2026-8-20T17:21:38Z</time></trkpt><trkpt lat="42.3757453915" lon="13.7157163750"><ele>1484.24</ele><time>2026-8-20T17:21:44Z</time></trkpt><trkpt lat="42.3756341846" lon="13.7158311484"><ele>1482.60</ele><time>2026-8-20T17:21:48Z</time></trkpt><trkpt lat="42.3755245004" lon="13.7159394007"><ele>1481.07</ele><time>2026-8-20T17:21:52Z</time></trkpt><trkpt lat="42.3754097242" lon="13.7160532270"><ele>1479.83</ele><time>2026-8-20T17:21:55Z</time></trkpt><trkpt lat="42.3753038608" lon="13.7161521613"><ele>1478.50</ele><time>2026-8-20T17:21:58Z</time></trkpt><trkpt lat="42.3751967680" lon="13.7162572425"><ele>1476.87</ele><time>2026-8-20T17:22:1Z</time></trkpt><trkpt lat="42.3750930280" lon="13.7163566798"><ele>1475.32</ele><time>2026-8-20T17:22:4Z</time></trkpt><trkpt lat="42.3749708757" lon="13.7164566200"><ele>1474.20</ele><time>2026-8-20T17:22:7Z</time></trkpt><trkpt lat="42.3748612265" lon="13.7165359827"><ele>1473.25</ele><time>2026-8-20T17:22:9Z</time></trkpt><trkpt lat="42.3747428321" lon="13.7166112382"><ele>1472.41</ele><time>2026-8-20T17:22:12Z</time></trkpt><trkpt lat="42.3746254435" lon="13.7166820374"><ele>1471.71</ele><time>2026-8-20T17:22:14Z</time></trkpt><trkpt lat="42.3745024111" lon="13.7167568598"><ele>1470.56</ele><time>2026-8-20T17:22:17Z</time></trkpt><trkpt lat="42.3743745313" lon="13.7168327440"><ele>1469.75</ele><time>2026-8-20T17:22:19Z</time></trkpt><trkpt lat="42.3742441367" lon="13.7169106957"><ele>1469.22</ele><time>2026-8-20T17:22:22Z</time></trkpt><trkpt lat="42.3741215654" lon="13.7169740210"><ele>1468.55</ele><time>2026-8-20T17:22:24Z</time></trkpt><trkpt lat="42.3739949986" lon="13.7170275604"><ele>1467.90</ele><time>2026-8-20T17:22:27Z</time></trkpt><trkpt lat="42.3738610978" lon="13.7170752743"><ele>1467.25</ele><time>2026-8-20T17:22:31Z</time></trkpt><trkpt lat="42.3737372384" lon="13.7171177790"><ele>1467.11</ele><time>2026-8-20T17:22:36Z</time></trkpt><trkpt lat="42.3736120798" lon="13.7171724457"><ele>1467.13</ele><time>2026-8-20T17:22:41Z</time></trkpt><trkpt lat="42.3734850269" lon="13.7172651999"><ele>1467.15</ele><time>2026-8-20T17:22:46Z</time></trkpt><trkpt lat="42.3733868413" lon="13.7173953708"><ele>1467.15</ele><time>2026-8-20T17:22:51Z</time></trkpt><trkpt lat="42.3733209260" lon="13.7175467312"><ele>1466.99</ele><time>2026-8-20T17:22:56Z</time></trkpt><trkpt lat="42.3732779268" lon="13.7177166659"><ele>1466.49</ele><time>2026-8-20T17:23:1Z</time></trkpt><trkpt lat="42.3732544910" lon="13.7178877071"><ele>1465.71</ele><time>2026-8-20T17:23:6Z</time></trkpt><trkpt lat="42.3732230533" lon="13.7180761993"><ele>1464.59</ele><time>2026-8-20T17:23:11Z</time></trkpt><trkpt lat="42.3731922219" lon="13.7182496838"><ele>1463.30</ele><time>2026-8-20T17:23:16Z</time></trkpt><trkpt lat="42.3731143330" lon="13.7183954241"><ele>1462.17</ele><time>2026-8-20T17:23:20Z</time></trkpt><trkpt lat="42.3730150494" lon="13.7185076578"><ele>1460.97</ele><time>2026-8-20T17:23:24Z</time></trkpt><trkpt lat="42.3729100242" lon="13.7186040706"><ele>1459.45</ele><time>2026-8-20T17:23:28Z</time></trkpt><trkpt lat="42.3727811524" lon="13.7186967535"><ele>1458.08</ele><time>2026-8-20T17:23:32Z</time></trkpt><trkpt lat="42.3726347415" lon="13.7187457038"><ele>1456.37</ele><time>2026-8-20T17:23:36Z</time></trkpt><trkpt lat="42.3725031666" lon="13.7187531637"><ele>1454.82</ele><time>2026-8-20T17:23:40Z</time></trkpt><trkpt lat="42.3723852332" lon="13.7187336968"><ele>1453.51</ele><time>2026-8-20T17:23:44Z</time></trkpt><trkpt lat="42.3722562902" lon="13.7186621111"><ele>1451.64</ele><time>2026-8-20T17:23:49Z</time></trkpt><trkpt lat="42.3721232358" lon="13.7185748806"><ele>1449.73</ele><time>2026-8-20T17:23:53Z</time></trkpt><trkpt lat="42.3720083828" lon="13.7185021048"><ele>1447.78</ele><time>2026-8-20T17:23:57Z</time></trkpt><trkpt lat="42.3718938735" lon="13.7184435446"><ele>1445.41</ele><time>2026-8-20T17:24:2Z</time></trkpt><trkpt lat="42.3717664350" lon="13.7183796074"><ele>1443.53</ele><time>2026-8-20T17:24:7Z</time></trkpt><trkpt lat="42.3716499237" lon="13.7182929134"><ele>1441.65</ele><time>2026-8-20T17:24:12Z</time></trkpt><trkpt lat="42.3715519952" lon="13.7181591662"><ele>1440.33</ele><time>2026-8-20T17:24:18Z</time></trkpt><trkpt lat="42.3714556053" lon="13.7180624530"><ele>1438.70</ele><time>2026-8-20T17:24:25Z</time></trkpt><trkpt lat="42.3713642425" lon="13.7181615510"><ele>1437.48</ele><time>2026-8-20T17:24:32Z</time></trkpt><trkpt lat="42.3713906994" lon="13.7183337053"><ele>1435.65</ele><time>2026-8-20T17:24:38Z</time></trkpt><trkpt lat="42.3714392865" lon="13.7184857391"><ele>1433.65</ele><time>2026-8-20T17:24:44Z</time></trkpt><trkpt lat="42.3714776377" lon="13.7186696859"><ele>1431.84</ele><time>2026-8-20T17:24:51Z</time></trkpt><trkpt lat="42.3715161011" lon="13.7188554648"><ele>1430.12</ele><time>2026-8-20T17:24:57Z</time></trkpt><trkpt lat="42.3715246362" lon="13.7190159184"><ele>1428.53</ele><time>2026-8-20T17:25:3Z</time></trkpt><trkpt lat="42.3715059506" lon="13.7191985222"><ele>1426.67</ele><time>2026-8-20T17:25:9Z</time></trkpt><trkpt lat="42.3715195712" lon="13.7193635059"><ele>1424.55</ele><time>2026-8-20T17:25:15Z</time></trkpt><trkpt lat="42.3715346027" lon="13.7195436889"><ele>1422.10</ele><time>2026-8-20T17:25:21Z</time></trkpt><trkpt lat="42.3714813288" lon="13.7197383656"><ele>1418.74</ele><time>2026-8-20T17:25:30Z</time></trkpt><trkpt lat="42.3714163690" lon="13.7198654911"><ele>1415.86</ele><time>2026-8-20T17:25:42Z</time></trkpt><trkpt lat="42.3713340168" lon="13.7200062792"><ele>1414.43</ele><time>2026-8-20T17:25:50Z</time></trkpt><trkpt lat="42.3712410196" lon="13.7201295979"><ele>1413.56</ele><time>2026-8-20T17:25:54Z</time></trkpt><trkpt lat="42.3711487558" lon="13.7202566676"><ele>1412.59</ele><time>2026-8-20T17:25:58Z</time></trkpt><trkpt lat="42.3710556747" lon="13.7203901913"><ele>1411.52</ele><time>2026-8-20T17:26:1Z</time></trkpt><trkpt lat="42.3709630966" lon="13.7205241062"><ele>1410.47</ele><time>2026-8-20T17:26:5Z</time></trkpt><trkpt lat="42.3708730191" lon="13.7206415366"><ele>1409.41</ele><time>2026-8-20T17:26:8Z</time></trkpt><trkpt lat="42.3707617633" lon="13.7207793212"><ele>1408.31</ele><time>2026-8-20T17:26:11Z</time></trkpt><trkpt lat="42.3706712388" lon="13.7209031638"><ele>1407.28</ele><time>2026-8-20T17:26:15Z</time></trkpt><trkpt lat="42.3705842975" lon="13.7210241775"><ele>1406.37</ele><time>2026-8-20T17:26:18Z</time></trkpt><trkpt lat="42.3704913212" lon="13.7211484811"><ele>1405.48</ele><time>2026-8-20T17:26:22Z</time></trkpt><trkpt lat="42.3703930434" lon="13.7212724425"><ele>1404.74</ele><time>2026-8-20T17:26:26Z</time></trkpt><trkpt lat="42.3702929006" lon="13.7213990581"><ele>1403.67</ele><time>2026-8-20T17:26:29Z</time></trkpt><trkpt lat="42.3701889999" lon="13.7215242628"><ele>1402.55</ele><time>2026-8-20T17:26:33Z</time></trkpt><trkpt lat="42.3700872716" lon="13.7216321938"><ele>1401.63</ele><time>2026-8-20T17:26:36Z</time></trkpt><trkpt lat="42.3699662997" lon="13.7217536545"><ele>1400.38</ele><time>2026-8-20T17:26:39Z</time></trkpt><trkpt lat="42.3698527738" lon="13.7218820862"><ele>1398.72</ele><time>2026-8-20T17:26:43Z</time></trkpt><trkpt lat="42.3697614949" lon="13.7219958846"><ele>1397.72</ele><time>2026-8-20T17:26:46Z</time></trkpt><trkpt lat="42.3696678970" lon="13.7221163046"><ele>1396.82</ele><time>2026-8-20T17:26:49Z</time></trkpt><trkpt lat="42.3695814517" lon="13.7222487386"><ele>1395.49</ele><time>2026-8-20T17:26:52Z</time></trkpt><trkpt lat="42.3695106385" lon="13.7223971961"><ele>1394.25</ele><time>2026-8-20T17:26:55Z</time></trkpt><trkpt lat="42.3694512947" lon="13.7225604546"><ele>1393.20</ele><time>2026-8-20T17:26:59Z</time></trkpt><trkpt lat="42.3693939541" lon="13.7227269988"><ele>1391.93</ele><time>2026-8-20T17:27:4Z</time></trkpt><trkpt lat="42.3693200201" lon="13.7228874397"><ele>1390.83</ele><time>2026-8-20T17:27:8Z</time></trkpt><trkpt lat="42.3692216165" lon="13.7229941413"><ele>1389.87</ele><time>2026-8-20T17:27:11Z</time></trkpt><trkpt lat="42.3690881247" lon="13.7231022938"><ele>1386.18</ele><time>2026-8-20T17:27:19Z</time></trkpt><trkpt lat="42.3690385614" lon="13.7230904253"><ele>1383.74</ele><time>2026-8-20T17:27:59Z</time></trkpt><trkpt lat="42.3690300909" lon="13.7230872914"><ele>1383.46</ele><time>2026-8-20T17:28:49Z</time></trkpt><trkpt lat="42.3688830435" lon="13.7231371421"><ele>1382.96</ele><time>2026-8-20T17:29:9Z</time></trkpt><trkpt lat="42.3688104842" lon="13.7230368331"><ele>1382.08</ele><time>2026-8-20T17:29:13Z</time></trkpt><trkpt lat="42.3687904514" lon="13.7228648644"><ele>1381.46</ele><time>2026-8-20T17:29:16Z</time></trkpt><trkpt lat="42.3687129468" lon="13.7226841506"><ele>1380.92</ele><time>2026-8-20T17:29:19Z</time></trkpt><trkpt lat="42.3685995676" lon="13.7225563266"><ele>1380.33</ele><time>2026-8-20T17:29:21Z</time></trkpt><trkpt lat="42.3685093783" lon="13.7224559114"><ele>1379.60</ele><time>2026-8-20T17:29:23Z</time></trkpt><trkpt lat="42.3684406886" lon="13.7223103177"><ele>1379.05</ele><time>2026-8-20T17:29:25Z</time></trkpt><trkpt lat="42.3684028443" lon="13.7221249519"><ele>1378.44</ele><time>2026-8-20T17:29:27Z</time></trkpt><trkpt lat="42.3683826440" lon="13.7219314138"><ele>1377.74</ele><time>2026-8-20T17:29:29Z</time></trkpt><trkpt lat="42.3683644133" lon="13.7217389234"><ele>1377.10</ele><time>2026-8-20T17:29:31Z</time></trkpt><trkpt lat="42.3683479428" lon="13.7215889711"><ele>1376.67</ele><time>2026-8-20T17:29:33Z</time></trkpt><trkpt lat="42.3683350347" lon="13.7214515079"><ele>1376.19</ele><time>2026-8-20T17:29:34Z</time></trkpt><trkpt lat="42.3683094140" lon="13.7212281302"><ele>1375.69</ele><time>2026-8-20T17:29:37Z</time></trkpt><trkpt lat="42.3682891857" lon="13.7210418843"><ele>1375.23</ele><time>2026-8-20T17:29:39Z</time></trkpt><trkpt lat="42.3682776606" lon="13.7209032057"><ele>1374.80</ele><time>2026-8-20T17:29:40Z</time></trkpt><trkpt lat="42.3682565382" lon="13.7207217375"><ele>1374.28</ele><time>2026-8-20T17:29:42Z</time></trkpt><trkpt lat="42.3682295345" lon="13.7205052469"><ele>1373.35</ele><time>2026-8-20T17:29:45Z</time></trkpt><trkpt lat="42.3682014272" lon="13.7202993734"><ele>1372.52</ele><time>2026-8-20T17:29:47Z</time></trkpt><trkpt lat="42.3681641277" lon="13.7201421289"><ele>1371.80</ele><time>2026-8-20T17:29:49Z</time></trkpt><trkpt lat="42.3681138363" lon="13.7199946493"><ele>1371.03</ele><time>2026-8-20T17:29:51Z</time></trkpt><trkpt lat="42.3680482898" lon="13.7198581081"><ele>1370.39</ele><time>2026-8-20T17:29:53Z</time></trkpt><trkpt lat="42.3679449130" lon="13.7197211478"><ele>1369.74</ele><time>2026-8-20T17:29:56Z</time></trkpt><trkpt lat="42.3678252474" lon="13.7196140271"><ele>1369.00</ele><time>2026-8-20T17:29:58Z</time></trkpt><trkpt lat="42.3676958028" lon="13.7195310462"><ele>1368.63</ele><time>2026-8-20T17:30:1Z</time></trkpt><trkpt lat="42.3675627262" lon="13.7194571598"><ele>1368.45</ele><time>2026-8-20T17:30:3Z</time></trkpt><trkpt lat="42.3674592097" lon="13.7193696527"><ele>1368.24</ele><time>2026-8-20T17:30:5Z</time></trkpt><trkpt lat="42.3673816351" lon="13.7192577962"><ele>1367.81</ele><time>2026-8-20T17:30:7Z</time></trkpt><trkpt lat="42.3673449364" lon="13.7190821115"><ele>1367.38</ele><time>2026-8-20T17:30:10Z</time></trkpt><trkpt lat="42.3673388874" lon="13.7189024035"><ele>1367.10</ele><time>2026-8-20T17:30:12Z</time></trkpt><trkpt lat="42.3673511669" lon="13.7187153194"><ele>1366.92</ele><time>2026-8-20T17:30:15Z</time></trkpt><trkpt lat="42.3673649970" lon="13.7185294088"><ele>1366.72</ele><time>2026-8-20T17:30:17Z</time></trkpt><trkpt lat="42.3673744686" lon="13.7183515169"><ele>1366.29</ele><time>2026-8-20T17:30:20Z</time></trkpt><trkpt lat="42.3673859797" lon="13.7181416061"><ele>1365.76</ele><time>2026-8-20T17:30:23Z</time></trkpt><trkpt lat="42.3673974770" lon="13.7179762870"><ele>1365.30</ele><time>2026-8-20T17:30:25Z</time></trkpt><trkpt lat="42.3674093932" lon="13.7178137339"><ele>1364.87</ele><time>2026-8-20T17:30:28Z</time></trkpt><trkpt lat="42.3674242292" lon="13.7176241074"><ele>1364.08</ele><time>2026-8-20T17:30:31Z</time></trkpt><trkpt lat="42.3674399103" lon="13.7174216565"><ele>1363.50</ele><time>2026-8-20T17:30:34Z</time></trkpt><trkpt lat="42.3674247321" lon="13.7172573432"><ele>1363.02</ele><time>2026-8-20T17:30:38Z</time></trkpt><trkpt lat="42.3673278024" lon="13.7171634310"><ele>1362.53</ele><time>2026-8-20T17:30:41Z</time></trkpt><trkpt lat="42.3672156315" lon="13.7172071077"><ele>1362.14</ele><time>2026-8-20T17:30:45Z</time></trkpt><trkpt lat="42.3671833891" lon="13.7173952255"><ele>1361.84</ele><time>2026-8-20T17:30:48Z</time></trkpt><trkpt lat="42.3671800085" lon="13.7175961258"><ele>1361.41</ele><time>2026-8-20T17:30:50Z</time></trkpt><trkpt lat="42.3671721295" lon="13.7177800247"><ele>1360.82</ele><time>2026-8-20T17:30:52Z</time></trkpt><trkpt lat="42.3671636218" lon="13.7179700844"><ele>1360.10</ele><time>2026-8-20T17:30:54Z</time></trkpt><trkpt lat="42.3671509232" lon="13.7181256525"><ele>1359.54</ele><time>2026-8-20T17:30:56Z</time></trkpt><trkpt lat="42.3671381828" lon="13.7182895188"><ele>1359.15</ele><time>2026-8-20T17:30:57Z</time></trkpt><trkpt lat="42.3671273701" lon="13.7185148243"><ele>1358.58</ele><time>2026-8-20T17:30:59Z</time></trkpt><trkpt lat="42.3671160545" lon="13.7186880782"><ele>1358.03</ele><time>2026-8-20T17:31:1Z</time></trkpt><trkpt lat="42.3671011348" lon="13.7188684987"><ele>1357.49</ele><time>2026-8-20T17:31:2Z</time></trkpt><trkpt lat="42.3670903221" lon="13.7190526910"><ele>1357.05</ele><time>2026-8-20T17:31:4Z</time></trkpt><trkpt lat="42.3670821078" lon="13.7192384759"><ele>1356.41</ele><time>2026-8-20T17:31:5Z</time></trkpt><trkpt lat="42.3670731392" lon="13.7194229197"><ele>1355.59</ele><time>2026-8-20T17:31:7Z</time></trkpt><trkpt lat="42.3670751927" lon="13.7196065253"><ele>1354.98</ele><time>2026-8-20T17:31:8Z</time></trkpt><trkpt lat="42.3670847900" lon="13.7197812460"><ele>1354.36</ele><time>2026-8-20T17:31:10Z</time></trkpt><trkpt lat="42.3671107321" lon="13.7199550448"><ele>1353.70</ele><time>2026-8-20T17:31:11Z</time></trkpt><trkpt lat="42.3671422899" lon="13.7201256584"><ele>1353.14</ele><time>2026-8-20T17:31:13Z</time></trkpt><trkpt lat="42.3671867559" lon="13.7202998344"><ele>1352.54</ele><time>2026-8-20T17:31:14Z</time></trkpt><trkpt lat="42.3672280367" lon="13.7204614375"><ele>1351.92</ele><time>2026-8-20T17:31:16Z</time></trkpt><trkpt lat="42.3672680184" lon="13.7206227053"><ele>1350.93</ele><time>2026-8-20T17:31:17Z</time></trkpt><trkpt lat="42.3673101794" lon="13.7207841408"><ele>1350.42</ele><time>2026-8-20T17:31:19Z</time></trkpt><trkpt lat="42.3673503287" lon="13.7209430197"><ele>1350.18</ele><time>2026-8-20T17:31:20Z</time></trkpt><trkpt lat="42.3674018355" lon="13.7211498432"><ele>1349.92</ele><time>2026-8-20T17:31:22Z</time></trkpt><trkpt lat="42.3674398474" lon="13.7213016395"><ele>1349.61</ele><time>2026-8-20T17:31:24Z</time></trkpt><trkpt lat="42.3674757639" lon="13.7214656733"><ele>1349.23</ele><time>2026-8-20T17:31:25Z</time></trkpt><trkpt lat="42.3675258877" lon="13.7216719101"><ele>1348.54</ele><time>2026-8-20T17:31:27Z</time></trkpt><trkpt lat="42.3675537575" lon="13.7218558090"><ele>1347.44</ele><time>2026-8-20T17:31:29Z</time></trkpt><trkpt lat="42.3674957967" lon="13.7220270094"><ele>1346.43</ele><time>2026-8-20T17:31:31Z</time></trkpt><trkpt lat="42.3673668411" lon="13.7220989680"><ele>1345.49</ele><time>2026-8-20T17:31:33Z</time></trkpt><trkpt lat="42.3672588822" lon="13.7220707629"><ele>1344.84</ele><time>2026-8-20T17:31:35Z</time></trkpt><trkpt lat="42.3671584111" lon="13.7219729181"><ele>1343.92</ele><time>2026-8-20T17:31:37Z</time></trkpt><trkpt lat="42.3671264481" lon="13.7217830122"><ele>1342.65</ele><time>2026-8-20T17:31:39Z</time></trkpt><trkpt lat="42.3671576288" lon="13.7216109736"><ele>1341.75</ele><time>2026-8-20T17:31:41Z</time></trkpt><trkpt lat="42.3671746441" lon="13.7214303436"><ele>1341.06</ele><time>2026-8-20T17:31:43Z</time></trkpt><trkpt lat="42.3671707465" lon="13.7212494202"><ele>1340.34</ele><time>2026-8-20T17:31:45Z</time></trkpt><trkpt lat="42.3671301781" lon="13.7210701732"><ele>1339.70</ele><time>2026-8-20T17:31:47Z</time></trkpt><trkpt lat="42.3670685711" lon="13.7209038762"><ele>1339.11</ele><time>2026-8-20T17:31:49Z</time></trkpt><trkpt lat="42.3669935949" lon="13.7207415188"><ele>1338.29</ele><time>2026-8-20T17:31:51Z</time></trkpt><trkpt lat="42.3669181578" lon="13.7205833104"><ele>1337.65</ele><time>2026-8-20T17:31:53Z</time></trkpt><trkpt lat="42.3668585206" lon="13.7204237190"><ele>1337.29</ele><time>2026-8-20T17:31:55Z</time></trkpt><trkpt lat="42.3668168625" lon="13.7202671031"><ele>1337.02</ele><time>2026-8-20T17:31:57Z</time></trkpt><trkpt lat="42.3667806527" lon="13.7201246107"><ele>1336.78</ele><time>2026-8-20T17:31:59Z</time></trkpt><trkpt lat="42.3667412717" lon="13.7199656479"><ele>1336.47</ele><time>2026-8-20T17:32:2Z</time></trkpt><trkpt lat="42.3666961631" lon="13.7197730946"><ele>1335.91</ele><time>2026-8-20T17:32:5Z</time></trkpt><trkpt lat="42.3666550499" lon="13.7195759942"><ele>1335.58</ele><time>2026-8-20T17:32:9Z</time></trkpt><trkpt lat="42.3666187562" lon="13.7194158230"><ele>1335.44</ele><time>2026-8-20T17:32:13Z</time></trkpt><trkpt lat="42.3665796127" lon="13.7192632654"><ele>1335.38</ele><time>2026-8-20T17:32:16Z</time></trkpt><trkpt lat="42.3665061454" lon="13.7191096461"><ele>1335.48</ele><time>2026-8-20T17:32:20Z</time></trkpt><trkpt lat="42.3663894064" lon="13.7190235849"><ele>1335.54</ele><time>2026-8-20T17:32:24Z</time></trkpt><trkpt lat="42.3662548140" lon="13.7189992983"><ele>1335.47</ele><time>2026-8-20T17:32:28Z</time></trkpt><trkpt lat="42.3661282472" lon="13.7190676527"><ele>1335.36</ele><time>2026-8-20T17:32:32Z</time></trkpt><trkpt lat="42.3660388291" lon="13.7191858795"><ele>1335.21</ele><time>2026-8-20T17:32:37Z</time></trkpt><trkpt lat="42.3659591843" lon="13.7193452404"><ele>1335.08</ele><time>2026-8-20T17:32:41Z</time></trkpt><trkpt lat="42.3658927157" lon="13.7194956467"><ele>1335.15</ele><time>2026-8-20T17:32:45Z</time></trkpt><trkpt lat="42.3658208828" lon="13.7196664140"><ele>1335.13</ele><time>2026-8-20T17:32:49Z</time></trkpt><trkpt lat="42.3657666938" lon="13.7198306888"><ele>1334.74</ele><time>2026-8-20T17:32:55Z</time></trkpt><trkpt lat="42.3657462839" lon="13.7199855130"><ele>1334.42</ele><time>2026-8-20T17:33:2Z</time></trkpt><trkpt lat="42.3657544423" lon="13.7201701663"><ele>1334.13</ele><time>2026-8-20T17:33:8Z</time></trkpt><trkpt lat="42.3657486287" lon="13.7203702969"><ele>1333.61</ele><time>2026-8-20T17:33:31Z</time></trkpt></trkseg></trk></gpx>